[[{"header":{"parameterUnit":"m.s-1","parameterCategory":1,"la1":30.6,"la2":28.766,"lo1":-90.7593,"lo2":-88.6598,"dy":0.0162,"dx":0.0183,"nx":116,"ny":114,"refTime":"2023-04-26T00:00:00:Z","depth":0,"parameterNumber":2,"parameterNumberName":"U-component_of_WINDS"},"data":[0.0,0.0,0.0,0.0,0.0,0.0,0.0,0.0,0.0,0.0,0.0,0.0,0.0,0.0,0.0,0.0,0.0,0.0,0.0,0.0,0.0,0.0,0.0,0.0,0.0,0.0,0.0,0.0,0.0,0.0,0.0,0.0,0.0,0.0,0.0,0.0,0.0,0.0,0.0,0.0,0.0,0.0,0.0,0.0,0.0,0.0,0.0,0.0,0.0,0.0,0.0,0.0,0.0,0.0,0.0,0.0,0.0,0.0,0.0,0.0,0.0,0.0,0.0,0.0,0.0,0.0,0.0,0.0,0.0,0.0,0.0,0.0,0.0,0.0,0.0,0.0,0.0,0.0,0.0,0.0,0.0,0.0,0.0,0.0,0.0,0.0,0.0,0.0,0.0,0.0,0.0,0.0,0.0,0.0,0.0,0.0,0.0,0.0,0.0,0.0,0.0,0.0,0.0,0.0,0.0,0.0,0.0,0.0,0.0,0.0,0.0,0.0,0.0,0.0,0.0,0.0,0.0,0.0,0.0,0.0,0.0,0.0,0.0,0.0,0.0,0.0,0.0,0.0,0.0,0.0,0.0,0.0,0.0,0.0,0.0,0.0,0.0,0.0,0.0,0.0,0.0,0.0,0.0,0.0,0.0,0.0,0.0,0.0,0.0,0.0,0.0,0.0,0.0,0.0,0.0,0.0,0.0,0.0,0.0,0.0,0.0,0.0,0.0,0.0,0.0,0.0,0.0,0.0,0.0,0.0,0.0,0.0,0.0,0.0,0.0,0.0,0.0,0.0,0.0,0.0,0.0,0.0,0.0,0.0,0.0,0.0,0.0,0.0,0.0,0.0,0.0,0.0,0.0,0.0,0.0,0.0,0.0,0.0,0.0,0.0,0.0,0.0,0.0,0.0,0.0,0.0,0.0,0.0,0.0,0.0,0.0,0.0,0.0,0.0,0.0,0.0,0.0,0.0,0.0,0.0,0.0,0.0,0.0,0.0,0.0,0.0,0.0,0.0,0.0,0.0,0.0,0.0,0.0,0.0,0.0,0.0,0.0,0.0,0.0,0.0,0.0,0.0,0.0,0.0,0.0,0.0,0.0,0.0,0.0,0.0,0.0,0.0,0.0,0.0,0.0,0.0,0.0,0.0,0.0,0.0,0.0,0.0,0.0,0.0,0.0,0.0,0.0,0.0,0.0,0.0,0.0,0.0,0.0,0.0,0.0,0.0,0.0,0.0,0.0,0.0,0.0,0.0,0.0,0.0,0.0,0.0,0.0,0.0,0.0,0.0,0.0,0.0,0.0,0.0,0.0,0.0,0.0,0.0,0.0,0.0,0.0,0.0,0.0,0.0,0.0,0.0,0.0,0.0,0.0,0.0,0.0,0.0,0.0,0.0,0.0,0.0,0.0,0.0,0.0,0.0,0.0,0.0,0.0,0.0,0.0,0.0,0.0,0.0,0.0,0.0,0.0,0.0,0.0,0.0,0.0,0.0,0.0,0.0,0.0,0.0,0.0,0.0,0.0,0.0,0.0,0.0,0.0,0.0,0.0,0.0,0.0,0.0,0.0,0.0,0.0,0.0,0.0,0.0,0.0,0.0,0.0,0.0,0.0,0.0,0.0,0.0,0.0,0.0,0.0,0.0,0.0,0.0,0.0,0.0,0.0,0.0,0.0,0.0,0.0,0.0,0.0,0.0,0.0,0.0,0.0,0.0,0.0,0.0,0.0,0.0,0.0,0.0,0.0,0.0,0.0,0.0,0.0,0.0,0.0,0.0,0.0,0.0,0.0,0.0,0.0,0.0,0.0,0.0,0.0,0.0,0.0,0.0,0.0,0.0,0.0,0.0,0.0,0.0,0.0,0.0,0.0,0.0,0.0,0.0,0.0,0.0,0.0,0.0,0.0,0.0,0.0,0.0,0.0,0.0,0.0,0.0,0.0,0.0,0.0,0.0,0.0,0.0,0.0,0.0,0.0,0.0,0.0,0.0,0.0,0.0,0.0,0.0,0.0,0.0,0.0,0.0,0.0,0.0,0.0,0.0,0.0,0.0,0.0,0.0,0.0,0.0,0.0,0.0,0.0,0.0,0.0,0.0,0.0,0.0,0.0,0.0,0.0,0.0,0.0,0.0,0.0,0.0,0.0,0.0,0.0,0.0,0.0,0.0,0.0,0.0,0.0,0.0,0.0,0.0,0.0,0.0,0.0,0.0,0.0,0.0,0.0,0.0,0.0,0.0,0.0,0.0,0.0,0.0,0.0,0.0,0.0,0.0,0.0,0.0,0.0,0.0,0.0,0.0,0.0,0.0,0.0,0.0,0.0,0.0,0.0,0.0,0.0,0.0,0.0,0.0,0.0,0.0,0.0,0.0,0.0,0.0,0.0,0.0,0.0,0.0,0.0,0.0,0.0,0.0,0.0,0.0,0.0,0.0,0.0,0.0,0.0,0.0,0.0,0.0,0.0,0.0,0.0,0.0,0.0,0.0,0.0,0.0,0.0,0.0,0.0,0.0,0.0,0.0,0.0,0.0,0.0,0.0,0.0,0.0,0.0,0.0,0.0,0.0,0.0,0.0,0.0,0.0,0.0,0.0,0.0,0.0,0.0,0.0,0.0,0.0,0.0,0.0,0.0,0.0,0.0,0.0,0.0,0.0,0.0,0.0,0.0,0.0,0.0,0.0,0.0,0.0,0.0,0.0,0.0,0.0,0.0,0.0,0.0,0.0,0.0,0.0,0.0,0.0,0.0,0.0,0.0,0.0,0.0,0.0,0.0,0.0,0.0,0.0,0.0,0.0,0.0,0.0,0.0,0.0,0.0,0.0,0.0,0.0,0.0,0.0,0.0,0.0,0.0,0.0,0.0,0.0,0.0,0.0,0.0,0.0,0.0,0.0,0.0,0.0,0.0,0.0,0.0,0.0,0.0,0.0,0.0,0.0,0.0,0.0,0.0,0.0,0.0,0.0,0.0,0.0,0.0,0.0,0.0,0.0,0.0,0.0,0.0,0.0,0.0,0.0,0.0,0.0,0.0,0.0,0.0,0.0,0.0,0.0,0.0,0.0,0.0,0.0,0.0,0.0,0.0,0.0,0.0,0.0,0.0,0.0,0.0,0.0,0.0,0.0,0.0,0.0,0.0,0.0,0.0,0.0,0.0,0.0,0.0,0.0,0.0,0.0,0.0,0.0,0.0,0.0,0.0,0.0,0.0,0.0,0.0,0.0,0.0,0.0,0.0,0.0,0.0,0.0,0.0,0.0,0.0,0.0,0.0,0.0,0.0,0.0,0.0,0.0,0.0,0.0,0.0,0.0,0.0,0.0,0.0,0.0,0.0,0.0,0.0,0.0,0.0,0.0,0.0,0.0,0.0,0.0,0.0,0.0,0.0,0.0,0.0,0.0,0.0,0.0,0.0,0.0,0.0,0.0,0.0,0.0,0.0,0.0,0.0,0.0,0.0,0.0,0.0,0.0,0.0,0.0,0.0,0.0,0.0,0.0,0.0,0.0,0.0,0.0,0.0,0.0,0.0,0.0,0.0,0.0,0.0,0.0,0.0,0.0,0.0,0.0,0.0,0.0,0.0,0.0,0.0,0.0,0.0,0.0,0.0,0.0,0.0,0.0,0.0,0.0,0.0,0.0,0.0,0.0,0.0,0.0,0.0,0.0,0.0,0.0,0.0,0.0,0.0,0.0,0.0,0.0,0.0,0.0,0.0,0.0,0.0,0.0,0.0,0.0,0.0,0.0,0.0,0.0,0.0,0.0,0.0,0.0,0.0,0.0,0.0,0.0,0.0,0.0,0.0,0.0,0.0,0.0,0.0,0.0,0.0,0.0,0.0,0.0,0.0,0.0,0.0,0.0,0.0,0.0,0.0,0.0,0.0,0.0,0.0,0.0,0.0,0.0,0.0,0.0,0.0,0.0,0.0,0.0,0.0,0.0,0.0,0.0,0.0,0.0,0.0,0.0,0.0,0.0,0.0,0.0,0.0,0.0,0.0,0.0,0.0,0.0,0.0,0.0,0.0,0.0,0.0,0.0,0.0,0.0,0.0,0.0,0.0,0.0,0.0,0.0,0.0,0.0,0.0,0.0,0.0,0.0,0.0,0.0,0.0,0.0,0.0,0.0,0.0,0.0,0.0,0.0,0.0,0.0,0.0,0.0,0.0,0.0,0.0,0.0,0.0,0.0,0.0,0.0,0.0,0.0,0.0,0.0,0.0,0.0,0.0,0.0,0.0,0.0,0.0,0.0,0.0,0.0,0.0,0.0,0.0,0.0,0.0,0.0,0.0,0.0,0.0,0.0,0.0,0.0,0.0,0.0,0.0,0.0,0.0,0.0,0.0,0.0,0.0,0.0,0.0,0.0,0.0,0.0,0.0,0.0,0.0,0.0,0.0,0.0,0.0,0.0,0.0,0.0,0.0,0.0,0.0,0.0,0.0,0.0,0.0,0.0,0.0,0.0,0.0,0.0,0.0,0.0,0.0,0.0,0.0,0.0,0.0,0.0,0.0,0.0,0.0,0.0,0.0,0.0,0.0,0.0,0.0,0.0,0.0,0.0,0.0,0.0,0.0,0.0,0.0,0.0,0.0,0.0,0.0,0.0,0.0,0.0,0.0,0.0,0.0,0.0,0.0,0.0,0.0,0.0,0.0,0.0,0.0,0.0,0.0,0.0,0.0,0.0,0.0,0.0,0.0,0.0,0.0,0.0,0.0,0.0,0.0,0.0,0.0,0.0,0.0,0.0,0.0,0.0,0.0,0.0,0.0,0.0,0.0,0.0,0.0,0.0,0.0,0.0,0.0,0.0,0.0,0.0,0.0,0.0,0.0,0.0,0.0,0.0,0.0,0.0,0.0,0.0,0.0,0.0,0.0,0.0,0.0,0.0,0.0,0.0,0.0,0.0,0.0,0.0,0.0,0.0,0.0,0.0,0.0,0.0,0.0,0.0,0.0,0.0,0.0,0.0,0.0,0.0,0.0,0.0,0.0,0.0,0.0,0.0,0.0,0.0,0.0,0.0,0.0,0.0,0.0,0.0,0.0,0.0,0.0,0.0,0.0,0.0,0.0,0.0,0.0,0.0,0.0,0.0,0.0,0.0,0.0,0.0,0.0,0.0,0.0,0.0,0.0,0.0,0.0,0.0,0.0,0.0,0.0,0.0,0.0,0.0,0.0,0.0,0.0,0.0,0.0,0.0,0.0,0.0,0.0,0.0,0.0,0.0,0.0,0.0,0.0,0.0,0.0,0.0,0.0,0.0,0.0,0.0,0.0,0.0,0.0,0.0,0.0,0.0,0.0,0.0,0.0,0.0,0.0,0.0,0.0,0.0,0.0,0.0,0.0,0.0,0.0,0.0,0.0,0.0,0.0,0.0,0.0,0.0,0.0,0.0,0.0,0.0,0.0,0.0,0.0,0.0,0.0,0.0,0.0,0.0,0.0,0.0,0.0,0.0,0.0,0.0,0.0,0.0,0.0,0.0,0.0,0.0,0.0,0.0,0.0,0.0,0.0,0.0,0.0,0.0,0.0,0.0,0.0,0.0,0.0,0.0,0.0,0.0,0.0,0.0,0.0,0.0,0.0,0.0,0.0,0.0,0.0,0.0,0.0,0.0,0.0,0.0,0.0,0.0,0.0,0.0,0.0,0.0,0.0,0.0,0.0,0.0,0.0,0.0,0.0,0.0,0.0,0.0,0.0,0.0,0.0,0.0,0.0,0.0,0.0,0.0,0.0,0.0,0.0,0.0,0.0,0.0,0.0,0.0,0.0,0.0,0.0,0.0,0.0,0.0,0.0,0.0,0.0,0.0,0.0,0.0,0.0,0.0,0.0,0.0,0.0,0.0,0.0,0.0,0.0,0.0,0.0,0.0,0.0,0.0,0.0,0.0,0.0,0.0,0.0,0.0,0.0,0.0,0.0,0.0,0.0,0.0,0.0,0.0,0.0,0.0,0.0,0.0,0.0,0.0,0.0,0.0,0.0,0.0,0.0,0.0,0.0,0.0,0.0,0.0,0.0,0.0,0.0,0.0,0.0,0.0,0.0,0.0,0.0,0.0,0.0,0.0,0.0,0.0,0.0,0.0,0.0,0.0,0.0,0.0,0.0,0.0,0.0,0.0,-2.8382,-2.606,0.0,0.0,0.0,0.0,0.0,0.0,0.0,0.0,0.0,0.0,0.0,0.0,0.0,0.0,0.0,0.0,0.0,0.0,0.0,0.0,0.0,0.0,0.0,0.0,0.0,0.0,0.0,0.0,0.0,0.0,0.0,0.0,0.0,0.0,0.0,0.0,0.0,0.0,-1.5213,-1.5948,-1.6959,-1.7381,-1.7138,-1.6355,0.0,0.0,0.0,0.0,0.0,0.0,0.0,0.0,0.0,0.0,0.0,0.0,0.0,0.0,0.0,0.0,0.0,0.0,0.0,0.0,0.0,0.0,0.0,0.0,0.0,0.0,0.0,0.0,0.0,0.0,0.0,0.0,0.0,0.0,0.0,0.0,0.0,0.0,0.0,0.0,0.0,0.0,0.0,0.0,0.0,0.0,0.0,0.0,0.0,0.0,0.0,0.0,0.0,0.0,0.0,0.0,0.0,0.0,0.0,0.0,0.0,0.0,0.0,0.0,0.0,0.0,0.0,0.0,0.0,0.0,-2.8998,-2.8225,0.0,0.0,0.0,0.0,0.0,0.0,0.0,0.0,0.0,0.0,0.0,0.0,0.0,0.0,0.0,0.0,0.0,0.0,0.0,0.0,0.0,0.0,0.0,-1.6772,-1.6773,-1.7072,-1.6758,-1.6588,0.0,0.0,0.0,0.0,0.0,0.0,0.0,-1.3268,-1.383,-1.4878,-1.6049,-1.7224,-1.8318,-1.7884,-1.7022,-1.5853,-1.7163,0.0,0.0,0.0,0.0,0.0,0.0,0.0,0.0,0.0,0.0,0.0,0.0,0.0,0.0,0.0,0.0,0.0,0.0,0.0,0.0,0.0,0.0,0.0,0.0,0.0,0.0,0.0,0.0,0.0,0.0,0.0,0.0,0.0,0.0,0.0,0.0,0.0,0.0,0.0,0.0,0.0,0.0,0.0,0.0,0.0,0.0,0.0,0.0,0.0,0.0,0.0,0.0,0.0,0.0,0.0,0.0,0.0,0.0,0.0,0.0,0.0,0.0,0.0,-2.609,-2.6165,-2.6264,-2.6937,-2.7431,-2.7906,-2.9922,-3.0994,-3.1267,-2.9781,0.0,0.0,0.0,0.0,0.0,0.0,0.0,0.0,0.0,0.0,0.0,0.0,0.0,0.0,0.0,0.0,0.0,0.0,0.0,0.0,0.0,-1.7658,-1.7474,-1.7902,-1.6902,-1.6179,-1.5972,0.0,0.0,0.0,0.0,0.0,-1.3772,-1.358,-1.4694,-1.7175,-1.7916,-1.8077,-1.7725,-1.7957,-1.7655,-1.7022,-1.7954,-1.7968,-1.7307,0.0,0.0,0.0,0.0,0.0,0.0,0.0,0.0,0.0,0.0,0.0,0.0,0.0,0.0,0.0,0.0,0.0,0.0,0.0,0.0,0.0,0.0,0.0,0.0,0.0,0.0,0.0,0.0,0.0,0.0,0.0,0.0,0.0,0.0,0.0,0.0,0.0,0.0,0.0,0.0,0.0,-2.4344,-2.5672,0.0,0.0,0.0,0.0,0.0,0.0,0.0,0.0,0.0,0.0,0.0,0.0,0.0,-2.6084,-2.602,-2.6705,-2.7021,-2.7034,-2.8102,-2.9,-2.9664,-2.9762,-3.0215,-3.0847,-2.9624,0.0,-3.1366,-3.1965,0.0,0.0,0.0,0.0,0.0,0.0,0.0,0.0,0.0,0.0,0.0,0.0,0.0,0.0,0.0,0.0,0.0,0.0,0.0,0.0,0.0,-1.6732,-1.646,-1.667,-1.5776,-1.5142,-1.5034,-1.4395,0.0,0.0,0.0,-1.3584,-1.3555,-1.3745,-1.5034,-1.7475,-1.8918,-1.9776,-2.0143,-2.021,-2.0221,-2.0165,-2.005,-1.9194,-1.7859,-1.9136,0.0,0.0,0.0,0.0,0.0,0.0,0.0,0.0,0.0,0.0,0.0,0.0,0.0,0.0,0.0,0.0,0.0,0.0,0.0,0.0,0.0,0.0,0.0,0.0,0.0,0.0,0.0,0.0,0.0,0.0,0.0,0.0,0.0,0.0,0.0,0.0,0.0,0.0,0.0,-2.4773,-2.5588,-2.6443,-2.6317,-2.5625,0.0,0.0,0.0,0.0,0.0,0.0,0.0,0.0,0.0,-2.5859,-2.6433,-2.676,-2.6816,-2.7767,-2.82,-2.8124,-2.8658,-2.9079,-2.9302,-2.9858,-3.0329,-3.0642,-3.0421,-3.074,-3.1371,-3.0799,-3.0083,-2.9265,0.0,0.0,0.0,0.0,-2.4358,-2.5109,0.0,0.0,0.0,0.0,0.0,0.0,0.0,0.0,0.0,0.0,0.0,0.0,-1.611,-1.5604,-1.528,-1.547,-1.4653,-1.4188,-1.4302,-1.3669,-1.3227,-1.3201,-1.3204,-1.3263,-1.3319,-1.435,-1.5881,-1.7942,-1.9539,-2.087,-2.2002,-2.1919,-2.2049,-2.2402,-2.18,-2.0442,-1.868,-2.0169,-1.9968,-1.8775,0.0,0.0,0.0,0.0,0.0,0.0,0.0,0.0,0.0,0.0,0.0,0.0,0.0,0.0,0.0,0.0,0.0,0.0,0.0,0.0,0.0,0.0,0.0,0.0,0.0,0.0,0.0,0.0,0.0,0.0,0.0,0.0,0.0,0.0,0.0,0.0,0.0,-2.5573,-2.6117,-2.6905,-2.6907,-2.6311,0.0,0.0,0.0,0.0,0.0,0.0,-2.6162,-2.5957,-2.5961,-2.6203,-2.7005,-2.7483,-2.7536,-2.8453,-2.8855,-2.8724,-2.8724,-2.8657,-2.851,-2.9289,-2.9626,-2.9653,-3.0392,-3.0719,-3.0665,-2.9826,-2.9318,-2.9013,-2.8499,-2.7377,-2.5962,-2.525,-2.5268,-2.5635,0.0,0.0,0.0,0.0,0.0,0.0,0.0,0.0,0.0,0.0,0.0,-1.5368,-1.5795,-1.4838,-1.444,-1.5149,-1.4093,-1.358,-1.4058,-1.2657,-1.222,-1.3171,-1.2252,-1.2238,-1.3384,-1.5737,-1.7746,-1.9394,-1.9793,-2.0606,-2.1714,-2.1695,-2.1897,-2.2225,-2.2352,-2.1414,-1.9792,-2.083,-2.0676,-1.9669,-1.8905,0.0,0.0,0.0,0.0,0.0,0.0,0.0,0.0,0.0,0.0,0.0,0.0,0.0,0.0,0.0,0.0,0.0,0.0,0.0,0.0,0.0,0.0,0.0,0.0,0.0,0.0,0.0,0.0,0.0,0.0,0.0,0.0,0.0,0.0,0.0,0.0,0.0,0.0,-2.6459,-2.7301,0.0,0.0,0.0,0.0,-2.5968,-2.5781,-2.621,-2.7348,-2.7027,-2.7386,-2.8609,-2.8485,-2.8442,-2.8426,-2.8486,-2.851,-2.851,-2.851,-2.851,-2.851,-2.855,-2.859,-2.859,-2.8618,-2.8657,-2.8803,-3.0628,-3.1366,-3.1156,-2.9305,-2.8365,-2.7798,-2.569,-2.5636,-2.6573,0.0,0.0,0.0,0.0,0.0,0.0,0.0,0.0,-1.5196,-1.4955,-1.4682,-1.46,-1.4692,-1.4091,-1.3969,-1.476,-1.406,-1.3576,-1.3588,-1.3217,-1.2804,-1.2454,-1.2549,-1.3084,-1.4077,-1.6238,-1.7505,-1.7828,-1.9436,-2.0457,-2.1009,-2.1022,-2.1492,-2.2271,-2.1349,-2.1093,-2.1329,-2.2082,-2.1866,-2.1043,-2.1374,-2.0714,0.0,0.0,0.0,0.0,0.0,0.0,0.0,0.0,0.0,0.0,0.0,0.0,0.0,0.0,0.0,0.0,0.0,0.0,0.0,0.0,0.0,0.0,0.0,0.0,0.0,0.0,0.0,0.0,0.0,0.0,0.0,0.0,0.0,0.0,0.0,0.0,0.0,-2.492,-2.5329,0.0,-2.5283,-2.547,-2.5703,-2.5928,-2.6619,-2.7435,-2.8273,-2.8193,-2.8258,-2.8605,-2.855,-2.8538,-2.8685,-2.8685,-2.8685,-2.8685,-2.8685,-2.8618,-2.851,-2.851,-2.851,-2.851,-2.851,-2.851,-2.855,-2.9289,-2.9588,-2.9487,-2.8824,-2.8486,-2.8311,-2.7507,-2.7554,-2.8055,0.0,0.0,0.0,0.0,0.0,0.0,0.0,0.0,-1.4543,-1.4537,-1.4179,-1.3858,-1.3741,-1.359,-1.3539,-1.3687,-1.3609,-1.3356,-1.2843,-1.2856,-1.2616,-1.1963,-1.2693,-1.3767,-1.5209,-1.6406,-1.7177,-1.7476,-1.8758,-1.9723,-2.0367,-2.0307,-2.1019,-2.2375,-2.1317,-2.1369,-2.2265,-2.2675,-2.256,-2.2172,-2.268,-2.1391,-1.9216,0.0,0.0,0.0,0.0,0.0,0.0,0.0,0.0,0.0,0.0,0.0,0.0,0.0,0.0,0.0,0.0,0.0,0.0,0.0,0.0,0.0,0.0,0.0,0.0,0.0,0.0,0.0,0.0,0.0,0.0,0.0,0.0,0.0,0.0,-2.2325,-2.3294,-2.4047,-2.4363,-2.4586,-2.4818,-2.5058,-2.5469,-2.6062,-2.6789,-2.7424,-2.7867,-2.8131,-2.8235,-2.8155,-2.8447,-2.8697,-2.8882,-2.8882,-2.8882,-2.8882,-2.8843,-2.8724,-2.8618,-2.855,-2.8318,-2.7993,-2.8354,-2.8306,-2.8005,-2.8366,-2.851,-2.851,-2.851,-2.851,-2.851,-2.8578,-2.8685,-2.8831,0.0,0.0,0.0,0.0,0.0,0.0,0.0,-1.4425,-1.4252,-1.3795,-1.3516,-1.3252,-1.3024,-1.3451,-1.3295,-1.2228,-1.2871,-1.2965,-1.1936,-1.1545,-1.1512,-1.1818,-1.2526,-1.4077,-1.6595,-1.6308,-1.6929,-1.856,-1.7888,-1.8356,-1.9824,-1.9507,-2.042,-2.2314,-2.2357,-2.2406,-2.2472,-2.2522,-2.2706,-2.294,-2.2457,-2.1389,-1.9965,0.0,0.0,0.0,0.0,0.0,0.0,0.0,0.0,0.0,0.0,0.0,0.0,0.0,0.0,0.0,0.0,0.0,0.0,0.0,0.0,0.0,0.0,0.0,0.0,0.0,0.0,0.0,0.0,0.0,0.0,0.0,0.0,0.0,-2.0956,-2.2206,-2.3234,-2.3908,-2.4594,-2.5284,-2.5942,-2.6254,-2.6389,-2.6442,-2.6213,-2.6066,-2.6066,-2.6737,-2.7186,-2.7394,-2.818,-2.877,-2.9018,-2.9028,-2.9091,-2.9091,-2.8922,-2.8843,-2.8791,-2.8618,-2.7945,-2.7006,-2.8065,-2.7933,-2.7018,-2.8089,-2.851,-2.851,-2.851,-2.851,-2.855,-2.8724,-2.8791,-2.887,0.0,0.0,0.0,0.0,0.0,0.0,0.0,-1.4856,-1.4569,-1.273,-1.3675,-1.4122,-1.3059,-1.4329,-1.5152,-1.4778,-1.4954,-1.4601,-1.3406,-1.3119,-1.2768,-1.2316,-1.2935,-1.3942,-1.5434,-1.6092,-1.6724,-1.7352,-1.7288,-1.7697,-1.8544,-1.8441,-1.9179,-2.0612,-2.1003,-2.1518,-2.22,-2.2756,-2.2866,-2.2696,-2.3318,-2.2774,-2.1627,0.0,0.0,0.0,0.0,0.0,0.0,0.0,0.0,0.0,0.0,0.0,0.0,0.0,0.0,0.0,0.0,0.0,0.0,0.0,0.0,0.0,0.0,0.0,0.0,0.0,0.0,0.0,0.0,0.0,0.0,0.0,-2.037,-2.1152,-2.159,-2.1969,-2.2474,-2.326,-2.3541,-2.3714,-2.393,-2.3973,-2.4317,-2.4988,-2.4988,-2.5231,-2.585,-2.5116,-2.4737,-2.487,-2.5036,-2.5624,-2.678,-2.769,-2.8542,-2.9302,-2.9263,-2.9145,-2.9013,-2.8803,-2.8567,-2.8312,-2.8418,-2.8342,-2.8102,-2.839,-2.851,-2.851,-2.8657,-2.8724,-2.8724,-2.8922,-2.9118,-2.9102,0.0,0.0,0.0,0.0,0.0,0.0,0.0,-1.4641,-1.4145,-1.2044,-1.3128,-1.372,-1.2716,-1.4537,-1.5568,-1.4718,-1.5603,-1.5206,-1.2861,-1.2546,-1.2936,-1.406,-1.3176,-1.3498,-1.516,-1.5132,-1.5458,-1.6295,-1.6206,-1.6763,-1.785,-1.7841,-1.8555,-1.9932,-2.0332,-2.1007,-2.193,-2.2705,-2.2939,-2.2861,-2.383,-2.314,-2.1584,-2.2609,-2.1803,-2.017,-2.0384,-2.0344,-2.0057,-1.912,0.0,0.0,0.0,0.0,0.0,0.0,0.0,0.0,0.0,0.0,0.0,0.0,0.0,0.0,0.0,0.0,0.0,0.0,0.0,0.0,0.0,0.0,0.0,0.0,-2.0741,-2.1867,-2.2236,-2.2327,-2.264,-2.3217,-2.3188,-2.3057,-2.2969,-2.2969,-2.3135,-2.3594,-2.3637,-2.3844,-2.4339,-2.397,-2.3618,-2.3322,-2.4128,-2.4815,-2.5312,-2.6618,-2.7787,-2.8834,-2.8767,-2.8897,-2.9236,-2.8922,-2.8548,-2.8147,-2.8385,-2.8258,-2.7846,-2.833,-2.851,-2.851,0.0,0.0,0.0,0.0,-2.9118,-2.9139,0.0,0.0,0.0,0.0,0.0,0.0,0.0,-1.4225,-1.3674,-1.2016,-1.2507,-1.2864,-1.245,-1.4408,-1.5115,-1.3379,-1.5147,-1.4837,-1.1231,-1.0785,-1.214,-1.5517,-1.309,-1.2731,-1.5093,-1.3765,-1.3789,-1.5259,-1.502,-1.5807,-1.7509,-1.7531,-1.8279,-1.9654,-2.0008,-2.0659,-2.1588,-2.2431,-2.293,-2.3236,-2.4071,-2.302,-2.1129,-2.2329,-2.1745,-2.041,-2.0872,-2.0717,-2.0215,-1.9911,0.0,0.0,0.0,0.0,0.0,0.0,0.0,0.0,0.0,0.0,0.0,0.0,0.0,0.0,0.0,0.0,0.0,0.0,0.0,0.0,0.0,0.0,0.0,0.0,-2.088,-2.198,-2.2557,-2.2882,-2.3101,-2.3373,-2.3188,-2.2969,-2.275,-2.275,-2.2662,-2.2397,-2.2353,-2.2353,-2.2299,-2.2978,0.0,0.0,0.0,-2.4781,-2.4156,-2.5469,-2.6707,-2.7832,-2.7654,-2.8079,-2.9055,-2.8661,-2.8035,-2.7279,-2.8011,-2.7864,-2.715,-2.8126,-2.8467,-2.8423,-2.8483,-2.851,-2.8395,-2.84,-2.8555,-2.8779,0.0,0.0,0.0,0.0,0.0,0.0,0.0,-1.5097,-1.4935,-1.3686,-1.3945,-1.4141,-1.383,-1.4931,-1.519,-1.4019,-1.3876,-1.2863,-1.0533,-0.989,-1.0232,-1.1706,-1.1378,-1.1669,-1.2786,-1.2737,-1.3291,-1.4415,-1.4682,-1.5352,-1.6348,-1.6773,-1.7362,-1.8075,-1.895,-1.9783,-2.0678,-2.2174,-2.2826,-2.2979,-2.4001,-2.4226,-2.405,-2.4782,-2.4496,-2.3745,-2.4211,-2.3838,-2.2761,-2.0605,-2.0071,-2.0159,-1.9218,0.0,0.0,0.0,0.0,0.0,0.0,0.0,0.0,0.0,0.0,0.0,0.0,0.0,0.0,0.0,0.0,0.0,0.0,0.0,0.0,-1.9621,-2.0526,-2.1272,-2.156,-2.2148,-2.2564,-2.2618,-2.2574,-2.252,-2.2485,-2.2485,-2.2397,-2.2185,-2.2141,-2.2052,-2.1874,-2.0915,-2.0383,-2.0304,-2.0643,-2.1194,-2.1974,-2.3317,-2.4745,-2.6157,-2.6127,0.0,-2.7046,-2.6748,-2.6932,-2.7425,-2.7458,-2.7728,-2.8222,-2.8426,-2.8295,-2.7985,-2.8522,-2.8395,-2.7778,-2.6323,-2.6329,-2.6805,0.0,0.0,0.0,0.0,0.0,0.0,0.0,-1.5223,-1.4847,-1.3581,-1.3675,-1.3991,-1.4291,-1.4716,-1.4902,-1.4719,-1.3055,-1.1927,-1.1699,-1.0335,-1.032,-1.2034,-1.0992,-1.078,-1.1668,-1.1326,-1.1828,-1.3251,-1.3586,-1.4676,-1.6443,-1.684,-1.7424,-1.8071,-1.8686,-1.9392,-2.0198,-2.1374,-2.2165,-2.2663,-2.3461,-2.3878,-2.4125,-2.4505,-2.4403,-2.4078,-2.3833,-2.3448,-2.2829,-2.1518,-2.1171,-2.1213,-2.0466,-2.0014,-1.9445,0.0,0.0,0.0,0.0,0.0,0.0,0.0,0.0,0.0,0.0,0.0,0.0,0.0,0.0,-1.8161,-1.7838,0.0,-1.8605,-1.8515,-1.9102,-1.9712,-1.9994,-2.044,-2.1221,-2.2432,-2.2485,-2.2353,-2.2264,-2.2264,-2.2141,-2.1919,-2.1919,-2.183,-2.1696,-2.0945,-2.0295,-1.9802,-2.0259,-2.0521,-2.06,-2.1888,-2.3231,-2.4565,-2.465,-2.5072,-2.5742,-2.567,-2.5889,-2.6438,-2.6224,-2.6524,-2.7185,-2.7396,-2.7209,-2.6864,-2.7447,-2.7435,-2.7032,-2.5864,-2.5735,-2.6011,0.0,0.0,0.0,0.0,0.0,0.0,0.0,-1.5174,-1.4632,-1.3561,-1.3205,-1.3392,-1.427,-1.4081,-1.3963,-1.4207,-1.1925,-1.1003,-1.222,-1.0529,-1.0398,-1.248,-1.0657,-0.9959,-1.0714,-1.0004,-1.0369,-1.1999,-1.2378,-1.39,-1.6478,-1.679,-1.7439,-1.8326,-1.8502,-1.9006,-1.9829,-2.0491,-2.1323,-2.2255,-2.2688,-2.3061,-2.3311,-2.3246,-2.3328,-2.3326,-2.2645,-2.2318,-2.2116,-2.191,-2.1887,-2.1858,-2.1323,-2.1471,-2.1208,-1.7961,-1.7919,0.0,0.0,0.0,0.0,0.0,0.0,0.0,0.0,0.0,-1.7648,-1.6858,-1.7482,-1.7814,-1.6738,-1.7195,-1.7606,-1.7293,-1.7594,-1.7969,-1.8317,-1.8648,-1.9617,-2.165,-2.1891,-2.1945,-2.2008,-2.2008,-2.1919,-2.1651,-2.1651,-2.1597,-2.1553,-2.1428,-2.0941,-2.0042,-2.0878,-2.0923,-2.0056,-2.1062,-2.205,-2.3057,-2.3187,-2.3677,-2.4438,-2.4437,-2.4618,-2.4957,-2.5073,-2.5389,-2.581,-2.6202,-2.6107,-2.5709,-2.6098,-2.6173,-2.6054,-2.57,-2.5453,-2.5284,0.0,0.0,0.0,0.0,0.0,0.0,0.0,0.0,-1.5467,-1.5602,-1.4094,-1.325,-1.3789,-1.3031,-1.1848,-1.0459,-0.9598,-0.9084,-0.9046,-0.8494,-0.8489,-0.9219,-0.9304,-0.925,-0.8976,-0.9368,-1.0051,-1.0991,-1.1652,-1.2978,-1.4883,-1.5331,-1.6281,-1.7682,-1.7727,-1.832,-1.9289,-1.98,-2.0545,-2.1461,-2.2011,-2.2582,-2.3033,-2.2246,-2.2265,-2.2816,-2.3099,-2.265,-2.1797,-2.0917,-2.0832,-2.0982,-1.9956,-2.0049,-2.0226,-1.8674,0.0,-1.8092,-1.5428,-1.3648,-1.2515,-1.2611,-1.3834,-1.4721,0.0,0.0,-1.6811,-1.5788,-1.6437,-1.7368,-1.8034,-1.7392,-1.68,-1.6904,-1.6804,-1.6693,-1.6753,-1.7561,-1.8218,-1.8488,-1.9513,-2.0574,-2.1642,-2.1741,-2.1651,-2.1437,-2.1437,-2.1338,-2.1087,-2.1042,-2.098,-2.0891,-2.0971,-2.098,-2.0891,-2.1025,-2.1356,-2.19,-2.1731,-2.1954,-2.2422,-2.2201,-2.2536,-2.3434,-2.4575,-2.5389,-2.5788,-2.5843,-2.5616,-2.5165,-2.5228,-2.5019,-2.4649,-2.4635,-2.4112,-2.3387,0.0,0.0,0.0,0.0,0.0,0.0,0.0,0.0,0.0,-1.5145,-1.384,-1.3209,-1.4052,-1.3189,-1.1534,-0.9049,-0.8745,-0.8487,-0.8068,-0.7851,-0.8012,-0.8557,-0.8956,-0.8951,-0.8535,-0.9218,-0.9911,-1.0509,-1.1432,-1.2972,-1.5002,-1.5676,-1.68,-1.8285,-1.8285,-1.8639,-1.9225,-1.9579,-2.0011,-2.0529,-2.09,-2.1203,-2.1436,-2.1033,-2.106,-2.1249,-2.0739,-2.0306,0.0,-1.9505,-1.9452,-1.9546,-1.9153,-1.9162,-1.9075,-1.7976,-1.7564,0.0,-1.5671,-1.4886,-1.4523,-1.4552,-1.5484,-1.6125,-1.5192,-1.5803,-1.6351,-1.5618,-1.6157,-1.6744,-1.6738,-1.6199,-1.5802,-1.5833,-1.5338,-1.5035,-1.5408,-1.5805,-1.6318,-1.6861,-1.7018,-1.7735,-1.9454,-2.0871,-2.1359,-2.058,-2.1171,-2.1517,-2.141,-2.1284,-2.1239,-2.1239,-2.1096,-2.0997,-2.0997,-2.0997,-2.1051,-2.1105,-2.115,-2.115,-2.106,-2.1105,-2.1401,-2.1961,-2.3052,-2.3661,-2.3854,-2.4431,-2.4371,-2.3937,-2.4251,-2.4044,-2.3662,-2.3988,-2.386,-2.3486,0.0,0.0,0.0,0.0,0.0,0.0,0.0,0.0,0.0,0.0,-1.3447,-1.3084,-1.3595,-1.2648,-1.1058,-0.881,-0.8634,-0.8496,-0.8048,-0.7912,-0.8047,-0.8408,-0.8885,-0.8899,-0.8386,-0.9179,-0.9755,-0.9996,-1.1073,-1.2657,-1.4811,-1.5725,-1.7018,-1.8601,-1.8742,-1.8966,-1.9242,-1.9487,-1.9853,-2.0283,-2.0292,-2.0464,-2.0645,-2.0374,-2.0095,-1.971,-1.8888,-1.8588,-1.8537,-1.8228,-1.8331,-1.8548,-1.8135,-1.8128,-1.8087,-1.6778,-1.6006,-1.5539,-1.5412,-1.5231,-1.5198,-1.5661,-1.6211,-1.6582,-1.6245,-1.6048,-1.5778,-1.5457,-1.5808,-1.6038,-1.5492,-1.5206,-1.5064,-1.4975,-1.4423,-1.4091,-1.4506,-1.4592,-1.4801,-1.539,-1.5171,-1.5402,-1.6429,-1.9141,-2.0748,-2.0424,-2.1202,-2.1696,-2.1696,-2.1562,-2.1482,-2.1482,-2.1275,-2.1177,-2.1177,-2.1177,-2.1096,-2.0888,-2.0961,-2.0772,-2.0428,-2.0518,-2.0736,-2.1042,-2.1713,-2.2167,-2.246,-2.3121,-2.3295,-2.314,-2.3623,-2.3594,-2.3315,-2.3672,-2.3711,-2.3564,0.0,0.0,0.0,0.0,0.0,0.0,0.0,0.0,0.0,0.0,0.0,0.0,0.0,-1.0599,-0.9809,-0.9683,-0.9295,-0.9012,-0.8792,-0.8624,-0.8487,-0.8313,-0.8827,-0.8899,-0.8386,-0.9179,-0.948,-0.9229,-1.0241,-1.1654,-1.3485,-1.4765,-1.6306,-1.8043,-1.8593,-1.8966,-1.9242,-1.9487,-2.0246,-2.1204,-2.0555,-2.0862,-2.1561,-2.0645,-1.9607,-1.8631,-1.8596,-1.8588,-1.8417,-1.7338,-1.7689,-1.8276,-1.655,-1.6734,0.0,-1.5188,-1.3711,-1.3003,-1.4308,-1.3365,-1.2364,-1.366,-1.4022,-1.4236,-1.497,-1.5137,-1.5123,-1.5109,-1.5146,-1.5163,-1.5099,-1.4873,-1.4711,-1.4736,-1.4472,-1.4268,-1.4292,-1.4298,-1.4145,-1.3643,-1.4415,-1.4349,-1.272,-1.6343,-1.9577,-2.1505,-2.1668,-2.1696,-2.1696,-2.1687,-2.1696,-2.1696,-2.1696,-2.1696,-2.1696,-2.1696,-2.1562,-2.1392,-2.1141,-2.0907,-2.0699,-2.0428,-2.0555,-2.0997,-2.1033,-2.1579,-2.2397,-2.2407,-2.2706,-2.314,-2.3623,-2.3779,-2.3769,-2.3779,-2.3525,-2.311,0.0,0.0,0.0,0.0,0.0,0.0,0.0,0.0,0.0,0.0,0.0,0.0,0.0,0.0,0.0,0.0,-0.8155,-0.7716,-0.7433,-0.7588,-0.7748,-0.794,-0.8556,-0.8838,-0.8691,-0.9282,-0.9579,-0.948,-1.0834,-1.2076,-1.3146,-1.4636,-1.6345,-1.8245,-1.8086,-1.8552,-1.9496,-2.0245,-2.0836,-2.1355,-2.1952,-2.2041,-2.178,-2.054,-1.962,-1.8742,0.0,-1.628,-1.6212,-1.54,-1.5668,-1.611,-1.4827,-1.4942,-1.5118,-1.3014,-1.2268,-1.2118,-1.1928,-1.1809,-1.1898,-1.2477,-1.3031,-1.3518,-1.3955,-1.4019,-1.416,-1.4497,-1.4249,-1.3987,-1.4024,-1.3473,-1.3157,-1.357,-1.3117,-1.3392,-1.5303,-1.4397,-1.4263,-1.6088,-1.5268,0.0,0.0,-1.8012,-1.8663,-1.8531,-2.0472,-2.1696,-2.1696,-2.1696,-2.1696,-2.1696,-2.1696,-2.1696,-2.1696,-2.1696,-2.1499,-2.1114,-2.0727,-2.051,-2.0428,-2.0337,-2.0382,-2.0555,-2.0862,-2.1356,-2.1954,-2.2264,-2.2696,-2.311,-2.3257,-2.3359,-2.3359,-2.3359,-2.3218,-2.3091,0.0,0.0,0.0,0.0,0.0,0.0,0.0,0.0,0.0,0.0,0.0,0.0,0.0,0.0,0.0,0.0,0.0,-0.786,-0.7612,-0.7776,-0.8023,-0.8242,-0.8559,-0.8765,-0.8823,-0.9147,-0.934,-0.944,-1.0777,-1.1946,-1.287,-1.4231,-1.6082,-1.8207,-1.7807,-1.8467,-2.0017,-2.058,-2.1306,-2.2047,-2.2132,-2.21,-2.1807,-2.007,-1.8878,0.0,-1.606,-1.5231,-1.4883,-1.4065,-1.4128,-1.4356,-1.3086,-1.2459,-1.2073,-1.1416,-1.1033,-1.0873,-1.1194,-1.1475,-1.1805,-1.2324,-1.2887,-1.3303,-1.3333,-1.3411,-1.3636,-1.4064,-1.376,-1.3414,-1.3384,-1.282,-1.256,-1.3043,-1.2687,-1.3102,-1.5217,-1.4652,-1.464,-1.6424,-1.5494,-1.5487,0.0,0.0,-1.8121,-1.7665,-1.9569,-2.0784,-2.0827,-2.0827,-2.1092,-2.1678,-2.1776,-2.1785,-2.1696,-2.1785,-2.1588,-2.1159,-2.0727,-2.051,-2.0428,-2.0428,-2.0281,-1.9995,-2.0523,-2.0891,-2.1197,-2.1799,-2.2309,-2.275,-2.2828,-2.2828,-2.2828,-2.2828,-2.2828,-2.2882,0.0,0.0,0.0,0.0,0.0,0.0,0.0,0.0,0.0,0.0,0.0,0.0,0.0,0.0,0.0,0.0,0.0,0.0,-0.9129,-0.9181,-0.9158,-0.8982,-0.8837,-0.88,-0.8846,-0.8821,-0.8919,-0.9123,-1.0162,-1.1306,-1.2496,-1.3658,-1.5525,-1.7838,-1.7644,-1.8657,-2.0495,-2.0476,-2.1537,-2.3083,-2.1283,-2.1095,-2.1675,-1.929,-1.755,-1.6328,-1.6122,-1.5452,-1.4524,-1.3385,-1.3153,-1.3102,-1.1411,-0.9654,-0.8565,-1.0478,-1.0014,-0.94,-1.1865,-1.2102,-1.1916,-1.2877,-1.3242,-1.3331,-1.3099,-1.3249,-1.3534,-1.3734,-1.3598,-1.3291,0.0,0.0,-1.2616,-1.2961,-1.2943,-1.3245,-1.4212,-1.4908,-1.5186,0.0,0.0,0.0,0.0,0.0,0.0,-1.8843,-1.9025,-1.9194,-1.942,-1.9415,-2.0095,-2.1641,-2.1963,-2.1963,-2.1696,-2.1919,-2.183,-2.1392,-2.1096,-2.0871,-2.0699,-2.0699,-2.0218,-1.9488,-2.0028,-2.0289,-2.0319,-2.1085,-2.166,-2.2097,-2.2309,-2.2397,-2.2397,-2.2397,-2.2397,-2.2432,0.0,0.0,0.0,0.0,0.0,0.0,0.0,0.0,0.0,0.0,0.0,0.0,0.0,0.0,0.0,0.0,0.0,0.0,-0.7946,-0.9036,-0.94,-0.8639,-0.9275,-0.9252,-0.8413,-0.8576,-0.8935,-0.9488,-1.0278,-1.1241,-1.2302,-1.3765,-1.5279,-1.6806,-1.6994,-1.7879,-1.9296,-1.9675,-2.0256,-2.0964,-2.1047,-2.0995,-2.0692,-1.9091,-1.7887,-1.6875,-1.5597,-1.4937,-1.4513,-1.3284,-1.2372,-1.1814,-1.1967,-1.0902,-0.9628,-0.9782,-0.9861,-1.0007,-1.029,-1.0865,-1.1409,-1.1624,-1.1914,-1.2095,-1.2234,-1.2662,-1.2901,-1.2637,-1.2249,-1.1786,0.0,-1.0523,-1.0433,-1.13,-1.0971,0.0,-1.4357,-1.4321,0.0,-1.7173,0.0,-1.7456,-1.8346,-1.8661,0.0,-1.7802,-1.9461,-2.0624,-2.0837,-2.0879,-2.1144,-2.1678,-2.1785,-2.1785,-2.1696,-2.1436,-2.1239,-2.1105,-2.0682,-2.0473,-2.0382,-2.0382,-2.0279,-2.0063,-2.0251,-2.0496,-2.0811,-2.1212,-2.166,-2.2097,-2.2309,-2.2397,-2.2397,-2.2397,-2.2397,-2.2397,0.0,0.0,0.0,0.0,0.0,0.0,0.0,0.0,0.0,0.0,0.0,0.0,0.0,0.0,0.0,0.0,0.0,0.0,0.0,-0.9656,-1.0049,-0.9691,-1.0132,-0.9992,-0.9147,-0.911,-0.9452,-1.0115,-1.044,-1.134,-1.2879,-1.3509,-1.4912,-1.6879,-1.6679,-1.7552,-1.9151,-1.9334,-1.9833,0.0,0.0,-2.0099,-1.9689,-1.832,-1.7393,-1.6671,-1.5632,-1.4965,0.0,0.0,0.0,-1.1829,-1.2394,-1.1508,-1.0388,-1.0876,-1.0664,-1.0348,-1.0445,-1.0851,-1.1243,-1.134,-1.159,-1.1754,-1.1706,-1.2015,-1.2183,-1.1727,-1.1327,-1.0926,-1.029,-0.984,-0.9825,0.0,0.0,0.0,-1.384,-1.442,-1.533,0.0,-1.7458,0.0,-1.9122,-1.9068,-1.8814,-1.8412,-1.8987,-1.9601,-2.0062,-2.0092,-2.0576,-2.1668,-2.183,-2.1874,-2.1874,-2.1401,-2.1168,-2.1168,-2.0772,-2.0555,-2.0473,-2.0473,-2.0292,-1.9909,-2.0191,-2.0418,-2.0703,-2.1203,-2.1616,-2.1963,-2.2176,-2.222,-2.2087,-2.2087,-2.2087,-2.2087,0.0,0.0,0.0,0.0,0.0,0.0,0.0,0.0,0.0,0.0,-1.282,0.0,0.0,0.0,0.0,0.0,0.0,0.0,0.0,0.0,-1.1101,-1.1709,-1.1512,-1.1145,-1.072,-1.0425,-1.0586,-1.1254,-1.1039,-1.1986,-1.3977,-1.365,-1.4924,-1.7441,-1.6845,-1.7668,-1.9511,-1.9261,-1.9786,-2.0599,-1.9448,-1.9023,-1.8929,0.0,0.0,0.0,-1.623,0.0,0.0,0.0,-1.4721,-1.2589,-1.3114,-1.2129,-1.1044,-1.2645,-1.1859,-1.0632,-1.1283,-1.1376,-1.1292,-1.1492,-1.1785,-1.1872,-1.1431,-1.1494,-1.1494,-1.0988,0.0,-1.0393,-1.0208,-0.998,-1.0034,-1.0763,0.0,-1.2804,-1.2918,-1.4819,-1.6191,-1.6184,-1.6861,-1.7701,-1.8633,-1.8536,-1.872,-1.9465,-1.8185,-1.7808,-1.8764,-1.8822,-1.9688,-2.1641,-2.1919,-2.2052,-2.2052,-2.1616,-2.1401,-2.132,-2.106,-2.0871,-2.0654,-2.0654,-2.0244,-1.9531,-2.0143,-2.0359,-2.0366,-2.1148,-2.1616,-2.1785,-2.2008,-2.1963,-2.1741,-2.1687,-2.1696,-2.1696,0.0,0.0,0.0,0.0,0.0,0.0,0.0,0.0,0.0,0.0,-1.2806,-1.2569,0.0,0.0,0.0,0.0,0.0,0.0,0.0,0.0,0.0,-1.4495,-1.4085,-1.3462,-1.2791,-1.274,-1.3035,-1.3689,-1.3644,-1.4262,-1.546,-1.6183,-1.6828,-1.7371,-1.8145,-1.8746,-1.9102,-1.9045,-1.9304,-1.9701,-1.919,-1.9159,-1.9373,0.0,0.0,0.0,0.0,0.0,0.0,0.0,-1.4944,-1.3327,-1.5238,-1.4118,-1.2178,-1.2767,-1.2178,-1.1283,-1.0961,-1.1184,-1.1487,-1.1292,-1.1634,-1.1901,-1.1636,-1.1472,0.0,0.0,-1.0053,-0.9819,-0.9921,-0.9895,-1.005,-1.0558,-1.1651,-1.24,-1.2235,-1.4648,-1.6508,0.0,-1.7236,-1.7868,-1.869,-1.7735,0.0,-1.8009,-1.7891,-1.8693,-2.078,-2.0878,-2.1119,-2.1678,-2.1741,-2.1785,-2.1785,-2.1526,-2.1293,-2.1085,-2.087,-2.0609,-2.0382,-2.0382,-2.0268,-2.0148,-2.0674,-2.0872,-2.0944,-2.1676,-2.2008,-2.2052,-2.2097,-2.2052,-2.2008,-2.1785,-2.1696,-2.1696,0.0,0.0,0.0,0.0,0.0,0.0,0.0,-1.4345,-1.419,-1.4184,-1.368,-1.3155,-1.2652,-1.259,-1.256,0.0,0.0,0.0,0.0,0.0,0.0,0.0,-1.538,-1.4933,-1.4338,-1.433,-1.4621,-1.5237,0.0,-1.53,-1.6439,-1.6945,-1.7399,-1.7801,-1.8464,-1.8887,-1.9127,-1.9556,-1.9907,-2.0221,-1.9936,-1.9995,0.0,0.0,0.0,0.0,0.0,0.0,0.0,0.0,-1.5675,-1.4023,-1.6561,-1.6136,-1.4711,-1.4624,-1.3759,-1.2624,-1.182,-1.1595,-1.159,-1.1438,-1.1585,-1.1654,-1.1005,0.0,0.0,0.0,-0.9724,-0.9728,-0.9946,-0.9991,-1.0212,-1.0873,-1.232,-1.3348,-1.3162,-1.5423,-1.7082,-1.7114,-1.739,-1.7679,-1.7845,-1.701,-1.6879,-1.7996,-1.7901,-1.8594,-2.0359,-2.1157,-2.1607,-2.1696,-2.1696,-2.1696,-2.1696,-2.1499,-2.1293,-2.0978,-2.0807,-2.0564,-2.0292,-2.0555,-2.0645,-2.069,-2.1141,-2.1101,-2.0704,-2.1826,-2.1889,-2.1414,-2.2151,-2.2318,-2.2097,-2.1963,-2.183,-2.1696,0.0,0.0,0.0,0.0,0.0,0.0,0.0,-1.5049,-1.4929,-1.5198,-1.4775,-1.4136,-1.3381,-1.3003,-1.2981,0.0,0.0,0.0,0.0,0.0,0.0,0.0,0.0,0.0,0.0,0.0,0.0,-1.6665,-1.6262,0.0,0.0,0.0,0.0,0.0,-1.9425,-1.9787,-2.0222,-2.0878,-2.1338,0.0,0.0,-2.1231,0.0,0.0,0.0,0.0,0.0,0.0,0.0,0.0,-1.6755,-1.5251,-1.756,-1.7273,-1.6109,-1.611,-1.5129,-1.3853,-1.2989,-1.2395,-1.2019,-1.1731,-1.1736,-1.1582,-1.0829,-1.0687,0.0,-1.0184,-1.0088,-1.027,-1.0864,-1.0945,-1.1235,0.0,-1.3579,-1.464,-1.4734,-1.647,-1.7669,0.0,-1.7691,0.0,-1.738,-1.6718,-1.6854,-1.8237,-1.8316,-1.8833,-2.0005,-2.1084,-2.1696,-2.1696,-2.1696,-2.1696,-2.1696,-2.1526,-2.1338,-2.1096,-2.0871,-2.0654,-2.0382,-2.0817,-2.0997,-2.1042,-2.1597,-2.1268,-2.0395,-2.1887,-2.1745,-2.074,-2.2131,-2.2407,-2.2097,-2.2052,-2.1874,-2.1696,0.0,0.0,0.0,0.0,0.0,0.0,0.0,-1.5118,-1.5274,-1.5284,-1.5612,-1.5744,-1.5544,-1.4255,-1.3549,0.0,0.0,0.0,0.0,0.0,0.0,0.0,0.0,0.0,0.0,0.0,0.0,-1.8467,-1.8941,0.0,0.0,0.0,0.0,0.0,0.0,-2.3039,-2.3308,-2.3567,0.0,0.0,0.0,0.0,0.0,0.0,0.0,0.0,0.0,0.0,-1.9483,0.0,0.0,-1.7783,-1.8567,-1.6405,-1.3845,-1.533,0.0,0.0,-1.3919,-1.373,-1.3403,-1.2262,-1.2175,-1.2272,-1.2129,0.0,-1.1607,-1.189,-1.1654,-1.1893,-1.3459,-1.3747,-1.4112,0.0,0.0,-1.5821,-1.6468,-1.7384,-1.8143,-1.8615,0.0,0.0,-1.8539,-1.7358,-1.7001,-1.8042,-1.9436,-2.0604,-2.147,-2.165,-2.1696,-2.1696,-2.1696,-2.1696,-2.1696,-2.1687,-2.1562,-2.1347,-2.1096,-2.0871,-2.0654,-2.0916,-2.0997,-2.1042,-2.1945,-2.1569,-2.0445,-2.2059,-2.1926,-2.0699,-2.1742,-2.2141,-2.2052,-2.183,-2.1741,-2.1696,0.0,0.0,0.0,0.0,0.0,0.0,-1.6446,-1.6613,-1.681,-1.6946,-1.6907,-1.6935,-1.7169,-1.6306,-1.5736,-1.5746,0.0,0.0,0.0,0.0,0.0,0.0,0.0,0.0,0.0,0.0,-1.9183,-1.9304,-2.0243,0.0,0.0,0.0,0.0,0.0,0.0,-2.2457,-2.2683,-2.368,0.0,0.0,0.0,0.0,0.0,0.0,0.0,0.0,0.0,0.0,-2.055,-1.952,0.0,0.0,-1.7249,-1.5974,0.0,0.0,-1.6683,-1.6118,-1.4642,-1.4387,-1.426,-1.3007,-1.3545,-1.4031,-1.3031,0.0,-1.3897,-1.3345,-1.3184,-1.3419,-1.4242,-1.4297,-1.4395,-1.4979,0.0,0.0,-1.726,-1.8308,-1.9201,-1.987,-1.9991,0.0,0.0,-1.8221,-1.791,-1.8542,-1.9236,-2.0277,-2.1632,-2.1696,-2.1696,-2.1696,-2.1696,-2.1696,-2.1696,-2.1562,-2.1383,-2.115,-2.1195,-2.1105,-2.0916,-2.1535,-2.1767,-2.1687,-2.2353,-2.1356,-1.9388,-2.1618,-2.1309,-1.9541,-2.1494,-2.223,-2.2097,-2.1963,-2.183,-2.1696,0.0,0.0,0.0,0.0,0.0,-1.7412,-1.765,-1.7826,-1.8057,-1.8278,-1.8108,-1.8124,-1.8444,-1.8167,-1.79,-1.7752,-1.7352,0.0,0.0,0.0,0.0,0.0,0.0,0.0,0.0,0.0,-1.9896,-2.007,-2.1054,-2.1621,0.0,0.0,-2.251,-2.2791,0.0,0.0,0.0,0.0,0.0,0.0,0.0,0.0,0.0,0.0,0.0,0.0,0.0,0.0,0.0,0.0,0.0,0.0,0.0,0.0,0.0,0.0,-1.7718,-1.7623,-1.5595,-1.5443,-1.5461,-1.3908,-1.4249,-1.4725,0.0,0.0,-1.5097,-1.4498,-1.4525,-1.4753,-1.5059,-1.5002,-1.5053,-1.552,-1.6077,-1.6837,-1.7956,-1.8836,-1.9645,-2.0292,0.0,-2.0411,-1.9511,-1.911,-1.9021,-1.9329,-1.9665,-2.0395,-2.1632,-2.1696,-2.1696,-2.1696,-2.1696,-2.1696,-2.1696,-2.1482,-2.1293,-2.1141,-2.1293,-2.1105,-2.0579,-2.1822,-2.2102,-2.1652,-2.2499,-2.1447,-1.9315,-2.1805,-2.1256,-1.917,-2.1641,-2.2344,-2.1963,-2.1963,-2.1874,-2.1696,0.0,0.0,0.0,0.0,0.0,0.0,-1.805,-1.8387,-1.864,-1.8771,-1.9143,-1.9394,-1.9394,-1.9604,-1.9773,-1.9773,-1.8447,0.0,0.0,0.0,0.0,0.0,0.0,0.0,0.0,0.0,-2.0311,-2.0989,-2.1597,-2.2128,-2.2578,-2.2537,-2.3016,-2.3974,0.0,0.0,0.0,0.0,0.0,0.0,0.0,0.0,0.0,0.0,0.0,0.0,0.0,0.0,0.0,0.0,0.0,0.0,0.0,0.0,0.0,0.0,-1.7886,-1.8751,-1.681,-1.7039,-1.7273,-1.4868,-1.3857,-1.3662,0.0,-1.4522,-1.4446,-1.532,-1.564,-1.5903,-1.6237,-1.6272,-1.6696,-1.7959,-1.7951,0.0,-1.8759,-1.8913,-1.9065,0.0,-1.9832,-2.0023,-1.9994,-2.0066,-2.0184,-2.0473,-2.1219,-2.1678,-2.1696,-2.1696,-2.1696,-2.1696,-2.1696,-2.1696,-2.1696,-2.1482,-2.1392,-2.1392,-2.1392,-2.0717,-1.9469,-2.1485,-2.1707,-2.0602,-2.2364,-2.2148,-2.0733,-2.2918,-2.2259,-2.0108,-2.2255,-2.2501,-2.1696,-2.1696,-2.1696,-2.1696,0.0,0.0,0.0,0.0,0.0,0.0,0.0,-1.8679,-1.8987,-1.9669,-1.9565,-1.9617,-2.0169,-1.9952,-1.9837,-1.9926,-1.9514,0.0,0.0,0.0,0.0,0.0,0.0,0.0,0.0,-2.1087,-2.1104,-2.0991,-2.2432,-2.3029,-2.2883,-2.3564,-2.4053,-2.433,-2.4319,-2.4533,0.0,0.0,0.0,0.0,0.0,0.0,-2.7224,0.0,0.0,0.0,0.0,0.0,0.0,0.0,0.0,0.0,0.0,0.0,0.0,-1.8047,-1.8322,0.0,-1.7186,-1.7451,-1.7692,-1.6213,-1.6461,-1.6911,-1.6388,-1.6903,-1.7281,-1.6581,-1.6508,-1.6542,-1.6508,-1.6377,-1.666,-1.7767,-1.7942,-1.8495,0.0,0.0,0.0,-2.1182,-2.1262,-2.1336,-2.1507,-2.0655,-2.0683,-2.2109,-2.1283,-2.1134,-2.2083,-2.2393,-2.2339,-2.1713,-2.1696,-2.1696,-2.1696,-2.1651,-2.1607,-2.1607,-2.1919,-2.1358,-2.0084,-2.1993,-2.2295,-2.132,-2.2889,-2.2972,-2.2128,-2.3636,-2.3318,-2.1959,-2.3456,-2.3887,-2.3551,-2.2887,-2.2668,-2.2589,0.0,0.0,0.0,0.0,0.0,0.0,0.0,-1.8958,-1.921,-1.9863,-1.9682,-1.9668,-2.0156,-1.9952,-1.9824,-1.9926,-2.0245,0.0,0.0,0.0,0.0,0.0,0.0,0.0,-2.2591,-2.2563,-2.2496,-2.2402,-2.3511,-2.3903,-2.3579,-2.4159,-2.4444,-2.4508,-2.4444,-2.4647,0.0,0.0,0.0,0.0,0.0,0.0,-2.7882,0.0,0.0,0.0,0.0,0.0,0.0,0.0,0.0,0.0,0.0,0.0,0.0,0.0,-1.8587,-1.8385,0.0,-1.7989,-1.8263,-1.7102,-1.7281,0.0,-1.7048,-1.7441,-1.7734,-1.695,-1.7124,-1.7225,-1.6553,-1.6598,-1.6839,-1.7098,-1.7904,-1.8772,0.0,0.0,0.0,-2.0844,-2.1291,-2.1764,-2.2303,-2.15,-2.145,-2.2807,-2.1902,-2.1678,-2.2524,-2.2828,-2.2929,-2.2746,-2.2199,-2.1917,-2.1933,-2.1789,-2.1863,-2.2246,-2.2687,-2.2399,-2.1451,-2.3197,-2.341,-2.2433,-2.3762,-2.4012,0.0,-2.4692,-2.445,-2.3481,-2.4577,-2.4787,-2.4413,-2.3844,-2.3617,-2.3531,0.0,0.0,0.0,0.0,0.0,0.0,0.0,-1.9208,-1.9302,-1.9617,-1.9604,-1.9604,-1.9668,-1.9785,-1.9875,-1.9901,0.0,0.0,0.0,0.0,0.0,0.0,0.0,0.0,-2.3943,-2.3984,-2.4218,-2.4653,-2.475,-2.4678,-2.4472,-2.4408,-2.4465,-2.4565,-2.4508,-2.5002,0.0,0.0,0.0,0.0,0.0,0.0,0.0,0.0,0.0,0.0,0.0,0.0,0.0,0.0,0.0,0.0,0.0,0.0,0.0,0.0,0.0,0.0,0.0,-1.8634,-1.8912,-1.7624,-1.6779,-1.6392,-1.6852,-1.6666,0.0,-1.6676,-1.7548,-1.7875,-1.6491,-1.6975,-1.7333,-1.6375,-1.7899,-1.8961,-1.8162,-1.8623,0.0,0.0,-2.0272,-2.1515,-2.2448,-2.2429,-2.2504,-2.2757,-2.2959,-2.309,-2.304,-2.3121,-2.355,-2.4431,-2.3226,-2.2558,-2.2542,-2.2206,-2.2383,-2.3083,-2.3687,-2.3629,-2.3013,-2.4721,-2.48,-2.37,-2.4789,-2.5147,-2.5041,-2.5893,-2.5642,-2.4787,-2.5579,-2.5411,-2.4659,-2.4627,-2.4584,-2.4573,0.0,0.0,0.0,0.0,0.0,0.0,0.0,0.0,0.0,0.0,-1.9837,-1.9811,-2.0308,-2.0472,-2.0646,0.0,0.0,0.0,0.0,0.0,0.0,0.0,0.0,0.0,-2.456,-2.483,-2.4722,-2.4234,-2.5216,-2.5228,-2.4355,-2.5007,-2.5307,-2.5362,-2.5943,-2.6338,0.0,0.0,0.0,0.0,0.0,0.0,0.0,0.0,0.0,0.0,-2.602,-2.5359,0.0,0.0,0.0,0.0,0.0,0.0,0.0,0.0,-1.9187,-1.8869,-1.8488,0.0,-1.8627,-1.8284,-1.7996,-1.7788,0.0,-1.7476,-1.7341,-1.7794,-1.8008,-1.7914,-1.7476,-1.8175,-1.8514,-1.7705,-1.858,-1.9185,-1.8737,-1.9558,0.0,-1.9315,-2.1224,-2.2368,-2.1749,-2.2665,-2.3393,-2.3592,-2.3779,-2.3785,-2.3494,-2.4428,-2.4948,-2.4875,-2.5245,-2.5282,-2.4913,-2.5009,-2.4237,-2.26,-2.4587,-2.3874,-2.0878,-2.406,-2.4922,-2.3996,-2.5351,-2.6196,-2.6674,-2.688,-2.6798,-2.6592,-2.6798,-2.6757,-2.6456,-2.5757,-2.5495,-2.5411,0.0,0.0,0.0,0.0,0.0,0.0,0.0,0.0,0.0,0.0,0.0,-2.0167,-2.0483,-2.0976,0.0,0.0,0.0,0.0,0.0,0.0,0.0,0.0,0.0,-2.4292,-2.4889,-2.5155,-2.5184,-2.4918,-2.5619,-2.5713,-2.5251,-2.6146,-2.6546,-2.6557,-2.7255,-2.7595,0.0,0.0,0.0,0.0,-2.7825,0.0,0.0,0.0,0.0,0.0,-2.6316,-2.5668,0.0,-2.4112,-2.3571,-2.3151,0.0,0.0,0.0,0.0,-1.9348,-1.8763,-1.8479,-1.8414,-1.852,-1.8987,-1.8621,-1.8233,-1.8547,0.0,-1.7811,0.0,0.0,-1.8282,-1.8243,-1.8532,-1.8632,-1.8099,-1.8351,-1.8632,-1.8618,-1.9684,-2.0072,-1.9029,-2.0718,-2.1756,-2.1236,-2.2564,-2.3567,-2.3751,-2.3934,-2.415,-2.4374,-2.5084,-2.5709,-2.6229,-2.6715,-2.6691,-2.601,-2.5987,-2.5013,-2.3169,-2.5491,-2.5077,-2.2391,-2.5397,-2.6312,-2.5582,-2.5324,-2.5978,-2.711,-2.6091,-2.6262,-2.719,-2.719,-2.719,-2.7149,-2.6622,-2.6434,-2.6351,0.0,0.0,0.0,0.0,0.0,0.0,0.0,0.0,0.0,0.0,0.0,0.0,0.0,0.0,0.0,0.0,0.0,0.0,0.0,0.0,0.0,0.0,-2.5023,-2.5098,-2.502,-2.5296,-2.5574,-2.5909,-2.5978,-2.6128,-2.6333,-2.7257,-2.7701,-2.7759,-2.8264,-2.8472,-2.8391,-2.8247,-2.7938,-2.754,-2.7615,0.0,0.0,0.0,0.0,0.0,0.0,0.0,0.0,-2.502,-2.4591,-2.3966,-2.3412,0.0,0.0,0.0,0.0,0.0,-1.8328,-1.8204,-1.8394,-1.9553,-1.8965,-1.8315,-1.9201,0.0,0.0,0.0,0.0,0.0,-1.9088,-1.9006,0.0,-1.8207,-1.7943,-1.7959,-1.8285,-1.9599,-2.0051,-1.877,-2.0149,-2.1163,-2.1159,-2.2463,-2.3405,-2.3705,-2.3937,-2.4459,-2.5301,-2.5555,-2.629,-2.7606,-2.783,-2.7555,-2.6825,-2.6456,-2.562,-2.4263,-2.6394,-2.6558,-2.4992,-2.715,-2.7898,-2.7348,-2.5409,-2.5585,-2.7052,-2.5119,-2.5465,-2.719,-2.719,-2.719,-2.719,-2.719,-2.719,-2.719,0.0,0.0,0.0,0.0,0.0,0.0,0.0,0.0,0.0,0.0,0.0,0.0,0.0,0.0,0.0,0.0,0.0,0.0,0.0,0.0,0.0,-2.4555,-2.4748,-2.4919,-2.5072,-2.5733,-2.6002,-2.589,-2.6404,-2.6545,-2.6309,-2.7187,-2.7868,-2.8372,-2.8449,-2.8304,-2.8036,-2.8424,-2.8231,-2.7705,-2.8036,0.0,0.0,0.0,0.0,0.0,0.0,0.0,0.0,-2.5342,-2.492,-2.4706,-2.4011,0.0,0.0,0.0,0.0,0.0,-1.8153,-1.7662,-1.775,-1.9585,-1.9241,-1.8661,-1.9527,-1.8792,0.0,0.0,0.0,0.0,0.0,-2.1283,-2.1194,-1.8863,-1.8533,-1.8522,-1.8386,-2.0234,-2.1061,-1.968,-2.2131,-2.3475,-2.2361,-2.2896,-2.3586,-2.4224,-2.4607,-2.5061,-2.5605,-2.6703,-2.737,-2.7421,-2.8373,-2.88,-2.8682,-2.8627,-2.7483,-2.5312,-2.7503,-2.715,-2.4632,-2.6941,-2.7679,-2.7249,-2.6898,-2.6903,-2.7167,-2.6806,-2.6863,-2.719,-2.719,-2.719,-2.719,-2.719,-2.719,-2.719,0.0,0.0,0.0,0.0,0.0,0.0,0.0,0.0,0.0,0.0,0.0,0.0,0.0,0.0,0.0,0.0,0.0,0.0,0.0,0.0,-2.4055,-2.4528,-2.4699,-2.489,-2.503,-2.5086,-2.51,-2.5086,-2.4968,-2.5083,-2.5465,-2.6712,-2.7764,-2.8669,-2.8745,-2.8907,-2.9173,-2.9416,-2.9241,-2.8802,0.0,0.0,0.0,0.0,0.0,0.0,0.0,0.0,0.0,0.0,-2.5175,-2.4669,-2.3806,0.0,0.0,0.0,0.0,0.0,-1.8371,-1.7807,-1.7981,-2.0265,-1.9307,-1.8418,-2.0933,-1.9447,0.0,0.0,0.0,0.0,0.0,0.0,-2.0117,-1.901,-1.9799,-2.0269,-1.9434,-2.0389,-2.101,-2.0506,-2.2112,-2.3059,-2.2584,-2.3609,-2.4451,-2.4916,-2.5119,-2.5539,-2.6251,-2.6874,-2.7329,-2.7664,-2.8191,-2.8431,-2.8431,-2.8431,-2.744,-2.5419,-2.7476,-2.7047,-2.4535,-2.6968,-2.7748,-2.7133,-2.6009,-2.6158,-2.7098,-2.5869,-2.6102,-2.719,-2.719,-2.719,-2.719,-2.719,-2.719,-2.719,0.0,0.0,0.0,0.0,0.0,0.0,0.0,0.0,0.0,0.0,0.0,0.0,0.0,0.0,0.0,0.0,0.0,0.0,0.0,-2.3593,-2.3925,-2.4614,-2.4786,-2.4886,-2.4906,-2.4582,-2.4367,-2.4315,-2.3965,-2.4269,-2.5214,-2.64,-2.762,-2.8804,-2.91,-2.9575,-3.0146,-3.0231,-3.0092,-2.9772,0.0,0.0,0.0,0.0,0.0,0.0,0.0,0.0,0.0,0.0,0.0,0.0,0.0,0.0,0.0,-2.1157,-2.0287,-1.9572,-1.885,-1.8026,-1.7941,-2.039,-1.9041,-1.8161,-2.2187,-1.9898,-1.8212,0.0,0.0,0.0,0.0,-2.0521,-1.9136,-1.9367,-2.0636,-2.1326,-2.0425,-2.0981,-2.1524,-2.1609,-2.2462,-2.314,-2.3313,-2.4401,-2.5245,-2.5553,-2.5615,-2.6027,-2.6862,-2.7016,-2.727,-2.7777,-2.7893,-2.7893,-2.7893,-2.7841,-2.7187,-2.5935,-2.7418,-2.7113,-2.5268,-2.718,-2.7777,-2.7168,-2.5528,-2.5734,-2.7064,-2.5328,-2.5613,-2.719,-2.719,-2.7301,-2.7534,-2.7736,-2.7655,-2.7493,0.0,0.0,0.0,0.0,0.0,0.0,0.0,0.0,0.0,0.0,0.0,0.0,0.0,0.0,0.0,0.0,0.0,0.0,0.0,-2.4466,-2.4583,-2.4782,-2.497,-2.495,-2.463,-2.4823,-2.4668,-2.4124,-2.4887,-2.5721,-2.6648,-2.6746,-2.7521,-2.8837,-2.9583,-2.9946,-3.0038,-3.0359,-3.0284,-2.9962,-2.9585,0.0,0.0,0.0,0.0,0.0,0.0,0.0,0.0,0.0,0.0,0.0,0.0,0.0,-2.268,-2.2076,-2.0758,-1.9539,-1.9665,-1.8029,-1.6834,-1.8915,-1.8259,-1.8197,-2.2404,-1.9841,-1.7934,-2.2779,0.0,0.0,0.0,-2.1688,-2.0199,-2.0506,-2.0411,-2.0399,-2.0873,-2.2606,-2.3723,-2.3295,-2.4604,-2.5574,-2.5569,-2.5284,-2.5391,-2.6092,-2.6325,-2.6634,-2.7151,-2.758,-2.7713,-2.7522,-2.7788,-2.7893,-2.7893,-2.7655,-2.7585,-2.7698,-2.7851,-2.781,-2.7629,-2.7585,-2.7522,-2.747,-2.7099,-2.7052,-2.7179,-2.703,-2.7052,-2.719,-2.719,-2.7684,-2.8502,-2.9238,-2.9042,-2.8422,0.0,0.0,0.0,0.0,0.0,0.0,0.0,0.0,0.0,0.0,0.0,0.0,0.0,0.0,0.0,0.0,0.0,0.0,0.0,-2.3966,-2.4575,-2.5739,-2.5871,-2.6122,-2.6574,-2.5746,-2.5452,-2.5725,-2.606,-2.6374,-2.6688,-2.7165,-2.7555,-2.7948,-2.8468,-2.8681,-2.8702,-2.8951,-2.9052,-2.8999,-2.8876,-2.8547,0.0,0.0,0.0,0.0,0.0,0.0,0.0,0.0,-2.5161,-2.4842,-2.3622,-2.3255,-2.31,-2.201,-2.1404,-2.0869,-1.9682,-1.855,-1.819,-2.0185,-1.8506,-1.7519,-2.1793,-2.021,-1.9116,-2.357,-2.1395,0.0,0.0,-2.0419,-2.0684,-2.0439,-2.0793,-2.1119,-2.1248,-2.2403,-2.3347,-2.3617,-2.4788,-2.5837,-2.6445,-2.6438,-2.6525,-2.68,-2.6892,-2.7024,-2.7179,-2.7353,-2.7423,-2.7342,-2.7394,-2.7476,-2.7476,-2.7342,-2.7342,-2.7476,-2.7574,-2.7586,-2.7476,-2.7667,-2.7586,-2.7342,-2.7371,-2.7342,-2.719,-2.719,-2.719,-2.726,-2.7817,-2.8195,-2.8581,-2.9394,-2.951,-2.9238,0.0,0.0,0.0,0.0,0.0,0.0,0.0,0.0,0.0,0.0,0.0,0.0,0.0,0.0,0.0,0.0,0.0,0.0,-2.3853,-2.4225,-2.4993,-2.6282,-2.6619,-2.7227,-2.8147,-2.7106,-2.6561,-2.6609,-2.6387,-2.648,-2.6893,-2.7231,-2.7417,-2.7504,-2.7786,-2.7907,-2.7907,-2.8086,-2.8226,-2.8326,-2.8116,-2.7921,0.0,0.0,0.0,0.0,0.0,0.0,0.0,0.0,-2.4994,-2.4679,-2.339,-2.3411,-2.3687,-2.2305,-2.1962,-2.164,-2.0026,-1.9024,-1.8768,-2.0265,-1.836,-1.7183,-2.1432,-2.0341,-1.9469,-2.3271,-2.1793,-1.959,-1.8882,0.0,-2.0857,-2.0278,-2.0704,-2.1169,-2.1239,-2.2192,-2.3086,-2.379,-2.4893,-2.5924,-2.6809,-2.7067,-2.719,-2.7108,-2.7149,-2.719,-2.719,-2.719,-2.719,-2.719,-2.719,-2.719,-2.719,-2.719,-2.719,-2.719,-2.733,-2.7371,-2.7301,-2.7557,-2.7557,-2.7301,-2.7371,-2.7493,-2.7615,-2.7615,-2.7777,-2.8075,-2.8924,-2.9264,-2.9342,-3.019,-3.0317,-3.0075,0.0,0.0,0.0,0.0,0.0,0.0,0.0,0.0,0.0,0.0,0.0,0.0,0.0,0.0,0.0,0.0,0.0,0.0,-2.4786,-2.5584,-2.607,-2.6229,-2.7125,-2.804,-2.8983,-2.8874,-2.8026,-2.6439,-2.5705,-2.6097,-2.7529,-2.6972,-2.7064,-2.7697,-2.7863,-2.7923,-2.7891,-2.8043,-2.8145,-2.8105,-2.738,-2.7286,-2.7504,0.0,0.0,0.0,0.0,0.0,0.0,0.0,-2.6139,-2.5343,-2.4028,-2.4109,-2.4446,-2.3192,-2.2365,-2.1668,-2.0902,-1.9393,-1.8145,-1.8655,-1.755,-1.738,-2.1436,-2.0003,-1.8672,-2.1572,-2.298,-2.3128,-2.1388,-2.0991,-2.074,-2.0277,-2.0034,-2.0147,-2.0918,-2.2217,-2.3357,-2.4006,-2.5105,-2.6091,-2.6809,-2.7056,-2.7108,-2.6933,-2.7108,-2.719,-2.719,-2.719,-2.719,-2.719,-2.719,-2.719,-2.719,-2.719,-2.719,-2.7179,-2.7179,-2.729,-2.7482,-2.7301,-2.7301,-2.7482,-2.7301,-2.7684,-2.8502,-2.8502,-2.8964,-2.9781,-3.0594,-3.0895,-3.1007,-3.19,-3.1653,-3.0932,0.0,0.0,0.0,0.0,0.0,0.0,0.0,0.0,0.0,0.0,0.0,0.0,0.0,0.0,0.0,0.0,0.0,0.0,-2.6503,-2.6912,-2.7414,-2.8001,-2.8424,-2.9066,-2.9967,-2.9856,-2.9559,-2.9072,-2.8844,-2.9025,-2.9601,-2.93,-2.8751,-2.8081,-3.0075,-2.927,-2.6482,-2.841,-2.8205,-2.6559,-2.6197,-2.6264,-2.6572,0.0,0.0,0.0,0.0,0.0,0.0,0.0,0.0,0.0,-2.3745,-2.3514,-2.3717,-2.4518,-2.381,-2.2561,-2.1926,-2.0423,0.0,-1.867,0.0,0.0,0.0,-1.9449,-2.0301,-2.1659,-2.157,-2.0908,-1.9573,-2.0393,-2.1021,-2.032,-2.0638,-2.0977,-2.0998,-2.2041,-2.278,-2.2648,-2.4243,-2.5537,-2.5883,-2.658,-2.7015,-2.7097,-2.719,-2.719,-2.719,-2.719,-2.719,-2.719,-2.719,-2.719,-2.719,-2.719,-2.6966,-2.6491,-2.6491,-2.6754,-2.7301,-2.7371,-2.7371,-2.7301,-2.7371,-2.7493,-2.7615,-2.8235,-2.8964,-2.9781,-3.0594,-3.0895,-3.1007,-3.19,-3.2059,-3.1813,0.0,0.0,0.0,0.0,0.0,0.0,0.0,0.0,0.0,0.0,-2.2943,-2.3141,0.0,0.0,0.0,0.0,0.0,0.0,-2.7369,-2.783,-2.8315,-2.8858,-2.9307,-2.9772,-3.0231,-3.0295,-3.0274,-3.0189,-3.0189,-3.0253,-3.0363,-2.9915,-2.9263,-2.8494,-2.949,-2.8463,-2.6108,-2.7571,-2.7277,-2.5809,-2.5791,-2.5917,-2.6078,0.0,0.0,0.0,0.0,0.0,0.0,0.0,0.0,0.0,-2.3589,-2.3892,-2.4537,-2.4577,-2.4241,-2.3636,-2.2592,-2.133,0.0,-2.0435,-1.9255,-1.8125,-1.8093,0.0,0.0,0.0,-2.1272,-2.042,-1.9817,-2.0632,-2.1246,-2.0769,-2.1098,-2.1293,-2.1042,-2.1606,-2.2041,-2.2173,-2.3294,-2.4382,-2.5158,-2.5893,-2.6498,-2.6933,-2.7108,-2.719,-2.719,-2.6955,-2.68,-2.68,-2.6525,-2.6382,-2.6382,-2.6382,-2.6143,-2.5758,-2.5758,-2.5956,-2.6382,-2.648,-2.6491,-2.6422,-2.7183,-2.7419,-2.7419,-2.8557,-2.9352,-2.9849,-3.0315,-3.0497,-3.057,-3.1151,-3.1428,-3.1485,0.0,0.0,0.0,0.0,0.0,0.0,0.0,0.0,0.0,0.0,-2.4421,-2.4457,0.0,0.0,0.0,0.0,0.0,0.0,0.0,-2.853,-2.8993,-2.9098,-2.9824,-3.0146,-3.0038,-3.0338,-3.0401,-3.0189,-3.021,-3.021,-3.0172,-2.9405,-2.8988,-2.8832,-2.7425,-2.6635,-2.6367,-2.626,-2.5989,-2.5633,-2.5918,-2.5984,-2.5854,-2.5779,0.0,0.0,0.0,0.0,0.0,0.0,0.0,0.0,-2.3536,-2.4704,-2.594,-2.3924,-2.4158,-2.4721,-2.3129,-2.2173,-2.1827,-2.2716,-2.036,0.0,-1.9079,-1.8546,-1.8674,-2.1742,0.0,-2.0927,-2.132,-2.1392,-2.1392,-2.1392,-2.1392,-2.1293,-2.0997,-2.0952,-2.1302,-2.2094,-2.2262,-2.2921,-2.4392,-2.5031,-2.565,-2.6359,-2.6778,-2.7012,-2.7012,-2.6445,-2.6115,-2.6115,-2.5464,-2.5122,-2.5122,-2.5122,-2.506,-2.5015,-2.5015,-2.4993,-2.4909,-2.5038,-2.5122,-2.5189,-2.6725,-2.7434,-2.7619,-2.9116,-2.9811,-2.9894,-2.9894,-2.9894,-2.9929,-3.0054,-3.0227,-3.0433,0.0,0.0,0.0,0.0,0.0,0.0,0.0,0.0,0.0,0.0,0.0,0.0,0.0,0.0,0.0,0.0,0.0,0.0,0.0,-2.9899,-3.0023,-2.9955,-3.0192,-3.0338,-3.0295,-3.038,-3.0338,-3.0189,-3.0359,-3.0359,-3.0189,-2.9535,-2.8792,-2.8058,-2.9753,-2.8606,-2.548,-2.7802,-2.7253,-2.4807,-2.5395,-2.5581,-2.5564,-2.6133,-2.6175,0.0,0.0,0.0,0.0,0.0,0.0,0.0,-2.363,-2.3525,-2.3957,-2.4792,-2.5256,-2.5298,-2.4658,-2.3454,0.0,-1.9976,-1.8049,-1.7552,-2.0906,-2.0132,-1.9368,-2.1636,-2.0661,-1.9811,-2.1166,-2.1392,-2.1392,-2.1392,-2.1239,-2.1006,-2.0781,-2.0736,-2.0781,-2.0727,-2.1392,-2.2041,-2.2561,-2.3671,-2.4532,-2.4863,-2.5278,-2.5554,-2.5554,-2.5414,-2.5357,-2.5357,-2.5167,-2.5122,-2.5122,-2.5122,-2.4853,-2.4331,-2.4331,-2.4006,-2.349,-2.4609,-2.5122,-2.515,-2.608,-2.6863,-2.7545,-2.8337,-2.9151,-2.9894,-2.9719,-2.9754,-2.9929,-3.0054,-3.0227,-3.0433,0.0,0.0,0.0,0.0,0.0,0.0,0.0,0.0,0.0,0.0,0.0,0.0,0.0,0.0,0.0,0.0,0.0,0.0,0.0,0.0,-3.038,-3.0338,-3.0401,-3.0422,-3.0396,-3.0396,-3.0316,-3.0189,-3.0316,-3.0338,-3.0295,-2.9493,-2.894,-2.8682,-2.9251,-2.8348,-2.6505,-2.747,-2.6808,-2.5123,-2.514,-2.5049,-2.4943,-2.5547,-2.5677,-2.5532,-2.5621,0.0,0.0,0.0,0.0,0.0,0.0,0.0,-2.4765,-2.4456,-2.4849,-2.5185,-2.4108,-2.3681,0.0,-2.0818,0.0,-2.0183,-2.0743,-2.0513,-2.0272,-2.0735,-2.0016,-1.9651,-2.0864,-2.0893,-2.0818,-2.1185,-2.1006,-2.0826,-2.0699,-2.0609,-2.0473,-2.0337,-2.0727,-2.1257,-2.1819,-2.2621,-2.3422,-2.4188,-2.4568,-2.4871,-2.5094,-2.4792,-2.4631,-2.4631,-2.4194,-2.3946,-2.3946,-2.387,-2.3635,-2.3281,-2.3281,-2.3064,-2.2751,-2.3677,-2.4099,-2.4176,-2.5282,-2.6069,-2.6636,-2.7643,-2.833,-2.8768,-2.8849,-2.8815,-2.8802,-2.9221,-2.9509,-2.9648,0.0,0.0,0.0,0.0,0.0,0.0,0.0,0.0,0.0,0.0,0.0,0.0,0.0,0.0,0.0,0.0,0.0,0.0,0.0,0.0,0.0,-3.0506,-3.0506,-3.0464,-3.0396,-3.0338,-3.029,-3.0167,-3.0167,-3.0494,-3.1122,-3.0146,-2.9877,-3.0151,-2.8679,-2.7901,-2.7601,-2.6446,-2.5794,-2.5493,-2.4959,-2.4528,-2.4234,-2.4779,-2.4996,-2.5075,-2.5561,-2.5619,-2.5473,-2.5607,0.0,0.0,0.0,0.0,-2.6186,-2.3899,-2.432,-2.5109,-2.3259,-2.3413,-2.3766,-2.2623,-2.2766,0.0,-2.0132,-2.0336,-2.0748,-1.9882,-1.9659,-1.9821,-2.0285,-2.006,-1.9964,-2.0497,-2.0417,-2.0288,-2.0242,-2.0192,-2.0103,-2.0103,-2.0235,-2.06,-2.1392,-2.1666,-2.2303,-2.3482,-2.3805,-2.4106,-2.453,-2.4067,-2.3788,-2.3825,-2.3107,-2.2665,-2.2665,-2.2478,-2.2402,-2.2402,-2.2563,-2.2633,-2.2681,-2.3134,-2.3284,-2.3222,-2.4647,-2.543,-2.5795,-2.7222,-2.7723,-2.7636,-2.7934,-2.7868,-2.7669,-2.8314,-2.8624,-2.8803,0.0,0.0,0.0,0.0,0.0,0.0,0.0,0.0,0.0,0.0,-2.5317,-2.5779,0.0,0.0,0.0,0.0,0.0,0.0,0.0,0.0,0.0,-3.0489,-3.0506,-3.0464,-3.0396,-3.0167,-3.0038,-3.0017,-3.0017,-3.1422,-3.4098,-3.328,-3.2688,-3.2269,-3.1928,-2.9793,-2.642,-2.5948,-2.5262,-2.4511,-2.4587,-2.4256,-2.3781,-2.4665,-2.4998,-2.501,-2.5092,-2.5343,-2.5645,-2.5497,-2.5481,0.0,0.0,0.0,-2.5625,-2.4526,-2.5381,-2.6274,-2.4394,0.0,-2.266,0.0,-2.0999,-1.9788,0.0,0.0,-1.9581,-1.9903,-1.9886,-1.9715,-1.9244,-1.9031,-1.8949,-1.887,-1.8813,-1.8724,-1.848,-1.8954,-1.9335,-1.9335,-1.992,-2.0337,-2.0464,-2.0899,-2.1222,-2.1382,-2.1816,-2.2169,-2.2405,-2.248,-2.2594,-2.2622,-2.266,-2.2628,-2.244,-2.2402,-2.2402,-2.2402,-2.3226,-2.3613,-2.3635,-2.4448,-2.4404,-2.3743,-2.4764,-2.5682,-2.6511,-2.7424,-2.7901,-2.8013,-2.7901,-2.7901,-2.8046,-2.8268,-2.8463,-2.8683,0.0,0.0,0.0,0.0,0.0,0.0,0.0,0.0,0.0,0.0,0.0,-2.6056,0.0,0.0,0.0,0.0,0.0,0.0,0.0,0.0,0.0,-3.0506,-3.0506,-3.0464,-3.0396,-3.0146,-3.0038,-3.0103,-3.0038,-3.2475,-3.7215,-3.6901,-3.5504,-3.3322,-3.4696,-3.2123,-2.6831,-2.7976,-2.6952,-2.4497,-2.3584,-2.3249,-2.3358,-2.3741,-2.3996,-2.4237,-2.4978,-2.526,-2.536,-2.5733,-2.6081,-2.6314,-2.5848,0.0,0.0,0.0,-2.5295,-2.5385,-2.496,-2.3249,-2.2002,0.0,-2.1836,-2.0024,-2.1261,-2.0391,-1.9272,-1.917,-1.8931,-1.8701,-1.8656,-1.8309,-1.8074,-1.8249,-1.8157,-1.8033,-1.7887,-1.8523,-1.8971,-1.8971,-1.9775,-2.0292,-2.0292,-2.0488,-2.0731,-2.0969,-2.1053,-2.1231,-2.1574,-2.1544,-2.168,-2.1986,-2.1966,-2.2045,-2.2225,-2.2101,-2.2351,-2.2873,-2.3781,-2.4204,-2.4204,-2.458,-2.4687,-2.4581,-2.541,-2.6142,-2.6838,-2.7593,-2.8033,-2.8216,-2.8249,-2.8216,-2.8249,-2.8509,-2.8651,-2.8812,0.0,0.0,0.0,0.0,0.0,0.0,0.0,0.0,0.0,0.0,0.0,0.0,0.0,0.0,0.0,0.0,0.0,0.0,0.0,0.0,0.0,-3.0306,-3.0493,-3.0547,-3.0422,-3.021,-3.0124,-3.0189,-2.9966,-3.2613,-3.7897,-3.8705,-3.7503,-3.4744,-3.6615,-3.4687,-3.0076,-3.0528,-2.8901,-2.5949,-2.4551,-2.3407,-2.2534,-2.2667,-2.2955,-2.3409,-2.4379,-2.4843,-2.5126,-2.5828,-2.6401,-2.6788,-2.6506,-2.6726,0.0,0.0,0.0,-2.4673,-2.5266,0.0,-2.1996,-2.3908,-2.2158,-2.0165,0.0,-1.9889,-1.887,-1.8573,-1.8151,-1.7897,-1.8146,-1.7555,-1.7103,-1.7401,-1.7245,-1.7114,-1.7037,-1.7673,-1.8131,-1.8131,-1.9174,-1.9911,-1.9911,-2.0147,-2.0433,-2.0791,-2.0589,-2.0576,-2.1011,-2.0857,-2.0921,-2.1317,-2.137,-2.156,-2.1858,-2.205,-2.251,-2.3197,-2.4309,-2.4867,-2.4867,-2.5079,-2.5333,-2.5639,-2.6043,-2.656,-2.7192,-2.7809,-2.8176,-2.8411,-2.8652,-2.8611,-2.8444,-2.8949,-2.8967,-2.8908,0.0,0.0,0.0,0.0,0.0,0.0,0.0,0.0,0.0,0.0,0.0,0.0,-2.6575,-2.7328,-2.7617,-2.7112,-2.7797,0.0,0.0,0.0,0.0,-2.9744,-3.0486,0.0,-3.0506,-3.0422,-3.0333,-3.0189,-2.9671,-3.1094,-3.4332,-3.7126,-3.8038,-3.7288,-3.7227,-3.7451,-3.7528,-3.2929,-3.0414,-2.9523,-2.9296,-2.5884,-2.099,-2.1686,-2.2245,-2.2649,-2.2786,-2.3801,-2.5146,-2.5511,-2.5983,-2.6539,-2.7132,-2.7517,-2.7641,0.0,0.0,0.0,-2.5381,-2.4256,0.0,-2.2232,-2.046,-1.8868,-1.877,-1.8197,-1.7834,-1.8402,-1.8123,-1.7671,-1.7338,-1.6552,-1.5889,-1.5673,-1.5619,-1.5521,-1.5271,-1.5884,-1.6337,-1.6337,-1.7824,-1.8888,-1.8888,-1.9729,-2.0329,-2.0357,-2.0085,-2.0041,-2.035,-2.0271,-2.0259,-2.0373,-2.1032,-2.1311,-2.1132,-2.2478,-2.3129,-2.3131,-2.496,-2.5817,-2.5869,-2.6678,-2.7069,-2.7052,-2.6473,-2.6839,-2.7873,-2.8103,-2.8358,-2.8609,-2.9012,-2.8924,-2.8719,-2.9665,-2.9444,-2.8748,0.0,0.0,0.0,0.0,0.0,0.0,0.0,0.0,0.0,0.0,0.0,0.0,0.0,-2.7554,-2.7169,-2.6962,-2.7514,0.0,0.0,0.0,0.0,-2.8992,-2.9278,-2.9646,-3.0098,-2.9952,-3.0225,-3.0902,-3.059,-3.1746,-3.4275,-3.5323,-3.6547,-3.8,-4.2198,-4.0151,-3.3796,-3.7029,-3.338,-2.585,-3.0583,-2.7925,-2.1427,-2.4226,-2.535,-2.5213,-2.3556,-2.4962,-2.7305,-2.5399,-2.5344,-2.6173,-2.6769,-2.7184,-2.7396,-2.6937,-2.6226,-2.5536,-2.5205,-2.3492,-2.1908,-2.2273,-2.0283,-1.8491,-1.9597,-1.884,-1.7928,-1.7861,-1.7919,-1.7537,-1.6182,-1.5749,-1.5608,-1.5517,-1.5215,-1.4962,-1.4871,-1.5486,-1.5917,-1.5917,-1.7041,-1.7855,-1.7855,-1.8742,-1.9355,-1.9355,-1.8938,-1.9025,-1.9791,-1.8871,-1.893,-2.0268,-2.0571,-2.0969,-2.1549,-2.3194,-2.4021,-2.4028,-2.5872,-2.6741,-2.6753,-2.7058,-2.719,-2.7167,-2.695,-2.7231,-2.79,-2.8001,-2.8299,-2.8743,-2.8785,-2.8777,-2.8775,-2.9031,-2.9141,-2.9282,0.0,0.0,0.0,0.0,0.0,0.0,0.0,0.0,-2.7436,-2.8172,0.0,0.0,0.0,0.0,-2.7115,-2.6753,-2.7119,-2.7637,-2.825,-2.8539,-2.8704,-2.8795,-2.8917,-2.9403,-3.0316,-3.0095,-3.0215,-3.0768,-3.0454,-3.0917,-3.2109,-3.3121,-3.4329,-3.5899,-4.1511,-4.0556,-3.5041,-4.0025,-3.6835,-2.8767,-3.2566,-3.0391,-2.5039,-2.6359,-2.6853,-2.6778,-2.6371,-2.7255,-2.8494,-2.7877,-2.7401,-2.7203,-2.7942,-2.7817,-2.7387,-2.7175,-2.6675,-2.6005,-2.52,-2.3344,-2.1609,-2.1705,-1.9918,-1.8392,-1.9247,-1.8763,-1.8037,-1.7753,-1.7771,-1.7465,-1.6223,-1.5745,-1.5438,-1.5234,-1.4944,-1.4684,-1.4588,-1.5082,-1.548,-1.5527,-1.6466,-1.707,-1.7156,-1.7956,-1.8519,-1.8804,-1.8471,-1.8699,-1.9629,-1.8797,-1.8986,-2.0472,-2.0534,-2.0927,-2.1787,-2.3598,-2.4438,-2.4378,-2.6218,-2.7056,-2.7015,-2.7015,-2.7015,-2.7015,-2.7015,-2.7353,-2.7912,-2.7912,-2.8226,-2.8743,-2.8771,-2.8866,-2.8983,-2.9261,-2.9507,-2.9802,0.0,0.0,0.0,0.0,0.0,0.0,0.0,0.0,-2.8192,-2.8904,0.0,0.0,0.0,0.0,0.0,-2.6533,-2.6623,-2.6809,-2.6927,-2.7607,-2.8355,-2.9159,0.0,0.0,-3.112,-3.0838,-3.0369,-2.975,-2.922,-2.846,-2.7607,-3.0505,-3.1516,-3.1007,-3.4569,-3.8288,-4.1875,-4.1541,-4.0333,-3.8419,-3.5591,-3.3312,-3.1271,-2.787,-2.6531,-2.6998,-3.0978,-3.0477,-2.8585,-3.2837,-3.2073,-2.9593,-3.0621,-2.9394,-2.7643,-2.7915,-2.7303,-2.6336,0.0,0.0,0.0,-2.0457,-1.9376,-1.8515,-1.7642,-1.7834,-1.8187,-1.7987,-1.7776,-1.7619,-1.7561,-1.6447,-1.5349,-1.4801,-1.4702,-1.4612,-1.4382,-1.4544,-1.4838,-1.5083,-1.5974,-1.6676,-1.6842,-1.7358,-1.7971,-1.8689,-1.8726,-1.9093,-1.9837,-2.0155,-2.0516,-2.0987,-2.1021,-2.1247,-2.1802,-2.3554,-2.4347,-2.4135,-2.5988,-2.6768,-2.6603,-2.6603,-2.6603,-2.6603,-2.6603,-2.7104,-2.7875,-2.7875,-2.8169,-2.8609,-2.9026,-2.9201,-2.9335,-3.0427,-3.0527,-3.0237,0.0,0.0,0.0,0.0,0.0,-2.9935,-2.9261,-2.8932,-2.882,0.0,0.0,0.0,-2.9729,-2.9312,-2.8561,-2.7444,-2.7798,-2.7971,-2.7709,-2.8071,-2.8431,-2.8743,-2.8431,-2.8717,-2.9739,-3.0012,-3.0359,-3.0855,-3.0277,-2.9529,-2.8655,-2.8759,-2.8323,-2.7591,-3.0965,-3.2436,-3.2803,-3.9034,-3.553,-2.6749,-3.8249,-3.4869,-2.3891,-3.2381,-3.1444,-2.6256,-3.0931,-3.2052,-3.1474,-3.282,-3.1477,-2.9018,-2.7738,-2.7342,-2.7393,-2.7757,-2.7357,-2.6489,-2.5063,0.0,0.0,0.0,0.0,0.0,-1.8437,-1.8409,-1.8368,-1.7391,-1.7629,-1.7576,-1.633,-1.6422,-1.6345,-1.5355,-1.5095,-1.5021,-1.507,-1.5153,-1.5302,-1.5594,-1.5825,-1.5967,-1.5812,-1.6608,-1.7131,-1.7192,-1.7644,-1.8345,-1.933,-2.0275,-2.0854,-2.1007,-2.1327,-2.1557,-2.1752,-2.2713,-2.3487,-2.4135,-2.5158,-2.5988,-2.6603,-2.6603,-2.6603,-2.6603,-2.6603,-2.6918,-2.7471,-2.7631,-2.7947,-2.8425,-2.8666,-2.8938,-2.9248,-2.96,-3.0143,-3.0725,0.0,0.0,0.0,0.0,0.0,-3.0243,-2.9524,-2.9523,-2.9485,0.0,0.0,0.0,-3.0013,-2.9456,-2.882,-2.8224,-2.8508,-2.8547,-2.8101,-2.836,-2.8579,-2.8707,-2.8339,-2.8616,-2.9708,-2.9806,-3.0136,-3.0722,-3.0355,-2.9816,-2.9069,-2.809,-2.7114,-2.6212,-2.7695,-2.7458,-2.6369,-3.3169,-3.2909,-2.868,-3.7125,-3.6427,-3.0931,-3.6699,-3.5607,-3.1563,-3.6017,-3.6408,-3.5096,-3.6914,-3.467,-3.0922,-2.9761,-2.8092,-2.6876,-2.8614,-2.7875,-2.6194,-2.4838,-2.3897,-2.2891,-2.1108,0.0,0.0,-1.9009,-1.9248,-1.9452,-1.8443,-1.8656,-1.8478,-1.6824,-1.6471,-1.6211,-1.5343,-1.5094,-1.5133,-1.5535,-1.5676,-1.5818,-1.6109,-1.6109,-1.6062,-1.5913,-1.6244,-1.648,-1.6581,-1.7417,-1.8624,-2.0158,-2.0916,-2.1275,-2.1275,-2.1472,-2.1562,-2.1562,-2.2624,-2.3391,-2.3877,-2.5041,-2.5874,-2.6313,-2.6313,-2.6313,-2.6313,-2.6313,-2.6525,-2.6924,-2.7235,-2.7723,-2.832,-2.8509,-2.8951,-2.9484,-2.9599,-3.0266,-3.119,0.0,0.0,-3.0405,-3.0351,-3.0326,-3.0194,-2.976,-3.0011,-2.9924,0.0,-2.9636,-2.9999,-2.9533,-2.9101,-2.8822,-2.8807,-2.8928,-2.8782,-2.8246,-2.8555,-2.8826,-2.8955,-2.8817,-2.9226,-3.0314,-2.9989,-2.9828,-2.9889,-2.9883,-2.9576,-2.8998,-2.8108,-2.7113,-2.6001,-2.5107,-2.3775,-2.2424,-2.5839,-3.1022,-3.6704,-3.4281,-3.76,-4.3624,-4.0483,-3.8812,-3.8748,-4.3012,-4.1701,-3.8529,-4.2222,-3.9436,-3.4337,-3.3965,-3.0326,-2.6771,-2.9648,-2.8354,-2.5773,-2.4686,-2.3985,-2.328,-2.2021,-2.1329,0.0,-1.9483,-1.9998,-2.0521,-1.9898,-1.9808,-1.9418,-1.7905,-1.651,-1.5461,-1.4956,-1.4871,-1.5101,-1.5698,-1.6088,-1.6351,-1.6535,-1.6659,-1.673,-1.6683,-1.6251,-1.6211,-1.6636,-1.7677,-1.9276,-2.1419,-2.1553,-2.1597,-2.1651,-2.1482,-2.1392,-2.1347,-2.2765,-2.3454,-2.3507,-2.5105,-2.5853,-2.5895,-2.5895,-2.5895,-2.5895,-2.5895,-2.6062,-2.6396,-2.683,-2.75,-2.825,-2.8519,-2.91,-2.9826,-3.0066,-3.0742,-3.1543,0.0,-2.9843,-2.9691,-2.9419,-2.9281,-2.9183,-2.9093,-2.9131,-2.9118,-2.8928,-2.9594,-3.007,-2.9985,-3.0166,-2.9878,-2.8891,-2.9347,-2.9324,-2.8423,-2.8822,-2.9155,-2.9293,-2.9028,-2.9032,-2.938,-2.9655,-2.9816,-2.982,-2.9766,-2.9295,-2.8443,-2.7891,-2.6708,-2.5048,-2.4866,-2.3815,-2.2224,-2.2654,-2.5217,-2.9467,-3.5426,-3.6725,-3.5747,-4.1762,-3.9748,-3.4717,-4.2096,-4.2001,-3.8559,-3.9676,-3.924,-3.7373,-3.2463,-3.0525,-2.9662,-2.7834,-2.6989,-2.6311,-2.48,-2.4284,-2.3845,-2.2564,-2.1763,0.0,-2.0205,-1.9392,-1.863,-1.7922,-1.7434,-1.6868,-1.5959,-1.5811,-1.5583,-1.4808,-1.4775,-1.5113,-1.5741,-1.6401,-1.6679,-1.625,-1.6956,-1.7387,-1.7185,-1.7246,-1.7207,-1.6932,-1.7512,-1.865,-2.0484,-2.0574,-2.0862,-2.1437,-2.1446,-2.1293,-2.1096,-2.1221,-2.2059,-2.3497,-2.3627,-2.4498,-2.5895,-2.5895,-2.5895,-2.5895,-2.5895,-2.6186,-2.6629,-2.6913,-2.7331,-2.789,-2.8556,-2.9275,-2.9943,-3.0421,-3.0954,-3.1447,-2.9438,-2.94,-2.93,-2.9137,-2.9034,-2.8912,-2.8627,-2.8826,-2.8826,-2.8331,-2.8797,-2.9394,-2.9889,-2.9634,-2.9268,-2.8934,-2.9051,-2.8809,-2.8011,-2.8806,-2.9171,-2.8904,-2.8967,-2.9029,-2.9098,-2.9335,-2.9566,-2.9793,-2.9993,-2.9729,-2.8996,-2.8557,-2.7351,-2.5582,-2.5121,-2.4138,-2.2781,-2.196,-2.3796,-2.7747,-3.3502,-3.5776,-3.6445,-4.2891,-4.269,-3.9462,-4.3618,-4.3512,-4.1065,-3.8965,-3.8399,-3.8148,-3.5563,-3.2738,-3.0135,-2.8788,-2.7332,-2.5912,-2.4883,-2.4402,-2.3969,-2.3026,-2.2318,0.0,0.0,-2.0143,-1.9744,-1.8711,-1.8504,-1.8035,-1.6581,-1.6074,-1.5552,-1.455,-1.4493,-1.4604,-1.4779,-1.592,-1.6847,-1.7056,-1.7591,-1.7807,-1.7527,-1.7481,-1.7527,-1.7535,-1.7753,-1.8711,-2.0529,-2.0664,-2.0952,-2.1517,-2.1437,-2.1203,-2.0871,-2.1087,-2.1659,-2.2614,-2.34,-2.4274,-2.52,-2.5686,-2.6021,-2.6218,-2.6218,-2.6438,-2.6878,-2.7084,-2.7346,-2.764,-2.8557,-2.9322,-2.9955,-3.0506,-3.1014,-3.1503,-2.8889,-2.8912,-2.8889,-2.8818,-2.8795,-2.863,-2.8231,-2.8519,-2.8511,-2.771,-2.799,-2.878,-3.0185,-2.8983,-2.8454,-2.9422,-2.9075,-2.8348,-2.7222,-2.8824,-2.9326,-2.8258,-2.8772,-2.9098,-2.9098,-2.9098,-2.9305,-2.9677,-3.0081,-3.0038,-2.9568,-2.9097,-2.8015,-2.6452,-2.5435,-2.4898,-2.4682,-2.3327,-2.5144,-2.9243,-3.2355,-3.5259,-3.8241,-4.3366,-4.4832,-4.4275,-4.5097,-4.4959,-4.3712,-3.9307,-3.8053,-3.836,-3.8393,-3.4446,-2.9848,-3.0046,-2.7868,-2.5273,-2.4748,-2.4416,-2.4067,-2.3511,-2.2805,-2.1957,0.0,0.0,0.0,-1.9881,-1.9781,-1.9352,-1.754,-1.652,-1.5564,-1.4513,-1.438,-1.4328,-1.4127,-1.5387,-1.6586,-1.7205,-1.7429,-1.7462,-1.7244,-1.7181,-1.7359,-1.7924,-1.79,-1.8635,-2.0357,-2.0628,-2.0952,-2.1463,-2.1517,-2.1293,-2.0736,-2.1302,-2.1606,-2.1739,-2.3477,-2.4435,-2.4659,-2.5664,-2.6343,-2.6652,-2.6805,-2.695,-2.7127,-2.7679,-2.7857,-2.7815,-2.8681,-2.9354,-2.9952,-3.0591,-3.1085,-3.1541,-2.8149,-2.8222,-2.8125,-2.7835,-2.7675,-2.76,-2.766,-2.7735,-2.7735,-2.761,-2.7913,-2.9185,-3.1974,-2.9663,-2.8842,-3.1115,-3.0724,-2.9048,-2.6006,-2.9301,-3.0194,-2.7622,-2.8522,-2.9098,-2.9098,-2.9098,-2.9121,-2.9167,-2.94,-2.9405,-2.9157,-2.8385,-2.7614,-2.6799,-2.5495,-2.6551,-2.9248,-2.7559,-2.9301,-3.3468,-3.6433,-3.591,-3.4186,-4.2239,-4.2986,-4.0233,-4.4027,-4.5115,-4.4194,-4.0581,-3.9654,-3.9386,-3.5825,-3.264,-3.0061,-2.9226,-2.7119,-2.4868,-2.4056,-2.4213,-2.4518,-2.4104,-2.3039,-2.2058,-2.1787,0.0,-1.9364,-1.9203,0.0,-1.7295,-1.7002,0.0,0.0,-1.4943,-1.5004,-1.5145,-1.5111,-1.5541,-1.5477,-1.4433,-1.5065,-1.5606,-1.5574,-1.6183,-1.6809,-1.736,-1.7254,-1.7488,-1.8404,-1.9217,-1.9985,-2.0682,-2.1553,-2.1687,-2.0952,-2.1042,-2.1302,-2.1739,-2.3144,-2.4212,-2.5083,-2.6412,-2.7062,-2.7174,-2.7879,-2.7873,-2.7483,-2.9041,-2.9416,-2.9027,-2.9261,-2.9527,-2.9947,-3.0955,-3.1407,-3.1585,-2.7685,-2.781,-2.776,-2.7625,-2.7549,-2.7539,-2.76,-2.76,-2.76,-2.76,-2.7725,-2.8845,-3.1555,-3.0068,-2.9873,-3.2359,-3.2043,-3.1126,-2.9681,-3.0228,-3.0325,-2.969,-2.881,-2.8583,-2.9098,-2.9013,-2.899,-2.899,-2.9264,-2.9269,-2.8972,-2.8401,-2.7736,-2.6967,-2.5601,-2.6688,-2.9432,-2.8121,-2.977,-3.3377,-3.4779,-3.4214,-3.3481,-4.2038,-4.4199,-4.2565,-4.1871,-4.2977,-4.3836,-3.7897,-3.8719,-4.1253,-3.5411,-3.3111,-3.2366,-3.1314,-2.821,-2.5358,-2.6467,-2.6614,-2.6352,-2.6085,-2.4893,-2.3669,-2.3183,-2.1379,-1.9595,-1.8905,0.0,0.0,0.0,0.0,0.0,0.0,-1.6014,-1.5752,-1.5349,-1.5424,-1.5416,-1.5207,-1.557,-1.5967,-1.6329,-1.6121,-1.6167,-1.6691,-1.6677,-1.698,-1.7678,-1.9085,-2.0204,-2.0808,-2.1767,-2.1998,-2.141,-2.1419,-2.1802,-2.2526,-2.3621,-2.4649,-2.5535,-2.6659,-2.736,-2.7655,-2.8462,-2.8716,-2.8697,-2.9905,-3.0454,-3.0571,-3.0998,-3.1094,-3.0997,-3.1657,-3.2163,-3.2571,-2.6946,-2.721,-2.739,-2.757,-2.76,-2.76,-2.76,-2.8049,-2.8393,-2.8393,-2.8357,-2.9343,-3.1961,-3.0146,-3.0032,-3.323,-3.2934,-3.2499,-3.2326,-3.1616,-3.1391,-3.1813,-2.9469,-2.8724,-2.9911,-2.9289,-2.8943,-2.8904,-2.912,-2.9144,-2.9016,-2.8379,-2.7979,-2.7725,-2.6165,-2.7406,-3.0645,-2.9823,-3.183,-3.5583,-3.5987,-3.6096,-3.6519,-4.1609,-4.4274,-4.4885,-4.1764,-4.2462,-4.3857,-3.7261,-3.8361,-4.156,-3.6117,-3.4009,-3.3534,-3.3424,-3.0338,-2.7325,-2.905,-2.9232,-2.8714,-2.786,-2.6518,-2.5082,-2.4,-2.2072,-2.0308,-1.9468,-1.9573,0.0,0.0,0.0,-1.8274,-1.7795,0.0,-1.6771,-1.6004,-1.5813,-1.575,-1.5657,-1.5732,-1.5897,-1.6237,-1.585,-1.5693,-1.5827,-1.6119,-1.6518,-1.6977,-1.8794,-1.9968,-2.0393,-2.157,-2.1989,-2.1508,-2.1776,-2.2167,-2.2711,-2.4029,-2.4999,-2.5661,-2.6958,-2.7736,-2.8122,-2.9172,-2.958,-2.9608,-3.0895,-3.1606,-3.1961,-3.269,-3.2752,-3.2436,-3.2586,-3.2877,-3.3287,-2.5683,-2.6183,-2.6851,-2.748,-2.76,-2.76,-2.76,-2.919,-3.0417,-3.0417,-3.0278,-3.1373,-3.436,-2.9791,-2.8541,-3.3642,-3.3283,-3.2506,-3.1848,-3.3469,-3.4055,-3.318,-3.0532,-3.0006,-3.2057,-3.0116,-2.9029,-2.8904,-2.8779,-2.8958,-2.9365,-2.812,-2.8272,-2.9525,-2.7319,-2.9472,-3.4676,-3.4413,-3.7454,-4.2563,-4.3346,-4.4097,-4.4372,-4.0568,-4.1685,-4.5277,-4.5144,-4.5163,-4.4703,-4.095,-3.9614,-3.9298,-3.7896,-3.489,-3.2332,-3.4706,-3.3496,-3.1307,-3.0937,-3.1374,-3.1368,-2.8878,-2.7319,-2.5834,-2.3769,-2.2211,-2.1202,-2.1286,-2.0497,-1.9952,-2.0459,-1.9838,-1.9256,-1.923,-1.9056,0.0,0.0,-1.7118,-1.6275,-1.4492,-1.4548,-1.4588,-1.4158,-1.5073,-1.5428,-1.4814,-1.5606,-1.6056,-1.5956,-1.7792,-1.8834,-1.888,-2.0746,-2.1481,-2.1042,-2.1945,-2.2176,-2.1776,-2.4018,-2.5083,-2.5199,-2.7447,-2.8471,-2.859,-3.0139,-3.0321,-2.9707,-3.2193,-3.3069,-3.2949,-3.3878,-3.4227,-3.4157,-3.3646,-3.3357,-3.3287,-2.5454,-2.5243,-2.5761,-2.6898,-2.7365,-2.76,-2.76,-2.8169,-2.9286,-3.1237,-3.1305,-3.2887,-3.7416,-3.5415,-3.4591,-3.6707,-3.7053,-3.6583,-3.5195,-3.5496,-3.5788,-3.5969,-3.3301,-3.1744,-3.1536,-3.0336,-2.921,-2.8238,-2.8107,-2.8349,-2.892,-2.8056,-2.7869,-2.8248,-2.6829,-2.8807,-3.3298,-3.3999,-3.7317,-4.202,-4.1606,-4.1582,-4.1919,-4.2811,-4.4045,-4.5307,-4.5307,-4.5307,-4.4675,-4.0606,-4.0348,-4.1057,-3.7324,-3.5324,-3.479,-3.681,-3.4711,-3.2082,-3.3751,-3.4268,-3.4154,-3.3272,-3.0907,-2.8482,-2.7393,-2.4441,-2.1867,-2.1629,-2.1489,-2.1431,-2.1612,-2.0832,-2.0156,-2.0156,-1.9811,-1.9305,0.0,-1.7754,-1.6894,-1.6252,-1.5453,-1.5156,-1.5601,-1.4863,-1.4488,-1.4756,-1.4709,-1.4546,-1.4185,-1.722,-1.8905,-1.8819,-2.1273,-2.2555,-2.2378,-2.2696,-2.3377,-2.4414,-2.5179,-2.6193,-2.7366,-2.8127,-2.851,-2.859,-3.019,-3.0716,-3.0596,-3.2514,-3.349,-3.3868,-3.4182,-3.4303,-3.4334,-3.4482,-3.4446,-3.4423,-2.5274,-2.4822,-2.5289,-2.657,-2.7264,-2.7941,-2.8684,-2.8929,-3.0236,-3.3619,-3.3477,-3.4655,-3.8807,-3.7686,-3.7103,-3.8203,-3.7791,-3.7567,-3.7748,-3.578,-3.5674,-3.8159,-3.4802,-3.3054,-3.3398,-3.1716,-3.0362,-2.9372,-2.8584,-2.8496,-2.909,-2.8367,-2.8276,-2.8572,-2.7283,-2.8701,-3.2216,-3.4217,-3.7125,-4.0405,-4.0162,-4.0791,-4.1965,-4.2725,-4.3968,-4.5307,-4.5307,-4.5105,-4.4418,-4.1637,-4.1302,-4.1474,-3.824,-3.6934,-3.6832,-3.8044,-3.6504,-3.4778,-3.6539,-3.6995,-3.6792,-3.5992,-3.3681,-3.1324,-3.0252,-2.7285,-2.4705,-2.4455,-2.4524,-2.439,-2.3655,-2.2807,-2.2028,-2.138,-2.0696,-2.0055,0.0,-1.8581,-1.7841,-1.7628,-1.6628,-1.5873,-1.5684,-1.5209,-1.4642,-1.3975,-1.4158,-1.4143,-1.3743,-1.6932,-1.8826,-1.895,-2.1483,-2.2862,-2.2862,-2.3003,-2.3854,-2.5326,-2.5652,-2.6577,-2.8059,-2.8351,-2.851,-2.859,-3.019,-3.0895,-3.1007,-3.2632,-3.3825,-3.4574,-3.4367,-3.4425,-3.4638,-3.4969,-3.5103,-3.526,-2.515,-2.4929,-2.5447,-2.6563,-2.7438,-2.8651,-3.0688,-3.1428,-3.3193,-3.7141,-3.6637,-3.6662,-3.8619,-3.6806,-3.6182,-3.7991,-3.5712,-3.5605,-3.9017,-3.4593,-3.4213,-3.9597,-3.5234,-3.4121,-3.7231,-3.4083,-3.2305,-3.2046,-3.0105,-2.9377,-2.9762,-2.9041,-2.9293,-3.0319,-2.8609,-2.9194,-3.1671,-3.5109,-3.7174,-3.8234,-3.9323,-4.1776,-4.4352,-4.0367,-4.1475,-4.5192,-4.5192,-4.4647,-4.393,-4.3892,-4.2382,-4.0526,-4.0461,-3.9423,-3.8263,-3.8405,-3.8767,-3.9139,-3.9074,-3.9419,-3.9232,-3.7039,-3.5527,-3.4081,-3.2221,-3.0556,-2.9359,-2.9369,-2.9193,-2.8414,-2.6433,-2.5617,-2.4668,-2.2964,-2.1759,-2.0795,-2.0003,-1.9593,-1.9111,-1.8483,-1.7903,-1.6741,-1.4582,-1.5962,-1.5712,-1.2646,-1.3934,-1.4773,-1.454,-1.6901,-1.8564,-1.9285,-2.1215,-2.2358,-2.2482,-2.2848,-2.3587,-2.4616,-2.5453,-2.6329,-2.7307,-2.8139,-2.851,-2.8578,-3.0139,-3.0844,-3.1007,-3.2596,-3.3934,-3.4958,-3.445,-3.4576,-3.5058,-3.5079,-3.5316,-3.5771,-2.53,-2.5735,-2.6464,-2.6367,-2.8545,-3.0479,-3.0928,-3.2699,-3.4419,-3.5635,-3.7533,-3.8897,-3.9269,-3.9855,-3.9191,-3.6581,-3.6246,-3.6043,-3.5723,-3.6101,-3.742,-3.9839,-3.8614,-3.7275,-3.5947,-3.451,-3.302,-3.1438,-3.0413,-2.9741,-2.9409,-2.8933,-2.8751,-2.8857,-2.8598,-2.9248,-3.0796,-3.4655,-3.7259,-3.8617,-3.6847,-3.7848,-4.024,-3.8688,-4.032,-4.3443,-4.3443,-4.331,-4.3004,-4.2354,-4.1586,-4.0734,-3.9807,-3.9093,-3.8673,-3.915,-3.948,-3.9763,-4.0113,-4.0389,-4.0367,-3.9354,-3.7322,-3.5408,-3.4897,-3.253,-3.0391,-3.0406,-2.9746,-2.9032,-2.8581,-2.6904,-2.5477,-2.5218,-2.3302,-2.1629,-2.108,-2.0484,-2.0016,-1.9747,-1.9059,-1.8087,-1.6768,-1.594,-1.5134,-1.4282,-1.4079,-1.44,-1.5264,-1.6731,-1.8551,-2.0694,-2.0566,-2.1511,-2.3734,-2.2813,-2.3648,-2.6193,-2.6442,-2.711,-2.8179,-2.8526,-2.8566,-2.8339,-2.951,-3.0342,-3.097,-3.1978,-3.296,-3.3736,-3.3621,-3.3891,-3.4398,-3.4742,-3.5388,-3.6199,-2.5453,-2.6161,-2.6967,-2.6423,-2.9816,-3.2624,-3.254,-3.3973,-3.572,-3.7565,-3.8811,-3.983,-4.0627,-4.1365,-4.0801,-3.8426,-3.6769,-3.6136,-3.6791,-3.5593,-3.6335,-3.9641,-3.8825,-3.7412,-3.5443,-3.528,-3.4067,-3.1671,-3.0974,-3.0444,-3.0107,-2.9273,-2.8893,-2.8952,-2.8939,-2.9403,-3.0519,-3.4823,-3.7961,-3.9839,-3.7331,-3.8169,0.0,-3.8137,-3.9308,-4.2231,-4.1839,-4.1934,-4.2163,-4.1667,-4.0927,-4.0096,-3.9405,-3.8875,-3.862,-3.9382,-3.9832,-4.0202,-4.0803,-4.1006,-4.0903,-4.0133,-3.8587,-3.7165,-3.6842,-3.5296,-3.3903,-3.3908,-3.3424,-3.2663,-3.1588,-2.9399,-2.7135,-2.5233,-2.3787,-2.2688,-2.1978,-2.2144,-2.1831,-2.0462,-2.0465,-2.0019,-1.8553,-1.6968,-1.5938,-1.5668,-1.5022,-1.5057,-1.5961,-1.7685,-1.9123,-2.0121,-2.1046,-2.1956,-2.2927,-2.222,-2.3297,-2.614,-2.614,-2.7101,-2.8934,-2.9302,-2.9367,-2.9316,-3.0481,-3.1156,-3.1526,-3.2627,-3.3275,-3.3542,-3.3878,-3.4162,-3.4464,-3.4975,-3.5526,-3.6097,-2.5522,-2.6236,-2.7128,-2.6942,-3.0837,-3.4186,-3.4783,-3.5634,-3.7277,-4.035,-4.0083,-4.0112,-4.1467,-4.1532,-4.1351,-4.0974,-3.7264,-3.6307,-3.9493,-3.4668,-3.401,-3.9277,-3.7589,-3.6274,-3.5697,-3.614,-3.5191,-3.2721,-3.1809,-3.1308,-3.1174,-2.9697,-2.9273,-2.9799,-2.9501,-3.0076,-3.1512,-3.5137,-3.8386,-4.0908,-3.9171,-4.0203,-4.2351,-3.8537,-3.8907,-4.1331,-4.0577,-4.075,-4.1342,-4.1342,-4.0463,-3.9339,-3.9231,-3.8873,-3.8662,-3.9542,-4.0162,-4.0728,-4.1395,-4.1551,-4.1247,-4.0148,-3.9554,-3.8985,-3.8253,-3.8002,-3.7956,-3.795,-3.7901,-3.7122,-3.4827,-3.2188,-2.8969,-2.4593,-2.3894,-2.3597,-2.261,-2.3967,-2.3972,-2.1106,-2.2072,0.0,-2.0117,-1.8498,-1.7357,-1.6832,-1.6401,-1.6374,-1.6892,-1.89,-1.9773,-1.9212,-2.1803,-2.2732,-2.1797,-2.1754,-2.311,-2.5871,-2.5552,-2.686,-2.9491,-3.0088,-3.0431,-3.0607,-3.1942,-3.239,-3.2304,-3.3728,-3.4204,-3.4083,-3.4719,-3.4911,-3.4894,-3.5442,-3.5688,-3.5868,-2.5067,-2.5767,-2.7144,-2.8778,-3.0295,-3.2573,-3.6383,-3.8855,-3.9659,-3.8043,-4.01,-4.0797,-3.8273,-4.0103,-4.0556,-3.8246,-3.753,-3.7501,-3.815,-3.6906,-3.7157,-3.9407,-3.8075,-3.725,-3.7144,-3.6657,-3.5875,-3.4859,-3.3135,-3.1903,-3.1174,-2.9327,-2.8943,-2.9815,-3.0136,-3.2562,-3.631,-3.4668,-3.6017,-3.9272,-3.9401,-3.9025,-3.8591,-4.0175,-4.0666,-4.0517,-4.0355,-4.0376,-4.0511,-4.0511,-4.032,-3.9998,-3.9402,-3.9618,-4.0188,-4.0691,-4.1399,-4.2134,-4.2541,-4.2632,-4.2263,-4.0736,-4.0308,-4.0006,-3.9177,-3.8596,-3.8242,-3.8237,-3.7836,-3.7371,-3.7032,-3.335,-2.9536,-2.6877,-2.4792,-2.3259,-2.252,-2.4712,-2.5446,-2.2925,-2.3936,-2.3965,-2.1777,-1.9363,-1.7861,-1.7757,-1.7566,-1.7962,-1.9094,-1.8523,-1.9304,-2.1744,-2.1048,-2.1834,-2.4328,-2.3433,-2.4968,-2.8799,-2.6986,-2.7466,-2.9927,-3.0356,-3.038,-3.0177,-3.1254,-3.2037,-3.2676,-3.3614,-3.4517,-3.5287,-3.536,-3.5235,-3.5124,-3.5649,-3.6121,-3.6544,-2.6362,-2.612,-2.6442,-2.7761,-3.0236,-3.2899,-3.5447,-3.8702,-4.0419,-3.9051,-4.0311,-4.0723,-3.9052,-4.0144,-4.0435,-3.9084,-3.8256,-3.8308,-3.9457,-3.7758,-3.7575,-3.9422,-3.8226,-3.6971,-3.5844,-3.6569,-3.5922,-3.3811,-3.2913,-3.1892,-3.0749,-2.9066,-2.8551,-2.9097,-3.0855,-3.3069,-3.551,-3.6361,-3.7751,-3.9503,-4.09,-4.0795,-3.994,-4.117,-4.1116,-4.0351,-4.0342,-4.0308,-4.0244,-4.0282,-4.0177,-4.0015,-3.9915,-4.008,-4.049,-4.1472,-4.2057,-4.25,-4.3188,-4.3102,-4.245,-4.0746,-4.0368,-4.0075,-3.8908,-3.8655,-3.8677,-3.8805,-3.8579,-3.8042,-3.6924,-3.4581,-3.2221,-3.0355,-2.7751,-2.5803,-2.5412,-2.5984,-2.6037,-2.4932,-2.6199,-2.6347,-2.4287,-2.2834,-2.1342,-1.9683,-1.9052,-1.8994,-1.962,-1.9465,-2.0079,-2.1612,-2.196,-2.2974,-2.4715,-2.452,-2.599,-2.9123,-2.8066,-2.8841,-3.1263,-3.1733,-3.1915,-3.1915,-3.2684,-3.3318,-3.3862,-3.4587,-3.5389,-3.6176,-3.6109,-3.591,-3.5757,-3.647,-3.6888,-3.7121,-2.8502,-2.7686,-2.7301,-2.856,-3.1411,-3.4015,-3.5447,-3.8075,-4.0047,-4.0443,-4.0489,-4.0489,-4.0489,-4.0524,-4.0408,-3.9933,-3.908,-3.8915,-3.9771,-3.7978,-3.7483,-3.8768,-3.7826,-3.6569,-3.5001,-3.6476,-3.5932,-3.3156,-3.29,-3.1976,-3.044,-2.9162,-2.8801,-2.9352,-3.1994,-3.3768,-3.5013,-3.8486,-4.0221,-4.0827,-4.2603,-4.2835,-4.208,-4.1884,-4.1224,-4.0411,-4.0422,-4.0342,-4.0252,-4.03,-4.0158,-3.9984,-4.0258,-4.0432,-4.0725,-4.1896,-4.2398,-4.2756,-4.3535,-4.3355,-4.2541,-4.0763,-4.0399,-4.0057,-3.8521,-3.8562,-3.8975,-3.9125,-3.9206,-3.8742,-3.7095,-3.5826,-3.4528,-3.2944,-3.0076,-2.7889,-2.7453,-2.6924,-2.6667,-2.6962,-2.8112,-2.8261,-2.6684,-2.5959,-2.4476,-2.1753,-2.0616,-2.022,-2.0564,-2.0763,-2.1052,-2.152,-2.3133,-2.4324,-2.5008,-2.5508,-2.7032,-2.9598,-2.9105,-3.0142,-3.2523,-3.3002,-3.3402,-3.3762,-3.4337,-3.4942,-3.5458,-3.5959,-3.6463,-3.6987,-3.6878,-3.6702,-3.6614,-3.7304,-3.7685,-3.7843,-3.1237,-3.1308,-3.2254,-3.562,-3.4942,-3.5354,-3.9552,-3.8855,-3.8479,-4.0259,-4.0489,-4.0489,-4.0489,-4.0662,-4.0013,-3.8138,-3.9828,-3.9477,-3.5905,-3.7869,-3.8431,-3.6756,-3.6569,-3.6739,-3.7193,-3.6738,-3.6338,-3.6029,-3.4455,-3.2656,-3.0648,-2.9862,-3.0489,-3.2359,-3.3892,-3.6339,-3.9326,-3.9871,-4.127,-4.3235,-4.3825,-4.3299,-4.2136,-4.2394,-4.1683,-4.0481,-4.0481,-4.0444,-4.037,-4.0389,-4.0362,-4.028,-3.9975,-4.0776,-4.1809,-4.1702,-4.2517,-4.3507,-4.358,-4.3582,-4.3075,-4.1207,-4.09,-4.0563,-3.8793,-3.8558,-3.8734,-3.875,-3.8903,-3.9158,-3.9623,-3.7078,-3.4345,-3.2633,-2.9412,-2.6646,-2.5306,-2.6626,-2.8034,-2.8841,-2.8849,-2.8667,-2.8297,-2.6287,-2.4519,-2.3454,-2.2257,-2.2237,-2.3675,-2.1836,-2.1615,-2.3577,-2.3655,-2.4635,-2.6671,-2.6775,-2.8741,-3.2492,-3.048,-3.067,-3.2861,-3.3076,-3.3567,-3.4192,-3.4963,-3.615,-3.751,-3.7332,-3.7533,-3.7938,-3.7702,-3.7609,-3.7667,-3.7738,-3.8277,-3.8956,-3.3348,-3.2955,-3.3122,-3.4786,-3.5489,-3.6485,-3.856,-3.9261,-3.9818,-4.0588,-4.0558,-4.0558,-4.0662,-4.0765,-4.051,-3.9805,-4.0687,-4.06,-3.8928,-3.9376,-3.9309,-3.8472,-3.7719,-3.7431,-3.7738,-3.7431,-3.7118,-3.6692,-3.4374,-3.264,-3.1382,-3.0578,-3.1404,-3.3676,-3.5749,-3.7737,-3.9609,-4.0842,-4.2192,-4.3531,-4.3915,-4.3502,-4.2628,-4.2596,-4.1944,-4.0992,-4.0673,-4.0492,-4.0411,-4.0449,-4.0449,-4.0483,-4.0603,-4.1271,-4.2051,-4.2305,-4.2937,-4.3548,-4.3582,-4.3565,-4.3221,-4.1966,-4.1277,-4.0615,-3.9395,-3.8805,-3.8534,-3.8617,-3.8755,-3.9006,-3.9586,-3.8596,-3.6984,-3.472,-3.3254,-3.1627,-2.9438,-2.9861,-3.1131,-3.3017,-3.1912,-3.1527,-3.2837,-2.9534,-2.7178,-2.6919,-2.4332,-2.2873,-2.3157,-2.3359,-2.4339,-2.6231,-2.6217,-2.7724,-3.0937,-2.9613,-3.0508,-3.3614,-3.2506,-3.2631,-3.3818,-3.4293,-3.4883,-3.5567,-3.6384,-3.713,-3.7815,-3.8031,-3.8184,-3.827,-3.8205,-3.8092,-3.8033,-3.8439,-3.8807,-3.9129,-3.564,-3.5205,-3.5004,-3.5874,-3.7306,-3.8205,-3.7728,-3.9497,-4.0631,-3.9877,-4.0291,-4.0696,-4.0799,-4.0935,-4.0852,-4.0388,-4.1025,-4.0964,-3.978,-4.0008,-3.9794,-3.8974,-3.8467,-3.8133,-3.7895,-3.7902,-3.7669,-3.7193,-3.5143,-3.3637,-3.2585,-3.2123,-3.307,-3.5276,-3.7603,-3.9152,-4.0097,-4.1635,-4.2674,-4.3339,-4.3707,-4.3487,-4.2913,-4.2777,-4.2163,-4.1351,-4.0982,-4.0684,-4.0465,-4.0503,-4.0515,-4.057,-4.0883,-4.1355,-4.1887,-4.2471,-4.2961,-4.3336,-4.3526,-4.3549,-4.3296,-4.2421,-4.1477,-4.0577,-3.9748,-3.8918,-3.8389,-3.8507,-3.8562,-3.8737,-3.9193,-3.9556,-3.896,-3.6537,-3.6239,-3.5483,-3.31,-3.258,-3.3137,-3.5081,-3.3256,-3.2767,-3.509,-3.1532,-2.9145,-2.9287,-2.6635,-2.4712,-2.4004,-2.4726,-2.5937,-2.7673,-2.7272,-2.8877,-3.2669,-3.1174,-3.1878,-3.4732,-3.4599,-3.4762,-3.5139,-3.5706,-3.6384,-3.7095,-3.755,-3.8005,-3.8366,-3.8353,-3.8391,-3.8436,-3.8389,-3.8398,-3.8442,-3.8927,-3.9156,-3.9283,-3.8281,-3.862,-3.9221,-4.118,-4.1525,-4.0683,-3.8168,-3.9695,-4.0202,-3.7672,-3.9528,-4.1037,-4.0833,-4.1256,-4.0767,-3.8698,-4.0579,-4.0198,-3.6238,-3.9173,-3.9823,-3.7051,-3.8257,-3.8654,-3.7921,-3.7905,-3.7905,-3.7905,-3.7401,-3.6166,-3.4273,-3.4816,-3.5917,-3.7556,-3.9506,-4.0868,-4.1696,-4.2195,-4.2595,-4.2939,-4.3339,-4.3227,-4.2822,-4.2946,-4.232,-4.1408,-4.1464,-4.1105,-4.0607,-4.0607,-4.0546,-4.0508,-4.0518,-4.0872,-4.14,-4.1881,-4.2398,-4.2897,-4.3378,-4.3515,-4.3296,-4.2421,-4.1477,-4.0571,-3.9704,-3.8821,-3.8237,-3.8374,-3.8399,-3.8538,-3.8945,-3.9611,-3.9437,-3.7495,-3.7127,-3.6503,-3.4807,-3.3761,-3.3366,-3.3865,-3.1792,-3.1276,-3.3696,-3.124,-2.9593,-2.9774,-2.9209,-2.8415,-2.7477,-2.5764,-2.5566,-2.7241,-2.5832,-2.6741,-3.0325,-3.0703,-3.2703,-3.6291,-3.6615,-3.6767,-3.6767,-3.7207,-3.7844,-3.865,-3.8328,-3.8762,-3.9581,-3.832,-3.8086,-3.8467,-3.8202,-3.8523,-3.9087,-3.9101,-3.9309,-3.9589,-3.398,-3.6464,-3.8432,-3.7582,-3.9173,-4.0269,-3.9382,-4.0297,-4.0834,-4.0133,-4.0917,-4.1524,-4.1357,-4.1604,-4.1563,-4.1008,-4.0268,-3.9925,-4.011,-3.9467,-3.9311,-3.9861,-3.8059,-3.6957,-3.6803,-3.6221,-3.5964,-3.6072,-3.6408,-3.6197,-3.5481,-3.6437,-3.7611,-3.9,-4.034,-4.1432,-4.2262,-4.2358,-4.2788,-4.3374,-4.3462,-4.345,-4.3331,-4.3088,-4.2819,-4.247,-4.1753,-4.1383,-4.1146,-4.075,-4.06,-4.0565,-4.0508,-4.087,-4.1442,-4.2137,-4.256,-4.3014,-4.3988,-4.3884,-4.3474,-4.3442,-4.2584,-4.1497,-4.054,-3.915,-3.8108,-3.8239,-3.8258,-3.8331,-3.85,-3.9252,-3.9014,-3.6409,-3.8375,-3.9332,-3.6683,-3.6023,-3.5873,-3.6069,-3.4071,-3.349,-3.5538,-3.3978,-3.2732,-3.2545,-3.0706,-2.9246,-2.849,-2.9209,-3.0569,-3.2616,-3.2257,-3.3223,-3.5719,-3.4255,-3.4775,-3.732,-3.7202,-3.7552,-3.8295,-3.8461,-3.9125,-4.0102,-3.9484,-3.9796,-4.059,-3.9047,-3.8843,-3.948,-3.9035,-3.8943,-3.9129,-3.9367,-3.9594,-3.9799,-3.384,-3.6086,-3.782,-3.686,-3.8281,-3.9254,-3.8372,-3.9364,-3.994,-3.9229,-4.0427,-4.1344,-4.1276,-4.1785,-4.219,-4.2206,-4.0982,-4.0813,-4.2201,-4.0715,-4.0271,-4.1369,-3.9321,-3.8092,-3.789,-3.7337,-3.6993,-3.6816,-3.6999,-3.7025,-3.6938,-3.8036,-3.9,-3.98,-4.0873,-4.1622,-4.2115,-4.2398,-4.277,-4.3213,-4.3496,-4.3617,-4.3577,-4.338,-4.3206,-4.298,-4.2329,-4.1828,-4.1442,-4.1075,-4.0793,-4.058,-4.0539,-4.0745,-4.1198,-4.2189,-4.2586,-4.2966,-4.4252,-4.4252,-4.3958,-4.418,-4.3148,-4.181,-4.0827,-3.9632,-3.8773,-3.8951,-3.8652,-3.8345,-3.8326,-3.9373,-3.959,-3.7576,-4.0006,-4.1423,-3.9386,-3.8008,-3.7309,-3.7599,-3.535,-3.473,-3.7152,-3.6463,-3.5768,-3.5586,-3.3143,-3.1888,-3.2371,-3.1601,-3.2192,-3.4451,-3.455,-3.5481,-3.7394,-3.6246,-3.6659,-3.8597,-3.8684,-3.907,-3.964,-3.9716,-4.0329,-4.1244,-4.0442,-4.0496,-4.1083,-3.9662,-3.936,-3.9747,-3.9412,-3.9332,-3.9433,-3.9644,-3.9829,-3.9974,-3.6543,-3.6918,-3.7339,-3.8171,-3.848,-3.793,-3.5945,-3.738,-3.7981,-3.6029,-3.8588,-4.0607,-4.0656,-4.1754,-4.246,-4.2349,-4.2236,-4.2315,-4.2586,-4.2457,-4.2149,-4.1632,-4.1452,-4.1031,-4.0291,-4.0256,-4.0043,-3.9586,-3.8877,-3.8553,-3.8566,-3.9606,-4.0087,-4.0138,-4.114,-4.156,-4.152,-4.2356,-4.2637,-4.2638,-4.3462,-4.3719,-4.3634,-4.3736,-4.3491,-4.3058,-4.3095,-4.2434,-4.155,-4.1511,-4.1105,-4.0615,-4.0607,-4.0565,-4.0765,-4.2135,-4.2484,-4.2754,-4.4259,-4.4594,-4.4536,-4.46,-4.3295,-4.1721,-4.0797,-4.0289,-4.0075,-4.0335,-3.9534,-3.8724,-3.848,-3.9858,-4.0871,-4.0366,-4.1739,-4.2662,-4.2142,-3.9516,-3.7757,-3.8108,-3.5705,-3.5243,-3.8345,-3.862,-3.8578,-3.8512,-3.6247,-3.5832,-3.8093,-3.3274,-3.1549,-3.3901,-3.3905,-3.4662,-3.6281,-3.7166,-3.8403,-4.0009,-4.0752,-4.1001,-4.0798,-4.0886,-4.135,-4.2069,-4.1145,-4.0926,-4.1176,-4.0133,-3.962,-3.9495,-3.9463,-3.9637,-3.9903,-3.9903,-4.0012,-4.0155,-3.2014,-3.4077,-3.5684,-3.4406,-3.6052,-3.7429,-3.706,-3.7862,-3.8524,-3.8635,-3.9032,-3.9586,-4.0255,-4.1044,-4.1575,-4.1705,-4.0761,-4.0871,-4.2489,-4.1112,-4.0611,-4.1485,-3.9895,-3.8704,-3.807,-3.8001,-3.8739,-4.0254,-4.0075,-3.9994,-4.0008,-4.0581,-4.084,-4.0857,-4.136,-4.1744,-4.205,-4.2498,-4.2865,-4.3142,-4.3617,-4.3788,-4.3771,-4.3788,-4.3724,-4.3555,-4.3222,-4.2668,-4.2058,-4.1647,-4.1127,-4.066,-4.0622,-4.058,-4.0885,-4.2488,-4.2307,-4.2132,-4.4671,-4.4501,-4.3838,-4.4737,-4.3863,-4.2687,-4.2441,-4.1733,-4.1137,-4.1192,-4.1,-4.06,-3.9881,-4.07,-4.1196,-4.0361,-4.1468,-4.156,-3.9024,-3.828,-3.7127,-3.4884,-3.6192,-3.7476,-3.7972,-4.0235,-4.0805,-3.8807,-3.7845,-3.7619,-3.8247,-3.6873,-3.7143,-3.9499,-3.9587,-3.9765,-4.0174,-4.0393,-4.0699,-4.1133,-4.1308,-4.1569,-4.1849,-4.2024,-4.2185,-4.2276,-4.1434,-4.1332,-4.1623,-4.0201,-3.9996,-4.0513,-4.0086,-3.9981,-4.0053,-4.0053,-4.0277,-4.0649,-3.2847,-3.4302,-3.5371,-3.4304,-3.5464,-3.657,-3.6833,-3.7222,-3.7668,-3.8211,-3.8598,-3.9007,-3.9463,-4.0313,-4.0894,-4.101,-4.0943,-4.1234,-4.2046,-4.1053,-4.0721,-4.1478,-4.034,-3.9698,-3.9714,-3.9709,-4.0097,-4.1012,-4.0658,-4.0496,-4.051,-4.1249,-4.16,-4.1636,-4.2332,-4.2758,-4.3005,-4.337,-4.3779,-4.4236,-4.4595,-4.4635,-4.4492,-4.4492,-4.4216,-4.3809,-4.3558,-4.3127,-4.2597,-4.207,-4.152,-4.0985,-4.0714,-4.0617,-4.085,-4.2183,-4.2068,-4.2047,-4.4359,-4.4394,-4.3912,-4.4532,-4.4346,-4.3901,-4.3448,-4.2806,-4.2324,-4.2479,-4.2079,-4.1586,-4.1105,-4.1766,-4.2174,-4.1534,-4.1433,-4.0799,-3.9026,-3.7706,-3.6849,-3.6656,-3.8158,-3.9753,-4.1071,-4.296,-4.3502,-4.2066,-4.0723,-4.0467,-4.1583,-4.0518,-4.0368,-4.1473,-4.1503,-4.1503,-4.1503,-4.17,-4.1931,-4.2139,-4.2139,-4.2279,-4.2536,-4.2732,-4.2668,-4.2389,-4.2041,-4.1754,-4.15,-4.1024,-4.0988,-4.1225,-4.138,-4.1431,-4.147,-4.154,-4.1719,-4.1999,-3.571,-3.571,-3.571,-3.571,-3.571,-3.5804,-3.6072,-3.6246,-3.6445,-3.6707,-3.772,-3.8472,-3.87,-3.9655,-4.0373,-4.05,-4.1775,-4.2204,-4.1393,-4.1421,-4.1437,-4.1327,-4.1554,-4.1914,-4.2429,-4.2523,-4.2311,-4.1758,-4.1112,-4.082,-4.0834,-4.1866,-4.2361,-4.2398,-4.3451,-4.3904,-4.3933,-4.4334,-4.4818,-4.5343,-4.5737,-4.574,-4.552,-4.5504,-4.4992,-4.4316,-4.43,-4.3864,-4.3241,-4.2886,-4.2254,-4.1559,-4.1188,-4.1024,-4.1127,-4.1844,-4.2024,-4.2319,-4.3885,-4.4376,-4.4446,-4.4393,-4.4803,-4.5001,-4.4173,-4.3717,-4.3547,-4.3817,-4.3133,-4.2435,-4.2297,-4.2906,-4.3183,-4.2438,-4.118,-4.009,-3.956,-3.7598,-3.7243,-3.9978,-4.0607,-4.1935,-4.4795,-4.5375,-4.5571,-4.5517,-4.3667,-4.3377,-4.533,-4.3652,-4.2464,-4.2143,-4.2118,-4.2065,-4.1941,-4.2317,-4.2683,-4.2957,-4.2957,-4.2976,-4.3032,-4.3196,-4.3018,-4.2563,-4.275,-4.2278,-4.1411,-4.2079,-4.2146,-4.1866,-4.2665,-4.3046,-4.3134,-4.3258,-4.3359,-4.3454,-3.571,-3.571,-3.571,-3.571,-3.571,-3.5804,-3.6072,-3.6126,-3.6351,-3.6875,-3.6978,-3.7473,-3.8727,-3.9413,-4.0167,-4.1018,-4.1887,-4.191,-4.0631,-4.109,-4.1152,-4.0619,-4.1708,-4.2126,-4.1672,-4.2285,-4.2554,-4.2441,-4.2327,-4.2263,-4.2278,-4.2856,-4.3139,-4.3132,-4.3669,-4.3904,-4.3933,-4.4334,-4.4818,-4.5343,-4.5737,-4.6121,-4.6477,-4.6414,-4.6307,-4.6164,-4.612,-4.5282,-4.4216,-4.4385,-4.3615,-4.2611,-4.2694,-4.2715,-4.273,-4.281,-4.2815,-4.3026,-4.4025,-4.4747,-4.5218,-4.5217,-4.5243,-4.5227,-4.4965,-4.4813,-4.473,-4.4706,-4.4652,-4.4387,-4.3646,-4.3778,-4.3012,-4.0081,-3.9711,-3.8856,-3.6125,-3.7934,-3.9535,-3.9488,-4.1958,-4.3857,-4.4396,-4.4545,-4.452,-4.4297,-4.4459,-4.4607,-4.4748,-4.4966,-4.5036,-4.4972,-4.4953,-4.4646,-4.3974,-4.4031,-4.376,-4.3142,-4.3142,-4.3303,-4.3594,-4.3677,-4.3539,-4.3252,-4.3397,-4.3111,-4.2553,-4.2679,-4.268,-4.2632,-4.2775,-4.3002,-4.326,-4.3228,-4.3368,-4.3669,-3.5588,-3.571,-3.571,-3.571,-3.571,-3.5723,-3.5858,-3.6453,-3.7021,-3.7286,-3.7924,-3.8646,-3.9316,-3.9693,-4.009,-4.0577,-4.137,-4.1613,-4.0976,-4.1597,-4.2056,-4.2169,-4.2776,-4.299,-4.2702,-4.2622,-4.286,-4.3344,-4.286,-4.2876,-4.3359,-4.3714,-4.3899,-4.3938,-4.4763,-4.5126,-4.515,-4.5329,-4.5899,-4.6656,-4.685,-4.7145,-4.7445,-4.7414,-4.7087,-4.6623,-4.6248,-4.5659,-4.5114,-4.5441,-4.4876,-4.4097,-4.4408,-4.4187,-4.3769,-4.3596,-4.3593,-4.3721,-4.4153,-4.4806,-4.54,-4.5389,-4.5317,-4.5213,-4.5125,-4.5095,-4.5091,-4.5014,-4.5114,-4.511,-4.4734,-4.4747,-4.4298,-4.2745,-4.1504,-4.0195,-3.8709,-3.9914,-4.0839,-4.0525,-4.3309,-4.5275,-4.5275,-4.5529,-4.5629,-4.5518,-4.5789,-4.5919,-4.5793,-4.6077,-4.6248,-4.6248,-4.5566,-4.5039,-4.4671,-4.4383,-4.404,-4.367,-4.367,-4.3786,-4.3924,-4.402,-4.3816,-4.3422,-4.3552,-4.3308,-4.2832,-4.3272,-4.3474,-4.3551,-4.4066,-4.4419,-4.4652,-4.4686,-4.4831,-4.5063,-3.5114,-3.5507,-3.571,-3.571,-3.571,-3.5804,-3.6021,-3.6807,-3.7473,-3.7847,-3.8774,-3.9541,-3.9923,-4.0152,-4.0354,-4.0554,-4.1185,-4.165,-4.1826,-4.2379,-4.2999,-4.3677,-4.3868,-4.4034,-4.417,-4.3475,-4.3522,-4.4409,-4.336,-4.3263,-4.4053,-4.429,-4.4406,-4.4462,-4.5666,-4.6196,-4.6196,-4.6332,-4.6945,-4.7809,-4.7947,-4.8179,-4.8449,-4.8449,-4.8006,-4.7316,-4.6869,-4.6516,-4.6353,-4.6702,-4.6334,-4.581,-4.6196,-4.5833,-4.5225,-4.5049,-4.5066,-4.4986,-4.4269,-4.471,-4.5388,-4.5388,-4.5307,-4.5213,-4.5151,-4.5192,-4.5203,-4.5151,-4.5237,-4.535,-4.539,-4.5429,-4.5256,-4.4716,-4.2935,-4.1616,-4.1608,-4.1552,-4.1714,-4.2316,-4.4475,-4.5916,-4.5916,-4.6244,-4.6421,-4.6332,-4.6506,-4.659,-4.6517,-4.6705,-4.6798,-4.6798,-4.5847,-4.5245,-4.506,-4.4658,-4.4348,-4.4175,-4.4377,-4.4387,-4.4276,-4.4604,-4.4529,-4.4154,-4.4262,-4.4198,-4.4068,-4.4719,-4.5026,-4.5148,-4.5874,-4.6271,-4.6471,-4.6562,-4.6688,-4.6797,-3.4111,-3.4978,-3.571,-3.571,-3.571,-3.6021,-3.7014,-3.6778,-3.7061,-3.861,-3.8514,-3.8868,-4.0308,-4.0641,-4.105,-4.1889,-4.2029,-4.2368,-4.311,-4.3214,-4.3373,-4.369,-4.4356,-4.5,-4.5634,-4.4983,-4.5,-4.5665,-4.4282,-4.3798,-4.4207,-4.4315,-4.4406,-4.4462,-4.5666,-4.6196,-4.6246,-4.6712,-4.7284,-4.7829,-4.8329,-4.8913,-4.9499,-4.9499,-4.9491,-4.9475,-4.9359,-4.8909,-4.8397,-4.8554,-4.8189,-4.7751,-4.8022,-4.7974,-4.7844,-4.7951,-4.7959,-4.7289,-4.4509,-4.4516,-4.5307,-4.5307,-4.5307,-4.5288,-4.5301,-4.529,-4.5288,-4.5301,-4.5332,-4.54,-4.54,-4.5504,-4.4788,-4.2371,-4.1818,-4.167,-4.1608,-4.1542,-4.2393,-4.4753,-4.5229,-4.5352,-4.5352,-4.5388,-4.5289,-4.4965,-4.5698,-4.6016,-4.5721,-4.6405,-4.6798,-4.6798,-4.6712,-4.6304,-4.5554,-4.5509,-4.5125,-4.4388,-4.5204,-4.5302,-4.477,-4.5652,-4.6161,-4.6381,-4.6443,-4.6915,-4.7636,-4.7816,-4.7923,-4.8009,-4.8077,-4.8254,-4.8487,-4.8435,-4.8491,-4.8605,-3.372,-3.4249,-3.492,-3.6429,-3.6592,-3.6906,-3.8126,-3.8513,-3.8916,-3.9545,-3.9964,-4.0455,-4.1175,-4.1315,-4.1555,-4.2078,-4.2541,-4.2981,-4.3284,-4.3795,-4.4414,-4.5225,-4.5122,-4.5503,-4.646,-4.5776,-4.5776,-4.6492,-4.5402,-4.5111,-4.5585,-4.5824,-4.5654,-4.5128,-4.6559,-4.6825,-4.6221,-4.6602,-4.7212,-4.7929,-4.8064,-4.8691,-4.9608,-4.9608,-4.9623,-4.9648,-4.9697,-4.9353,-4.8961,-4.9663,-4.9481,-4.9065,-4.9721,-4.9509,-4.9029,-4.8945,-4.886,-4.8569,-4.7426,-4.7105,-4.7088,-4.705,-4.7041,-4.7021,-4.6992,-4.7041,-4.7079,-4.6992,-4.705,-4.7115,-4.7078,-4.7116,-4.6836,-4.5837,-4.5667,-4.5668,-4.5621,-4.5563,-4.5888,-4.6864,-4.6979,-4.6979,-4.6979,-4.6979,-4.6919,-4.6795,-4.7056,-4.7159,-4.7027,-4.7282,-4.7416,-4.7416,-4.799,-4.7764,-4.6663,-4.7441,-4.7688,-4.7376,-4.7804,-4.7862,-4.7639,-4.7509,-4.7482,-4.753,-4.7596,-4.7778,-4.8077,-4.8114,-4.8186,-4.8241,-4.8247,-4.8408,-4.8623,-4.8608,-4.8678,-4.8796,-3.2767,-3.3424,-3.4357,-3.6534,-3.6948,-3.751,-3.9015,-3.9517,-3.9897,-4.046,-4.073,-4.1083,-4.1563,-4.1633,-4.1717,-4.2092,-4.2622,-4.2915,-4.2915,-4.3457,-4.4403,-4.5937,-4.5687,-4.6033,-4.7206,-4.6741,-4.6836,-4.7558,-4.651,-4.6252,-4.6714,-4.68,-4.66,-4.6204,-4.7448,-4.7724,-4.7212,-4.731,-4.7785,-4.8469,-4.8289,-4.8777,-4.9663,-4.9663,-4.9678,-4.9717,-4.98,-4.9678,-4.9571,-5.0297,-5.0319,-5.0139,-5.0751,-5.0552,-5.007,-4.9892,-4.9833,-4.9821,-4.9792,-4.9452,-4.8952,-4.8293,-4.8132,-4.8123,-4.8105,-4.8151,-4.8178,-4.8103,-4.8141,-4.8197,-4.8133,-4.8115,-4.8105,-4.8105,-4.8097,-4.8107,-4.8087,-4.8058,-4.8009,-4.7999,-4.7999,-4.7999,-4.7999,-4.7978,-4.7968,-4.7968,-4.7916,-4.7865,-4.7865,-4.7821,-4.7788,-4.7788,-4.8703,-4.8794,-4.7931,-4.9094,-4.9528,-4.9269,-4.9644,-4.9556,-4.9016,-4.8761,-4.8606,-4.8581,-4.8632,-4.8759,-4.8975,-4.8992,-4.9042,-4.9103,-4.9136,-4.9279,-4.9448,-4.9463,-4.9543,-4.9618,-3.1124,-3.2546,-3.4161,-3.5731,-3.6552,-3.7717,-3.9799,-3.942,-3.9531,-4.1182,-4.0477,-4.0196,-4.1282,-4.1396,-4.1578,-4.2051,-4.2092,-4.2092,-4.2092,-4.2092,-4.3126,-4.5488,-4.5973,-4.6745,-4.7885,-4.7968,-4.834,-4.9001,-4.7604,-4.708,-4.7393,-4.6941,-4.705,-4.7644,-4.826,-4.8834,-4.9371,-4.9119,-4.9204,-4.9471,-4.9218,-4.9377,-4.9792,-4.9807,-4.983,-4.9912,-4.9912,-5.0159,-5.049,-5.0427,-5.0661,-5.0997,-5.0997,-5.1089,-5.1171,-5.1043,-5.1108,-5.1196,-5.1127,-5.1095,-5.0649,-4.8696,-4.8223,-4.8232,-4.8304,-4.8259,-4.8232,-4.8314,-4.8265,-4.8225,-4.8225,-4.8161,-4.8125,-4.8125,-4.8125,-4.8125,-4.8116,-4.8126,-4.8087,-4.8018,-4.8018,-4.8018,-4.8018,-4.7966,-4.7916,-4.7916,-4.7851,-4.7807,-4.7807,-4.7807,-4.7818,-4.7818,-4.8722,-4.9257,-4.9326,-5.025,-5.0269,-4.9437,-5.0359,-4.9922,-4.8252,-4.918,-4.9602,-4.9602,-4.9602,-5.0101,-5.0906,-5.0971,-5.103,-5.1111,-5.1162,-5.1245,-5.1325,-5.1372,-5.1418,-5.1418,-3.1009,-3.2037,-3.3707,-3.6551,-3.742,-3.8498,-4.0855,-4.0743,-4.0604,-4.1296,-4.0845,-4.0619,-4.1085,-4.1297,-4.1522,-4.18,-4.1995,-4.2201,-4.25,-4.25,-4.3115,-4.4427,-4.5274,-4.6387,-4.7885,-4.8435,-4.8753,-4.8863,-4.844,-4.8134,-4.7958,-4.8301,-4.8416,-4.8428,-4.9205,-4.9497,-4.9383,-4.9464,-4.9702,-5.0017,-4.9564,-4.972,-5.0181,-4.9895,-4.9821,-4.9848,-4.9885,-5.0159,-5.051,-5.047,-5.0764,-5.1133,-5.1133,-5.1165,-5.1196,-5.1159,-5.1165,-5.1196,-5.1171,-5.1171,-5.103,-5.0393,-5.0205,-5.0171,-5.0179,-5.0148,-5.0096,-5.0127,-5.011,-5.0068,-4.9968,-4.9941,-4.9913,-4.9923,-4.9913,-4.9913,-4.9913,-4.9913,-4.9913,-4.9894,-4.9894,-4.9894,-4.9894,-4.9884,-4.9854,-4.9794,-4.9688,-4.9591,-4.9557,-4.963,-4.9695,-4.9695,-5.073,-5.131,-5.1338,-5.1571,-5.1589,-5.1369,-5.1703,-5.1579,-5.1063,-5.077,-5.0653,-5.0652,-5.0648,-5.0803,-5.1046,-5.1012,-5.105,-5.11,-5.1125,-5.1573,-5.2204,-5.2231,-5.2652,-5.3223,-3.0957,-3.1996,-3.3532,-3.6235,-3.7426,-3.8662,-4.059,-4.0958,-4.1057,-4.1241,-4.0915,-4.0773,-4.1001,-4.1142,-4.1367,-4.1646,-4.209,-4.2514,-4.289,-4.293,-4.3265,-4.3988,-4.4878,-4.6032,-4.7439,-4.8177,-4.8656,-4.8894,-4.8894,-4.8753,-4.8515,-4.8937,-4.915,-4.9194,-4.995,-5.027,-5.0276,-5.0304,-5.0554,-5.0819,-5.0023,-5.0022,-5.0424,-4.9985,-4.983,-4.9843,-4.9885,-5.0106,-5.0389,-5.0461,-5.0797,-5.1202,-5.1202,-5.1202,-5.1202,-5.1202,-5.1202,-5.1202,-5.1202,-5.1202,-5.119,-5.1153,-5.1095,-5.1029,-5.1012,-5.0963,-5.0933,-5.0913,-5.0888,-5.0883,-5.0784,-5.0748,-5.0711,-5.0702,-5.0702,-5.0712,-5.0712,-5.0712,-5.0712,-5.0712,-5.0712,-5.0712,-5.0712,-5.0692,-5.0633,-5.0572,-5.0796,-5.0933,-5.0899,-5.1329,-5.1575,-5.1575,-5.2314,-5.2701,-5.2717,-5.2725,-5.2578,-5.2279,-5.2671,-5.2666,-5.2331,-5.2195,-5.2136,-5.2136,-5.2136,-5.2124,-5.2129,-5.2089,-5.2078,-5.2091,-5.2121,-5.2475,-5.3,-5.3027,-5.3385,-5.3893,-3.0979,-3.2335,-3.3867,-3.5267,-3.6949,-3.8455,-3.9464,-4.0388,-4.1001,-4.1043,-4.0859,-4.0816,-4.1001,-4.1043,-4.1212,-4.1646,-4.2322,-4.285,-4.325,-4.3329,-4.3581,-4.4011,-4.4692,-4.5608,-4.6777,-4.7522,-4.8242,-4.8892,-4.897,-4.9001,-4.9001,-4.9001,-4.9303,-4.9919,-5.047,-5.1034,-5.159,-5.1458,-5.1584,-5.1768,-5.0583,-5.0328,-5.0603,-5.0095,-4.9912,-4.9912,-4.9912,-5.0025,-5.0222,-5.046,-5.0832,-5.1202,-5.1202,-5.126,-5.1319,-5.1313,-5.1352,-5.1429,-5.1423,-5.1404,-5.1404,-5.1404,-5.1366,-5.127,-5.1053,-5.1012,-5.1017,-5.101,-5.1037,-5.1043,-5.1112,-5.1024,-5.0942,-5.0942,-5.0943,-5.0923,-5.0923,-5.0923,-5.0923,-5.0923,-5.0923,-5.0923,-5.0923,-5.0864,-5.0794,-5.0741,-5.145,-5.1921,-5.1932,-5.2749,-5.3224,-5.3234,-5.3428,-5.3515,-5.3526,-5.3629,-5.3295,-5.2531,-5.3314,-5.3275,-5.2542,-5.3345,-5.3695,-5.3695,-5.3695,-5.3696,-5.3702,-5.3702,-5.3661,-5.3611,-5.3676,-5.3707,-5.3726,-5.3784,-5.386,-5.3943,-3.1457,-3.343,-3.5121,-3.5437,-3.741,-3.9105,-3.9533,-4.0272,-4.0901,-4.1255,-4.11,-4.1015,-4.1297,-4.1451,-4.1604,-4.1688,-4.2322,-4.285,-4.325,-4.366,-4.405,-4.4473,-4.461,-4.5348,-4.6777,-4.7522,-4.7999,-4.8129,-4.8719,-4.9001,-4.9001,-4.9001,-4.9303,-4.9919,-5.047,-5.1034,-5.1626,-5.2053,-5.2295,-5.229,-5.1318,-5.0989,-5.0982,-5.0197,-4.9912,-4.9912,-4.9912,-5.0025,-5.0264,-5.067,-5.0988,-5.1202,-5.1202,-5.163,-5.2148,-5.2143,-5.2622,-5.3159,-5.3086,-5.3079,-5.3079,-5.3079,-5.3073,-5.2704,-5.138,-5.1069,-5.1247,-5.1869,-5.1989,-5.2179,-5.2743,-5.2833,-5.2807,-5.2818,-5.2762,-5.2733,-5.2733,-5.2694,-5.2664,-5.2664,-5.2664,-5.2664,-5.2664,-5.2593,-5.2543,-5.2532,-5.2661,-5.2787,-5.2883,-5.3196,-5.3383,-5.344,-5.3589,-5.3657,-5.3663,-5.3696,-5.3605,-5.343,-5.3605,-5.3611,-5.3423,-5.3617,-5.3695,-5.3695,-5.3695,-5.3708,-5.3702,-5.3709,-5.3689,-5.3675,-5.3647,-5.4052,-5.4683,-5.4644,-5.5117,-5.5734,-3.1614,-3.3557,-3.5088,-3.4835,-3.7049,-3.8874,-3.8742,-3.9837,-4.0787,-4.1043,-4.1015,-4.1043,-4.1184,-4.1409,-4.1675,-4.2007,-4.2526,-4.309,-4.3621,-4.3934,-4.4281,-4.4587,-4.461,-4.5142,-4.6253,-4.7342,-4.8233,-4.8952,-4.9675,-5.0067,-5.0067,-5.0067,-5.0221,-5.0556,-5.1035,-5.1457,-5.1776,-5.2276,-5.2498,-5.244,-5.1759,-5.16,-5.1713,-5.1039,-5.0927,-5.1092,-5.1092,-5.121,-5.1457,-5.1809,-5.207,-5.2271,-5.2369,-5.2678,-5.3028,-5.3029,-5.334,-5.3695,-5.3656,-5.3615,-5.3601,-5.3601,-5.3601,-5.3369,-5.2457,-5.225,-5.2356,-5.2783,-5.2872,-5.2991,-5.3376,-5.3428,-5.3402,-5.3403,-5.3377,-5.334,-5.334,-5.3321,-5.3273,-5.3243,-5.3243,-5.3253,-5.3263,-5.3194,-5.3194,-5.3282,-5.358,-5.3811,-5.3898,-5.442,-5.4707,-5.4735,-5.4867,-5.4938,-5.4938,-5.4938,-5.4938,-5.4938,-5.4524,-5.431,-5.433,-5.4757,-5.4938,-5.4938,-5.4938,-5.4938,-5.4932,-5.4932,-5.4919,-5.4892,-5.4854,-5.5116,-5.5514,-5.5454,-5.5785,-5.6256,-3.1995,-3.3746,-3.4958,-3.4263,-3.6762,-3.8601,-3.79,-3.9428,-4.0688,-4.073,-4.0887,-4.1043,-4.1128,-4.1367,-4.1773,-4.2351,-4.2809,-4.3334,-4.4022,-4.4188,-4.4442,-4.4703,-4.4747,-4.5142,-4.5877,-4.7464,-4.8808,-4.9909,-5.0781,-5.1185,-5.1185,-5.1185,-5.1117,-5.1029,-5.1639,-5.1828,-5.1735,-5.2406,-5.2625,-5.2472,-5.213,-5.2123,-5.227,-5.1917,-5.1996,-5.2294,-5.2371,-5.2542,-5.2721,-5.296,-5.3167,-5.3376,-5.3591,-5.3754,-5.3877,-5.389,-5.4013,-5.4122,-5.4135,-5.4088,-5.4033,-5.4033,-5.4033,-5.3998,-5.3941,-5.3708,-5.3553,-5.3688,-5.3719,-5.3757,-5.3904,-5.387,-5.3844,-5.3844,-5.3848,-5.384,-5.384,-5.383,-5.3812,-5.3745,-5.3745,-5.3754,-5.3752,-5.3716,-5.3754,-5.3904,-5.4501,-5.4859,-5.4934,-5.5684,-5.6109,-5.6124,-5.6246,-5.6291,-5.6291,-5.6291,-5.6291,-5.6291,-5.5573,-5.5223,-5.5242,-5.5961,-5.6291,-5.6291,-5.6291,-5.6291,-5.6291,-5.6291,-5.6278,-5.6225,-5.6202,-5.6164,-5.6098,-5.6029,-5.6067,-5.6162,-3.3488,-3.5282,-3.6251,-3.4931,-3.755,-3.9358,-3.8037,-3.9428,-4.0773,-4.0916,-4.1001,-4.117,-4.1563,-4.2007,-4.231,-4.2392,-4.2945,-4.3529,-4.4233,-4.4276,-4.458,-4.5161,-4.5416,-4.5913,-4.6638,-4.8718,-4.9607,-4.9161,-5.0538,-5.1185,-5.1185,-5.1185,-5.0862,-5.0299,-5.1414,-5.1495,-5.0989,-5.2772,-5.3132,-5.2526,-5.2751,-5.2451,-5.188,-5.1814,-5.1834,-5.1933,-5.2279,-5.2542,-5.2716,-5.2733,-5.2889,-5.3109,-5.3368,-5.3956,-5.4599,-5.4696,-5.5267,-5.5862,-5.5865,-5.5808,-5.5757,-5.5757,-5.5725,-5.5672,-5.5672,-5.4587,-5.3773,-5.4483,-5.463,-5.4826,-5.5528,-5.5655,-5.5647,-5.5647,-5.565,-5.5662,-5.5662,-5.5605,-5.5567,-5.5538,-5.5538,-5.5565,-5.5638,-5.5629,-5.5638,-5.5664,-5.5743,-5.5835,-5.5905,-5.6036,-5.6151,-5.6278,-5.6291,-5.6291,-5.6291,-5.6291,-5.6291,-5.6291,-5.6175,-5.6117,-5.6136,-5.6253,-5.6291,-5.6291,-5.6291,-5.6291,-5.6291,-5.6291,-5.6291,-5.6285,-5.6225,-5.619,-5.6164,-5.6037,-5.601,-5.6035,-3.3881,-3.5155,-3.6046,-3.5713,-3.7881,-3.9422,-3.8687,-3.9779,-4.073,-4.0816,-4.0916,-4.1142,-4.1507,-4.1939,-4.2284,-4.2392,-4.2743,-4.3184,-4.3708,-4.3983,-4.4303,-4.4709,-4.5753,-4.665,-4.7394,-4.9562,-5.0758,-5.0827,-5.1932,-5.2486,-5.2486,-5.2486,-5.208,-5.1334,-5.1808,-5.1754,-5.1437,-5.2197,-5.251,-5.2521,-5.2649,-5.2638,-5.2553,-5.2791,-5.3002,-5.324,-5.3645,-5.3836,-5.3957,-5.4097,-5.4216,-5.4327,-5.4553,-5.4977,-5.5382,-5.5439,-5.5848,-5.6246,-5.6211,-5.6211,-5.6199,-5.6175,-5.6118,-5.6075,-5.6102,-5.5528,-5.5091,-5.5388,-5.5476,-5.5584,-5.5935,-5.6012,-5.602,-5.6046,-5.6031,-5.6033,-5.6104,-5.6051,-5.6005,-5.6005,-5.5977,-5.5984,-5.6059,-5.6018,-5.6054,-5.6168,-5.6091,-5.6099,-5.6199,-5.6206,-5.6239,-5.6291,-5.6291,-5.6291,-5.6291,-5.6291,-5.6291,-5.6291,-5.6291,-5.6291,-5.6291,-5.6291,-5.6291,-5.6291,-5.6291,-5.6291,-5.6291,-5.6291,-5.6291,-5.6291,-5.6232,-5.6182,-5.6141,-5.6082,-5.6029,-5.6012]},{"header":{"parameterUnit":"m.s-1","parameterCategory":1,"la1":30.6,"la2":28.766,"lo1":-90.7593,"lo2":-88.6598,"dy":0.0162,"dx":0.0183,"nx":116,"ny":114,"refTime":"2023-04-26T00:00:00:Z","depth":0,"parameterNumber":3,"parameterNumberName":"V-component_of_WINDS"},"data":[0.0,0.0,0.0,0.0,0.0,0.0,0.0,0.0,0.0,0.0,0.0,0.0,0.0,0.0,0.0,0.0,0.0,0.0,0.0,0.0,0.0,0.0,0.0,0.0,0.0,0.0,0.0,0.0,0.0,0.0,0.0,0.0,0.0,0.0,0.0,0.0,0.0,0.0,0.0,0.0,0.0,0.0,0.0,0.0,0.0,0.0,0.0,0.0,0.0,0.0,0.0,0.0,0.0,0.0,0.0,0.0,0.0,0.0,0.0,0.0,0.0,0.0,0.0,0.0,0.0,0.0,0.0,0.0,0.0,0.0,0.0,0.0,0.0,0.0,0.0,0.0,0.0,0.0,0.0,0.0,0.0,0.0,0.0,0.0,0.0,0.0,0.0,0.0,0.0,0.0,0.0,0.0,0.0,0.0,0.0,0.0,0.0,0.0,0.0,0.0,0.0,0.0,0.0,0.0,0.0,0.0,0.0,0.0,0.0,0.0,0.0,0.0,0.0,0.0,0.0,0.0,0.0,0.0,0.0,0.0,0.0,0.0,0.0,0.0,0.0,0.0,0.0,0.0,0.0,0.0,0.0,0.0,0.0,0.0,0.0,0.0,0.0,0.0,0.0,0.0,0.0,0.0,0.0,0.0,0.0,0.0,0.0,0.0,0.0,0.0,0.0,0.0,0.0,0.0,0.0,0.0,0.0,0.0,0.0,0.0,0.0,0.0,0.0,0.0,0.0,0.0,0.0,0.0,0.0,0.0,0.0,0.0,0.0,0.0,0.0,0.0,0.0,0.0,0.0,0.0,0.0,0.0,0.0,0.0,0.0,0.0,0.0,0.0,0.0,0.0,0.0,0.0,0.0,0.0,0.0,0.0,0.0,0.0,0.0,0.0,0.0,0.0,0.0,0.0,0.0,0.0,0.0,0.0,0.0,0.0,0.0,0.0,0.0,0.0,0.0,0.0,0.0,0.0,0.0,0.0,0.0,0.0,0.0,0.0,0.0,0.0,0.0,0.0,0.0,0.0,0.0,0.0,0.0,0.0,0.0,0.0,0.0,0.0,0.0,0.0,0.0,0.0,0.0,0.0,0.0,0.0,0.0,0.0,0.0,0.0,0.0,0.0,0.0,0.0,0.0,0.0,0.0,0.0,0.0,0.0,0.0,0.0,0.0,0.0,0.0,0.0,0.0,0.0,0.0,0.0,0.0,0.0,0.0,0.0,0.0,0.0,0.0,0.0,0.0,0.0,0.0,0.0,0.0,0.0,0.0,0.0,0.0,0.0,0.0,0.0,0.0,0.0,0.0,0.0,0.0,0.0,0.0,0.0,0.0,0.0,0.0,0.0,0.0,0.0,0.0,0.0,0.0,0.0,0.0,0.0,0.0,0.0,0.0,0.0,0.0,0.0,0.0,0.0,0.0,0.0,0.0,0.0,0.0,0.0,0.0,0.0,0.0,0.0,0.0,0.0,0.0,0.0,0.0,0.0,0.0,0.0,0.0,0.0,0.0,0.0,0.0,0.0,0.0,0.0,0.0,0.0,0.0,0.0,0.0,0.0,0.0,0.0,0.0,0.0,0.0,0.0,0.0,0.0,0.0,0.0,0.0,0.0,0.0,0.0,0.0,0.0,0.0,0.0,0.0,0.0,0.0,0.0,0.0,0.0,0.0,0.0,0.0,0.0,0.0,0.0,0.0,0.0,0.0,0.0,0.0,0.0,0.0,0.0,0.0,0.0,0.0,0.0,0.0,0.0,0.0,0.0,0.0,0.0,0.0,0.0,0.0,0.0,0.0,0.0,0.0,0.0,0.0,0.0,0.0,0.0,0.0,0.0,0.0,0.0,0.0,0.0,0.0,0.0,0.0,0.0,0.0,0.0,0.0,0.0,0.0,0.0,0.0,0.0,0.0,0.0,0.0,0.0,0.0,0.0,0.0,0.0,0.0,0.0,0.0,0.0,0.0,0.0,0.0,0.0,0.0,0.0,0.0,0.0,0.0,0.0,0.0,0.0,0.0,0.0,0.0,0.0,0.0,0.0,0.0,0.0,0.0,0.0,0.0,0.0,0.0,0.0,0.0,0.0,0.0,0.0,0.0,0.0,0.0,0.0,0.0,0.0,0.0,0.0,0.0,0.0,0.0,0.0,0.0,0.0,0.0,0.0,0.0,0.0,0.0,0.0,0.0,0.0,0.0,0.0,0.0,0.0,0.0,0.0,0.0,0.0,0.0,0.0,0.0,0.0,0.0,0.0,0.0,0.0,0.0,0.0,0.0,0.0,0.0,0.0,0.0,0.0,0.0,0.0,0.0,0.0,0.0,0.0,0.0,0.0,0.0,0.0,0.0,0.0,0.0,0.0,0.0,0.0,0.0,0.0,0.0,0.0,0.0,0.0,0.0,0.0,0.0,0.0,0.0,0.0,0.0,0.0,0.0,0.0,0.0,0.0,0.0,0.0,0.0,0.0,0.0,0.0,0.0,0.0,0.0,0.0,0.0,0.0,0.0,0.0,0.0,0.0,0.0,0.0,0.0,0.0,0.0,0.0,0.0,0.0,0.0,0.0,0.0,0.0,0.0,0.0,0.0,0.0,0.0,0.0,0.0,0.0,0.0,0.0,0.0,0.0,0.0,0.0,0.0,0.0,0.0,0.0,0.0,0.0,0.0,0.0,0.0,0.0,0.0,0.0,0.0,0.0,0.0,0.0,0.0,0.0,0.0,0.0,0.0,0.0,0.0,0.0,0.0,0.0,0.0,0.0,0.0,0.0,0.0,0.0,0.0,0.0,0.0,0.0,0.0,0.0,0.0,0.0,0.0,0.0,0.0,0.0,0.0,0.0,0.0,0.0,0.0,0.0,0.0,0.0,0.0,0.0,0.0,0.0,0.0,0.0,0.0,0.0,0.0,0.0,0.0,0.0,0.0,0.0,0.0,0.0,0.0,0.0,0.0,0.0,0.0,0.0,0.0,0.0,0.0,0.0,0.0,0.0,0.0,0.0,0.0,0.0,0.0,0.0,0.0,0.0,0.0,0.0,0.0,0.0,0.0,0.0,0.0,0.0,0.0,0.0,0.0,0.0,0.0,0.0,0.0,0.0,0.0,0.0,0.0,0.0,0.0,0.0,0.0,0.0,0.0,0.0,0.0,0.0,0.0,0.0,0.0,0.0,0.0,0.0,0.0,0.0,0.0,0.0,0.0,0.0,0.0,0.0,0.0,0.0,0.0,0.0,0.0,0.0,0.0,0.0,0.0,0.0,0.0,0.0,0.0,0.0,0.0,0.0,0.0,0.0,0.0,0.0,0.0,0.0,0.0,0.0,0.0,0.0,0.0,0.0,0.0,0.0,0.0,0.0,0.0,0.0,0.0,0.0,0.0,0.0,0.0,0.0,0.0,0.0,0.0,0.0,0.0,0.0,0.0,0.0,0.0,0.0,0.0,0.0,0.0,0.0,0.0,0.0,0.0,0.0,0.0,0.0,0.0,0.0,0.0,0.0,0.0,0.0,0.0,0.0,0.0,0.0,0.0,0.0,0.0,0.0,0.0,0.0,0.0,0.0,0.0,0.0,0.0,0.0,0.0,0.0,0.0,0.0,0.0,0.0,0.0,0.0,0.0,0.0,0.0,0.0,0.0,0.0,0.0,0.0,0.0,0.0,0.0,0.0,0.0,0.0,0.0,0.0,0.0,0.0,0.0,0.0,0.0,0.0,0.0,0.0,0.0,0.0,0.0,0.0,0.0,0.0,0.0,0.0,0.0,0.0,0.0,0.0,0.0,0.0,0.0,0.0,0.0,0.0,0.0,0.0,0.0,0.0,0.0,0.0,0.0,0.0,0.0,0.0,0.0,0.0,0.0,0.0,0.0,0.0,0.0,0.0,0.0,0.0,0.0,0.0,0.0,0.0,0.0,0.0,0.0,0.0,0.0,0.0,0.0,0.0,0.0,0.0,0.0,0.0,0.0,0.0,0.0,0.0,0.0,0.0,0.0,0.0,0.0,0.0,0.0,0.0,0.0,0.0,0.0,0.0,0.0,0.0,0.0,0.0,0.0,0.0,0.0,0.0,0.0,0.0,0.0,0.0,0.0,0.0,0.0,0.0,0.0,0.0,0.0,0.0,0.0,0.0,0.0,0.0,0.0,0.0,0.0,0.0,0.0,0.0,0.0,0.0,0.0,0.0,0.0,0.0,0.0,0.0,0.0,0.0,0.0,0.0,0.0,0.0,0.0,0.0,0.0,0.0,0.0,0.0,0.0,0.0,0.0,0.0,0.0,0.0,0.0,0.0,0.0,0.0,0.0,0.0,0.0,0.0,0.0,0.0,0.0,0.0,0.0,0.0,0.0,0.0,0.0,0.0,0.0,0.0,0.0,0.0,0.0,0.0,0.0,0.0,0.0,0.0,0.0,0.0,0.0,0.0,0.0,0.0,0.0,0.0,0.0,0.0,0.0,0.0,0.0,0.0,0.0,0.0,0.0,0.0,0.0,0.0,0.0,0.0,0.0,0.0,0.0,0.0,0.0,0.0,0.0,0.0,0.0,0.0,0.0,0.0,0.0,0.0,0.0,0.0,0.0,0.0,0.0,0.0,0.0,0.0,0.0,0.0,0.0,0.0,0.0,0.0,0.0,0.0,0.0,0.0,0.0,0.0,0.0,0.0,0.0,0.0,0.0,0.0,0.0,0.0,0.0,0.0,0.0,0.0,0.0,0.0,0.0,0.0,0.0,0.0,0.0,0.0,0.0,0.0,0.0,0.0,0.0,0.0,0.0,0.0,0.0,0.0,0.0,0.0,0.0,0.0,0.0,0.0,0.0,0.0,0.0,0.0,0.0,0.0,0.0,0.0,0.0,0.0,0.0,0.0,0.0,0.0,0.0,0.0,0.0,0.0,0.0,0.0,0.0,0.0,0.0,0.0,0.0,0.0,0.0,0.0,0.0,0.0,0.0,0.0,0.0,0.0,0.0,0.0,0.0,0.0,0.0,0.0,0.0,0.0,0.0,0.0,0.0,0.0,0.0,0.0,0.0,0.0,0.0,0.0,0.0,0.0,0.0,0.0,0.0,0.0,0.0,0.0,0.0,0.0,0.0,0.0,0.0,0.0,0.0,0.0,0.0,0.0,0.0,0.0,0.0,0.0,0.0,0.0,0.0,0.0,0.0,0.0,0.0,0.0,0.0,0.0,0.0,0.0,0.0,0.0,0.0,0.0,0.0,0.0,0.0,0.0,0.0,0.0,0.0,0.0,0.0,0.0,0.0,0.0,0.0,0.0,0.0,0.0,0.0,0.0,0.0,0.0,0.0,0.0,0.0,0.0,0.0,0.0,0.0,0.0,0.0,0.0,0.0,0.0,0.0,0.0,0.0,0.0,0.0,0.0,0.0,0.0,0.0,0.0,0.0,0.0,0.0,0.0,0.0,0.0,0.0,0.0,0.0,0.0,0.0,0.0,0.0,0.0,0.0,0.0,0.0,0.0,0.0,0.0,0.0,0.0,0.0,0.0,0.0,0.0,0.0,0.0,0.0,0.0,0.0,0.0,0.0,0.0,0.0,0.0,0.0,0.0,0.0,0.0,0.0,0.0,0.0,0.0,0.0,0.0,0.0,0.0,0.0,0.0,0.0,0.0,0.0,0.0,0.0,0.0,0.0,0.0,0.0,0.0,0.0,0.0,0.0,0.0,0.0,0.0,0.0,0.0,0.0,0.0,0.0,0.0,0.0,0.0,0.0,0.0,0.0,0.0,0.0,0.0,0.0,0.0,0.0,0.0,0.0,0.0,0.0,0.0,0.0,0.0,0.0,0.0,0.0,0.0,0.0,0.0,0.0,0.0,0.0,0.0,0.0,0.0,0.0,0.0,0.0,0.0,0.0,0.0,0.0,0.0,0.0,0.0,0.0,0.0,0.0,0.0,0.0,0.0,0.0,0.0,0.0,0.0,0.0,0.0,0.0,0.0,0.0,0.0,0.0,0.0,0.0,0.0,0.0,0.0,0.0,0.0,0.0,0.0,0.0,0.0,0.0,0.0,0.0,0.0,0.0,0.0,0.0,0.0,0.0,0.0,0.0,0.0,0.0,0.0,0.0,0.0,0.0,0.0,0.0,0.0,0.0,0.0,0.0,0.0,0.0,0.0,2.595,2.4089,0.0,0.0,0.0,0.0,0.0,0.0,0.0,0.0,0.0,0.0,0.0,0.0,0.0,0.0,0.0,0.0,0.0,0.0,0.0,0.0,0.0,0.0,0.0,0.0,0.0,0.0,0.0,0.0,0.0,0.0,0.0,0.0,0.0,0.0,0.0,0.0,0.0,0.0,2.5698,2.5709,2.5501,2.5829,2.4647,2.2254,0.0,0.0,0.0,0.0,0.0,0.0,0.0,0.0,0.0,0.0,0.0,0.0,0.0,0.0,0.0,0.0,0.0,0.0,0.0,0.0,0.0,0.0,0.0,0.0,0.0,0.0,0.0,0.0,0.0,0.0,0.0,0.0,0.0,0.0,0.0,0.0,0.0,0.0,0.0,0.0,0.0,0.0,0.0,0.0,0.0,0.0,0.0,0.0,0.0,0.0,0.0,0.0,0.0,0.0,0.0,0.0,0.0,0.0,0.0,0.0,0.0,0.0,0.0,0.0,0.0,0.0,0.0,0.0,0.0,0.0,2.6982,2.6091,0.0,0.0,0.0,0.0,0.0,0.0,0.0,0.0,0.0,0.0,0.0,0.0,0.0,0.0,0.0,0.0,0.0,0.0,0.0,0.0,0.0,0.0,0.0,2.9197,2.8474,2.891,2.7481,2.6806,0.0,0.0,0.0,0.0,0.0,0.0,0.0,2.502,2.5339,2.623,2.7382,2.8455,2.9387,2.8691,2.6463,2.3066,2.3089,0.0,0.0,0.0,0.0,0.0,0.0,0.0,0.0,0.0,0.0,0.0,0.0,0.0,0.0,0.0,0.0,0.0,0.0,0.0,0.0,0.0,0.0,0.0,0.0,0.0,0.0,0.0,0.0,0.0,0.0,0.0,0.0,0.0,0.0,0.0,0.0,0.0,0.0,0.0,0.0,0.0,0.0,0.0,0.0,0.0,0.0,0.0,0.0,0.0,0.0,0.0,0.0,0.0,0.0,0.0,0.0,0.0,0.0,0.0,0.0,0.0,0.0,0.0,2.9881,3.01,3.0014,2.9332,2.8843,2.8521,2.8959,2.8965,2.8526,2.717,0.0,0.0,0.0,0.0,0.0,0.0,0.0,0.0,0.0,0.0,0.0,0.0,0.0,0.0,0.0,0.0,0.0,0.0,0.0,0.0,0.0,3.0896,3.0573,2.9574,2.9055,2.8524,2.7945,0.0,0.0,0.0,0.0,0.0,2.5969,2.5208,2.5841,2.7958,2.8671,2.9284,2.9794,2.8668,2.7982,2.7709,2.7254,2.6328,2.5123,0.0,0.0,0.0,0.0,0.0,0.0,0.0,0.0,0.0,0.0,0.0,0.0,0.0,0.0,0.0,0.0,0.0,0.0,0.0,0.0,0.0,0.0,0.0,0.0,0.0,0.0,0.0,0.0,0.0,0.0,0.0,0.0,0.0,0.0,0.0,0.0,0.0,0.0,0.0,0.0,0.0,2.9796,3.1561,0.0,0.0,0.0,0.0,0.0,0.0,0.0,0.0,0.0,0.0,0.0,0.0,0.0,2.9418,2.9475,3.113,3.199,3.2005,3.409,3.4715,3.4124,3.4012,3.3558,3.2791,3.1286,0.0,2.8678,2.8656,0.0,0.0,0.0,0.0,0.0,0.0,0.0,0.0,0.0,0.0,0.0,0.0,0.0,0.0,0.0,0.0,0.0,0.0,0.0,0.0,0.0,3.2663,3.3194,3.2629,3.3546,3.3129,3.0739,2.9595,0.0,0.0,0.0,2.4761,2.4643,2.5185,2.7262,3.0887,3.2197,3.3324,3.4196,3.3223,3.2757,3.2746,3.2243,3.0128,2.6919,2.6582,0.0,0.0,0.0,0.0,0.0,0.0,0.0,0.0,0.0,0.0,0.0,0.0,0.0,0.0,0.0,0.0,0.0,0.0,0.0,0.0,0.0,0.0,0.0,0.0,0.0,0.0,0.0,0.0,0.0,0.0,0.0,0.0,0.0,0.0,0.0,0.0,0.0,0.0,0.0,3.0253,3.1528,3.2293,3.2572,3.2,0.0,0.0,0.0,0.0,0.0,0.0,0.0,0.0,0.0,3.1862,3.1642,3.175,3.2315,3.3759,3.4515,3.4576,3.5627,3.599,3.5784,3.527,3.4813,3.4407,3.3054,3.2111,3.144,3.0464,3.0214,3.0305,0.0,0.0,0.0,0.0,2.6582,2.7642,0.0,0.0,0.0,0.0,0.0,0.0,0.0,0.0,0.0,0.0,0.0,0.0,3.3213,3.5149,3.6438,3.6336,3.7681,3.696,3.3288,3.2008,2.9622,2.5562,2.4899,2.4491,2.4215,2.6567,2.9868,3.4103,3.5707,3.6888,3.7634,3.7026,3.6515,3.6025,3.5661,3.3034,2.8903,2.8604,2.7233,2.52,0.0,0.0,0.0,0.0,0.0,0.0,0.0,0.0,0.0,0.0,0.0,0.0,0.0,0.0,0.0,0.0,0.0,0.0,0.0,0.0,0.0,0.0,0.0,0.0,0.0,0.0,0.0,0.0,0.0,0.0,0.0,0.0,0.0,0.0,0.0,0.0,0.0,3.1792,3.2907,3.3151,3.3751,3.3376,0.0,0.0,0.0,0.0,0.0,0.0,3.2597,3.1983,3.2131,3.3312,3.3573,3.4015,3.4773,3.5691,3.6195,3.6274,3.6274,3.6352,3.6492,3.5769,3.5464,3.5417,3.4732,3.4418,3.4282,3.2407,3.1786,3.2011,3.1582,3.0673,2.9604,2.9368,2.9584,3.0015,0.0,0.0,0.0,0.0,0.0,0.0,0.0,0.0,0.0,0.0,0.0,3.6316,3.6111,3.8907,4.0636,4.0251,4.0075,3.835,3.447,3.2338,2.9777,2.6562,2.5121,2.4953,2.6127,3.0473,3.4272,3.7355,3.8226,3.835,3.7801,3.7767,3.7175,3.618,3.6032,3.427,3.1368,3.0665,2.8987,2.6581,2.4143,0.0,0.0,0.0,0.0,0.0,0.0,0.0,0.0,0.0,0.0,0.0,0.0,0.0,0.0,0.0,0.0,0.0,0.0,0.0,0.0,0.0,0.0,0.0,0.0,0.0,0.0,0.0,0.0,0.0,0.0,0.0,0.0,0.0,0.0,0.0,0.0,0.0,0.0,3.4326,3.5821,0.0,0.0,0.0,0.0,3.1925,3.2051,3.2658,3.3772,3.413,3.4817,3.5966,3.6214,3.6322,3.6384,3.6461,3.6492,3.6492,3.6492,3.6492,3.6492,3.646,3.6429,3.6429,3.6383,3.6352,3.6211,3.4316,3.3562,3.3411,3.1771,3.1228,3.1213,2.9814,3.0756,3.2742,0.0,0.0,0.0,0.0,0.0,0.0,0.0,0.0,3.2588,3.2721,3.5227,3.6946,3.6826,4.1068,4.3803,4.3481,4.5106,4.458,4.0908,3.7194,3.3684,3.0442,2.7378,2.6975,2.9596,3.4235,3.7222,3.8451,3.9849,4.0366,4.0037,3.9434,3.8376,3.6974,3.6884,3.5631,3.3561,3.3048,3.1374,2.8963,2.7543,2.5296,0.0,0.0,0.0,0.0,0.0,0.0,0.0,0.0,0.0,0.0,0.0,0.0,0.0,0.0,0.0,0.0,0.0,0.0,0.0,0.0,0.0,0.0,0.0,0.0,0.0,0.0,0.0,0.0,0.0,0.0,0.0,0.0,0.0,0.0,0.0,0.0,0.0,3.5507,3.6174,0.0,3.5609,3.5379,3.4895,3.4019,3.4769,3.5274,3.5385,3.5523,3.5845,3.6367,3.646,3.6445,3.6305,3.6305,3.6305,3.6305,3.6305,3.6383,3.6492,3.6492,3.6492,3.6492,3.6492,3.6492,3.646,3.5769,3.5497,3.5454,3.4811,3.4634,3.4651,3.4121,3.4409,3.5034,0.0,0.0,0.0,0.0,0.0,0.0,0.0,0.0,3.3248,3.4143,3.6817,3.8998,3.9907,4.4106,4.6832,4.6769,4.8457,4.7555,4.2843,3.9421,3.5625,3.1266,2.9366,3.0472,3.4875,3.7506,3.9386,4.0555,4.1161,4.1466,4.1415,4.0507,3.9325,3.7891,3.787,3.6827,3.5119,3.4832,3.3526,3.1446,2.9962,2.7257,2.3996,0.0,0.0,0.0,0.0,0.0,0.0,0.0,0.0,0.0,0.0,0.0,0.0,0.0,0.0,0.0,0.0,0.0,0.0,0.0,0.0,0.0,0.0,0.0,0.0,0.0,0.0,0.0,0.0,0.0,0.0,0.0,0.0,0.0,0.0,3.373,3.5361,3.6244,3.6808,3.7058,3.688,3.6717,3.6458,3.6036,3.6787,3.7145,3.6814,3.6662,3.6631,3.6693,3.6492,3.632,3.6148,3.6148,3.6148,3.6148,3.6179,3.6274,3.6383,3.646,3.6245,3.583,3.6292,3.623,3.5845,3.6307,3.6492,3.6492,3.6492,3.6492,3.6492,3.6414,3.6305,3.6164,0.0,0.0,0.0,0.0,0.0,0.0,0.0,3.2979,3.3988,3.6775,3.9675,4.2514,4.5233,4.7893,4.9617,4.9971,4.9769,4.6751,3.9975,3.8665,3.5299,2.8887,3.1003,3.5284,4.1597,4.0112,4.0744,4.3724,4.2142,4.1471,4.1678,4.0898,3.9969,3.8943,3.8918,3.7849,3.605,3.6042,3.5301,3.393,3.1123,2.8709,2.6555,0.0,0.0,0.0,0.0,0.0,0.0,0.0,0.0,0.0,0.0,0.0,0.0,0.0,0.0,0.0,0.0,0.0,0.0,0.0,0.0,0.0,0.0,0.0,0.0,0.0,0.0,0.0,0.0,0.0,0.0,0.0,0.0,0.0,3.2502,3.511,3.7002,3.664,3.7871,3.8564,3.8101,3.7933,3.7863,3.7851,3.7962,3.8015,3.8015,3.7571,3.7247,3.7021,3.6477,3.6088,3.5914,3.6006,3.6005,3.6005,3.6116,3.6179,3.6196,3.6383,3.5768,3.4643,3.5922,3.5753,3.4659,3.5953,3.6492,3.6492,3.6492,3.6492,3.646,3.6274,3.6196,3.6133,0.0,0.0,0.0,0.0,0.0,0.0,0.0,3.2787,3.2916,3.3712,3.8088,4.1305,4.1735,4.6147,4.9368,5.0092,5.0081,4.8514,4.4897,4.145,3.7082,3.1569,3.3696,3.6678,4.0206,4.0851,4.1524,4.2281,4.1102,4.0821,4.1408,4.1176,4.0665,3.9914,3.9709,3.8719,3.7131,3.6862,3.6241,3.5284,3.3147,3.0989,2.8897,0.0,0.0,0.0,0.0,0.0,0.0,0.0,0.0,0.0,0.0,0.0,0.0,0.0,0.0,0.0,0.0,0.0,0.0,0.0,0.0,0.0,0.0,0.0,0.0,0.0,0.0,0.0,0.0,0.0,0.0,0.0,3.5194,3.6637,3.638,3.711,3.8059,3.9,3.947,3.9662,3.9532,3.9506,3.9295,3.8849,3.8849,3.8668,3.8234,3.663,3.5658,3.5518,3.5425,3.5026,3.42,3.5843,3.6368,3.5784,3.5816,3.5911,3.6068,3.6211,3.6075,3.5753,3.6291,3.6276,3.5968,3.6338,3.6492,3.6492,3.6352,3.6274,3.6274,3.6116,3.5958,3.5619,0.0,0.0,0.0,0.0,0.0,0.0,0.0,3.2884,3.3122,3.4129,3.8672,4.1913,4.2086,4.6818,5.0138,5.0496,5.025,4.841,4.4487,4.0095,3.7437,3.6988,3.7995,3.9764,4.2369,4.2732,4.276,4.2449,4.154,4.1361,4.1925,4.1525,4.1189,4.0867,4.0669,3.9508,3.7699,3.7694,3.6979,3.5712,3.4836,3.2818,3.033,2.9599,2.8223,2.6645,2.6505,2.6512,2.6436,2.5259,0.0,0.0,0.0,0.0,0.0,0.0,0.0,0.0,0.0,0.0,0.0,0.0,0.0,0.0,0.0,0.0,0.0,0.0,0.0,0.0,0.0,0.0,0.0,0.0,3.6197,3.8163,3.8807,3.8868,3.9116,3.991,4.0062,4.0138,4.0188,4.0188,4.007,3.9756,3.9731,3.9584,3.9236,3.7807,3.6455,3.5319,3.6026,3.5604,3.3897,3.6137,3.6874,3.6087,3.6165,3.6086,3.5863,3.6116,3.589,3.5385,3.6168,3.6168,3.5722,3.6261,3.6492,3.6492,0.0,0.0,0.0,0.0,3.5958,3.5664,0.0,0.0,0.0,0.0,0.0,0.0,0.0,3.3109,3.3951,3.6573,4.0434,4.3428,4.4705,4.8837,5.1438,5.1271,5.0328,4.7236,4.1374,3.6853,3.7087,4.3071,4.2482,4.3324,4.6108,4.4849,4.3901,4.3391,4.2564,4.2278,4.2533,4.1678,4.1419,4.1672,4.1481,4.0219,3.8255,3.856,3.7603,3.5865,3.6111,3.437,3.1547,3.0733,2.932,2.7709,2.7386,2.743,2.7633,2.7468,0.0,0.0,0.0,0.0,0.0,0.0,0.0,0.0,0.0,0.0,0.0,0.0,0.0,0.0,0.0,0.0,0.0,0.0,0.0,0.0,0.0,0.0,0.0,0.0,3.6905,3.8751,4.0175,4.0238,4.0113,3.9977,4.0062,4.0188,4.0313,4.0313,4.0362,4.051,4.0534,4.0534,4.0541,3.98,0.0,0.0,0.0,3.6999,3.4659,3.6885,3.7616,3.6767,3.695,3.6677,3.5959,3.6274,3.5723,3.4603,3.6014,3.5906,3.4828,3.5999,3.66,3.6708,3.6538,3.6492,3.6507,3.6106,3.6059,3.618,0.0,0.0,0.0,0.0,0.0,0.0,0.0,3.3128,3.3843,3.7731,4.0787,4.3522,4.5952,4.9415,5.1905,5.2779,5.0248,4.6779,4.2443,3.8072,3.8022,4.3309,4.2649,4.336,4.5909,4.4238,4.3135,4.2773,4.1751,4.1197,4.1107,4.0745,4.0901,4.1445,4.0988,4.0787,4.0692,3.9292,3.8463,3.7962,3.6695,3.5748,3.4993,3.4503,3.3794,3.3059,3.2719,3.2436,3.2058,3.091,3.0981,3.1644,3.2383,0.0,0.0,0.0,0.0,0.0,0.0,0.0,0.0,0.0,0.0,0.0,0.0,0.0,0.0,0.0,0.0,0.0,0.0,0.0,0.0,3.8096,3.943,4.0539,4.0763,4.058,4.0395,4.0387,4.0412,4.0419,4.0461,4.0461,4.051,4.0648,4.0673,4.0721,4.0817,3.9026,3.7737,3.7202,3.7529,3.7176,3.6035,3.8236,3.8842,3.7882,3.7926,0.0,3.7397,3.7587,3.7239,3.656,3.7023,3.6796,3.6122,3.6384,3.7126,3.7993,3.6754,3.6507,3.6612,3.5091,3.5744,3.7234,0.0,0.0,0.0,0.0,0.0,0.0,0.0,3.35,3.3348,3.5728,3.8752,4.1514,4.3658,4.5799,4.7993,5.0293,4.7273,4.4706,4.3473,4.1647,4.2174,4.5708,4.5347,4.5337,4.5944,4.4801,4.3762,4.2841,4.2285,4.1733,4.1216,4.1034,4.1299,4.1936,4.1602,4.1234,4.0845,4.0198,3.9477,3.8763,3.8285,3.8027,3.7778,3.6502,3.584,3.5613,3.5753,3.568,3.5407,3.4688,3.4718,3.5218,3.6174,3.5555,3.4194,0.0,0.0,0.0,0.0,0.0,0.0,0.0,0.0,0.0,0.0,0.0,0.0,0.0,0.0,3.7862,3.7085,0.0,3.7624,3.8602,3.9273,4.0083,4.1336,4.1335,4.0984,4.0468,4.0461,4.0534,4.0583,4.0583,4.0673,4.0793,4.0793,4.084,4.0912,3.9916,3.878,3.7538,3.8711,3.8594,3.6973,3.9184,3.9834,3.8933,3.8879,3.8608,3.8165,3.8237,3.8113,3.7758,3.7978,3.7793,3.7417,3.7794,3.8146,3.8366,3.7951,3.7935,3.7984,3.6681,3.701,3.7935,0.0,0.0,0.0,0.0,0.0,0.0,0.0,3.3587,3.3059,3.4207,3.7032,3.9593,4.1295,4.239,4.3784,4.5755,4.3553,4.2545,4.3694,4.4715,4.6188,4.8256,4.8071,4.7363,4.6176,4.5595,4.4692,4.3452,4.3345,4.2779,4.1832,4.1687,4.1843,4.2273,4.2174,4.1585,4.0656,4.0874,4.0314,3.9336,3.9696,3.9842,3.9674,3.8028,3.7242,3.7059,3.7502,3.7607,3.7545,3.7665,3.7814,3.8146,3.9272,3.9035,3.7774,3.5062,3.4886,0.0,0.0,0.0,0.0,0.0,0.0,0.0,0.0,0.0,3.999,4.0202,3.9849,3.9316,3.8725,3.7731,3.7542,3.9186,3.9287,3.9889,4.2,4.2132,4.1711,4.0825,4.0741,4.0734,4.0745,4.0745,4.0793,4.0935,4.0935,4.0942,4.0965,4.1053,4.0227,3.8295,4.0106,4.0193,3.8221,4.0032,4.0611,3.9935,3.986,3.9502,3.892,3.9013,3.8923,3.8706,3.8701,3.8541,3.8355,3.8938,3.8979,3.8751,3.9337,3.9732,3.9834,3.8828,3.8546,3.8657,0.0,0.0,0.0,0.0,0.0,0.0,0.0,0.0,3.3646,3.698,3.8331,3.9888,4.2281,4.3643,4.3088,3.9902,4.076,4.1618,4.1886,4.4211,4.6656,4.9143,4.8431,4.7586,4.6724,4.579,4.5105,4.4704,4.4455,4.3638,4.2322,4.2121,4.1867,4.1529,4.151,4.1636,4.1842,4.0822,4.054,4.0682,3.9607,3.951,3.9994,4.0236,3.9555,3.8446,3.8254,3.7977,3.7753,3.8225,3.8871,3.9566,4.0246,4.0766,4.0679,3.8395,0.0,3.6788,3.2436,2.9947,2.8783,2.9529,3.4456,3.9244,0.0,0.0,4.5114,4.1534,4.2959,4.4232,4.2228,4.2117,4.2377,4.2504,4.2523,4.265,4.2941,4.2659,4.2404,4.2266,4.1846,4.1378,4.0918,4.0888,4.0935,4.107,4.107,4.1099,4.1163,4.1186,4.1064,4.0781,4.1047,4.1064,4.0781,4.1041,4.1024,4.0758,4.0871,4.0752,4.0451,4.0573,4.0343,3.9783,3.9043,3.8541,3.8322,3.8403,3.907,4.0078,4.0178,4.0927,4.1742,3.981,3.9444,3.9901,0.0,0.0,0.0,0.0,0.0,0.0,0.0,0.0,0.0,3.4625,3.4579,3.5805,3.982,4.0443,3.8627,3.377,3.6426,3.9089,4.0792,4.3417,4.6026,4.8529,4.7741,4.6868,4.6052,4.5561,4.4936,4.4197,4.3423,4.2763,4.2218,4.1514,4.1451,4.1928,4.1928,4.1986,4.2065,4.1513,4.1372,4.1401,4.0798,4.073,4.096,4.1169,4.0891,4.0176,3.8699,3.8089,0.0,3.8177,3.8488,3.9097,4.0958,4.063,3.9437,3.877,3.7453,0.0,3.409,3.444,3.506,3.4179,3.8086,4.2283,4.2752,4.4318,4.5386,4.4259,4.4543,4.4785,4.4035,4.2339,4.1571,4.3206,4.2284,4.1875,4.3359,4.3424,4.3213,4.2941,4.1468,4.0186,3.9448,4.0308,4.0383,3.9116,4.0239,4.1006,4.1018,4.1105,4.1129,4.1129,4.118,4.1209,4.1209,4.1209,4.1203,4.1198,4.1175,4.1175,4.1221,4.1198,4.1001,4.0659,4.0028,3.9671,3.9601,3.9867,4.0064,4.0234,4.0661,4.092,4.0984,4.0522,4.0507,4.0679,0.0,0.0,0.0,0.0,0.0,0.0,0.0,0.0,0.0,0.0,3.1487,3.2589,3.612,3.5841,3.3906,3.0226,3.3535,3.6986,3.978,4.2691,4.5346,4.7682,4.7079,4.6321,4.5523,4.537,4.493,4.4176,4.3011,4.2389,4.2265,4.137,4.1341,4.2024,4.2218,4.2225,4.21,4.203,4.1858,4.1587,4.1604,4.1498,4.1408,4.1542,4.12,4.0411,3.8725,3.8111,3.8006,3.7374,3.7584,3.8347,3.9793,3.9323,3.8135,3.7684,3.574,3.4,3.534,3.7345,3.8957,3.852,4.1685,4.4949,4.5092,4.5163,4.5341,4.5864,4.5268,4.4669,4.4675,4.2498,4.1387,4.349,4.2337,4.181,4.3669,4.3929,4.3446,4.2141,4.0577,3.8729,3.647,3.8601,3.9645,3.8513,3.998,4.0912,4.0912,4.0982,4.1047,4.1047,4.1088,4.1117,4.1117,4.1117,4.118,4.133,4.1249,4.1323,4.1538,4.1493,4.1363,4.1186,4.0836,4.0614,4.0519,4.0866,4.0654,4.018,4.0916,4.0865,4.0485,4.1001,4.1068,4.0815,0.0,0.0,0.0,0.0,0.0,0.0,0.0,0.0,0.0,0.0,0.0,0.0,0.0,3.0351,2.9856,3.0594,3.3236,3.5978,3.8661,4.2154,4.4968,4.6846,4.6772,4.6321,4.5523,4.537,4.5328,4.536,4.414,4.3303,4.2768,4.2281,4.1795,4.1373,4.2007,4.2225,4.21,4.203,4.1626,4.1059,4.1453,4.1277,4.0873,4.1408,4.02,3.8199,3.8128,3.8111,3.776,3.5548,3.6268,3.7785,3.59,3.6825,0.0,3.5246,3.2796,3.1884,3.5864,3.6227,3.6292,3.9812,4.3971,4.6931,4.5902,4.6073,4.6201,4.5321,4.5103,4.4829,4.4005,4.3814,4.3807,4.3881,4.3886,4.3912,4.3986,4.4005,4.274,3.9342,3.9337,3.738,3.1682,3.535,3.8841,4.0659,4.086,4.0912,4.0912,4.0894,4.0912,4.0912,4.0912,4.0912,4.0912,4.0912,4.0982,4.1093,4.1157,4.1255,4.1403,4.1538,4.1453,4.1209,4.1169,4.0907,4.051,4.0527,4.0337,4.018,4.0916,4.1187,4.117,4.1187,4.0747,4.013,0.0,0.0,0.0,0.0,0.0,0.0,0.0,0.0,0.0,0.0,0.0,0.0,0.0,0.0,0.0,0.0,3.0976,3.3257,3.7154,3.9035,4.1549,4.5028,4.5611,4.5736,4.5506,4.5369,4.5307,4.5328,4.3455,4.2639,4.2833,4.1188,4.0329,4.0151,4.1227,4.1426,4.099,4.1279,4.1225,4.0914,4.0642,4.0594,4.0535,3.9247,3.882,3.8427,0.0,3.3565,3.3424,3.2838,3.3035,3.3776,3.5251,3.4884,3.3462,3.1225,3.2487,3.4579,3.4397,3.703,4.0006,4.0811,4.3643,4.6004,4.5117,4.4975,4.491,4.4453,4.3055,4.1804,4.1462,4.0122,3.961,4.1304,4.022,4.017,4.3065,4.0796,3.9454,4.1104,3.8761,0.0,0.0,3.8084,3.7638,3.6766,3.9326,4.0912,4.0912,4.0912,4.0912,4.0912,4.0912,4.0912,4.0912,4.0912,4.0971,4.1105,4.1346,4.1475,4.1538,4.1582,4.156,4.1453,4.1277,4.1024,4.0752,4.0583,4.032,4.013,4.0383,4.046,4.046,4.046,4.0316,4.0096,0.0,0.0,0.0,0.0,0.0,0.0,0.0,0.0,0.0,0.0,0.0,0.0,0.0,0.0,0.0,0.0,0.0,3.1092,3.5242,3.6006,3.795,4.1673,4.2307,4.2604,4.2652,4.3502,4.394,4.3939,4.3026,4.2534,4.2427,4.0895,3.9804,3.9157,4.0709,4.0758,3.9713,4.0391,4.0389,3.9877,3.8822,3.8863,3.9341,3.7352,3.6852,0.0,3.3389,3.1577,3.0769,3.0422,3.0823,3.1684,3.3009,3.2038,3.0552,3.1366,3.3215,3.5154,3.5913,3.9052,4.2208,4.2629,4.4215,4.5457,4.4653,4.4385,4.4255,4.4101,4.2824,4.1438,4.044,3.9022,3.8511,4.0141,3.9045,3.9299,4.2971,4.0809,3.942,4.0908,3.8714,3.7621,0.0,0.0,3.7361,3.543,3.7793,3.9295,3.9272,3.9272,3.9773,4.0877,4.0847,4.0864,4.0912,4.0864,4.0924,4.1082,4.1346,4.1475,4.1538,4.1538,4.124,4.0771,4.1163,4.089,4.0182,4.0569,4.0558,4.0313,4.0246,4.0246,4.0246,4.0246,4.0246,4.0238,0.0,0.0,0.0,0.0,0.0,0.0,0.0,0.0,0.0,0.0,0.0,0.0,0.0,0.0,0.0,0.0,0.0,0.0,3.3059,3.3389,3.463,3.7233,3.7528,3.7557,3.7386,3.9996,4.1294,4.1149,4.2533,4.2567,4.1356,4.0967,3.9794,3.8145,4.0098,3.9896,3.8143,3.9126,3.8954,3.7853,3.6041,3.6173,3.726,3.562,3.4351,3.3476,3.3424,3.2035,2.9945,2.8541,2.9805,3.1632,2.9825,2.9063,2.987,3.509,3.4778,3.4038,3.9894,4.186,4.2786,4.5092,4.5617,4.5367,4.458,4.4373,4.4266,4.4061,4.3961,4.3135,0.0,0.0,4.0011,4.0188,4.0132,4.0917,4.3417,4.3451,4.2007,0.0,0.0,0.0,0.0,0.0,0.0,3.6585,3.6645,3.6578,3.6237,3.6418,3.7892,4.0808,4.0769,4.0769,4.0912,4.0793,4.084,4.1093,4.118,4.1295,4.1403,4.1403,4.0661,3.941,4.095,4.0582,3.9032,4.0504,4.0953,4.0697,4.0558,4.051,4.051,4.051,4.051,4.0468,0.0,0.0,0.0,0.0,0.0,0.0,0.0,0.0,0.0,0.0,0.0,0.0,0.0,0.0,0.0,0.0,0.0,0.0,3.1574,3.3287,3.4929,3.6511,3.8267,3.8172,3.5902,3.8289,3.8508,3.636,3.722,3.7349,3.6766,3.5511,3.4417,3.3523,3.4651,3.4621,3.3761,3.4512,3.456,3.4043,3.3278,3.3356,3.3683,3.1617,3.1776,3.2853,3.0611,3.0373,3.0859,2.949,3.0622,3.2904,3.4879,3.5247,3.4867,3.4398,3.6484,3.8869,3.8573,4.1269,4.4316,4.4947,4.5053,4.4944,4.4683,4.4524,4.3905,4.1987,4.0064,3.7958,0.0,3.3503,3.347,3.725,3.6308,0.0,4.0126,3.908,0.0,3.8234,0.0,3.9092,3.9911,4.0712,0.0,3.6299,3.8506,3.8584,3.5374,3.8157,4.0187,4.0877,4.0864,4.0864,4.0912,4.096,4.1019,4.1088,4.1368,4.1515,4.156,4.156,4.1349,4.1021,4.1407,4.1221,4.0624,4.0967,4.0953,4.0697,4.0558,4.051,4.051,4.051,4.051,4.051,0.0,0.0,0.0,0.0,0.0,0.0,0.0,0.0,0.0,0.0,0.0,0.0,0.0,0.0,0.0,0.0,0.0,0.0,0.0,3.1217,3.224,3.2981,3.4622,3.4561,3.2568,3.5066,3.5744,3.4423,3.5244,3.556,3.5385,3.4185,3.2912,3.1661,3.2734,3.2496,3.1329,3.2177,3.2285,0.0,0.0,3.0729,3.1432,2.9248,2.9899,3.1771,3.011,3.0098,0.0,0.0,0.0,3.3873,3.7723,3.839,3.7777,3.8087,3.9625,4.112,4.0753,4.2726,4.4883,4.4858,4.4815,4.4449,4.3309,4.2961,4.2141,3.9589,3.7935,3.6159,3.3657,3.2059,3.239,0.0,0.0,0.0,3.9356,3.8439,3.7706,0.0,3.8642,0.0,4.136,4.16,4.0577,3.8066,3.8502,3.7754,3.5191,3.7295,3.9316,4.086,4.084,4.0817,4.0817,4.1001,4.11,4.11,4.1323,4.1453,4.1515,4.1515,4.1147,4.0595,4.1284,4.1063,4.0197,4.0839,4.0976,4.0769,4.0631,4.0607,4.068,4.068,4.068,4.068,0.0,0.0,0.0,0.0,0.0,0.0,0.0,0.0,0.0,0.0,2.9396,0.0,0.0,0.0,0.0,0.0,0.0,0.0,0.0,0.0,2.8919,2.9163,2.9891,3.0009,2.9354,3.173,3.3197,3.3636,3.4487,3.4934,3.4924,3.4213,3.2842,3.1064,3.2187,3.163,2.9901,3.0824,3.0909,3.0254,2.8297,2.8538,2.9857,0.0,0.0,0.0,3.0767,0.0,0.0,0.0,3.6667,3.4825,3.948,4.0141,3.9825,4.2861,4.2761,4.2056,4.3825,4.4587,4.487,4.484,4.4764,4.4114,4.1927,4.1099,4.0084,3.7546,0.0,3.595,3.3784,3.3425,3.4285,3.6778,0.0,3.7318,3.9175,3.9374,3.921,3.8833,3.8778,3.941,4.1004,4.0791,4.0491,4.0355,3.7807,3.621,3.6142,3.6156,3.762,4.0808,4.0793,4.0721,4.0721,4.0976,4.1111,4.1175,4.1221,4.1295,4.1426,4.1426,4.0714,3.9606,4.0959,4.0612,3.9227,4.0516,4.0976,4.0864,4.0745,4.0769,4.0888,4.0894,4.0912,4.0912,0.0,0.0,0.0,0.0,0.0,0.0,0.0,0.0,0.0,0.0,2.8848,2.8397,0.0,0.0,0.0,0.0,0.0,0.0,0.0,0.0,0.0,3.0997,3.1635,3.1714,3.1169,3.1632,3.147,3.0657,3.0826,3.0761,3.0505,2.9884,2.9368,2.8982,2.8689,2.8323,2.799,2.817,2.8088,2.7811,2.7597,2.7618,2.7731,0.0,0.0,0.0,0.0,0.0,0.0,0.0,3.6872,3.6615,4.2009,4.3612,4.3179,4.1437,4.2468,4.3825,4.2193,4.3245,4.4821,4.487,4.4783,4.4612,4.4197,4.2442,0.0,0.0,3.5498,3.4103,3.4317,3.4366,3.5195,3.7751,3.8408,3.7742,3.5283,3.7913,3.9248,0.0,3.782,3.9549,4.1856,3.9716,0.0,3.9979,3.8809,3.8646,4.0025,4.0106,4.0354,4.0877,4.0888,4.0864,4.0864,4.1023,4.1233,4.1493,4.1405,4.1448,4.156,4.156,4.1442,4.1196,4.1241,4.1075,4.0775,4.0767,4.0745,4.0721,4.0697,4.0721,4.0745,4.0864,4.0912,4.0912,0.0,0.0,0.0,0.0,0.0,0.0,0.0,2.925,2.8695,2.8763,2.8205,2.7893,2.8168,2.8196,2.8209,0.0,0.0,0.0,0.0,0.0,0.0,0.0,3.0764,3.0788,3.0574,3.0557,3.0483,3.0312,0.0,2.9314,2.9811,2.8984,2.8462,2.8213,2.783,2.7545,2.7379,2.6978,2.672,2.6532,2.6698,2.6654,0.0,0.0,0.0,0.0,0.0,0.0,0.0,0.0,3.531,3.4927,4.1379,4.3885,4.3807,4.0591,4.188,4.3844,4.1392,4.2712,4.4815,4.4833,4.4796,4.4071,4.1434,0.0,0.0,0.0,3.2828,3.2195,3.3047,3.3197,3.4476,3.8392,3.8486,3.7956,3.769,3.8658,3.8937,3.7661,3.8158,3.8906,3.9731,3.8093,3.736,3.8265,3.7531,3.7912,3.9956,4.0643,4.0959,4.0912,4.0912,4.0912,4.0912,4.0971,4.1123,4.1394,4.1393,4.1471,4.1604,4.1453,4.1408,4.1386,4.1157,4.032,3.9249,4.0199,3.9898,3.8933,4.0065,4.0576,4.0697,4.0769,4.084,4.0912,0.0,0.0,0.0,0.0,0.0,0.0,0.0,2.7788,2.7142,2.7774,2.7426,2.7299,2.7742,2.7965,2.7996,0.0,0.0,0.0,0.0,0.0,0.0,0.0,0.0,0.0,0.0,0.0,0.0,3.0377,2.9261,0.0,0.0,0.0,0.0,0.0,2.7742,2.7486,2.7143,2.6543,2.6174,0.0,0.0,2.6336,0.0,0.0,0.0,0.0,0.0,0.0,0.0,0.0,3.3789,3.3273,3.9324,4.1701,4.1829,3.975,4.1009,4.2794,4.1511,4.2873,4.4661,4.4757,4.4776,4.3605,3.9216,3.7735,0.0,3.2423,3.1162,3.1143,3.2469,3.271,3.4198,0.0,3.8081,3.777,4.0072,3.9157,3.8438,0.0,3.8707,0.0,3.8248,3.7111,3.6663,3.7391,3.6939,3.7466,3.9369,4.0395,4.0912,4.0912,4.0912,4.0912,4.0912,4.0913,4.099,4.118,4.1295,4.1426,4.156,4.13,4.1209,4.1186,4.0942,3.9479,3.7465,3.9587,3.9129,3.7319,3.9518,4.0527,4.0697,4.0721,4.0817,4.0912,0.0,0.0,0.0,0.0,0.0,0.0,0.0,2.6858,2.6657,2.6741,2.6438,2.6268,2.6455,2.7238,2.7704,0.0,0.0,0.0,0.0,0.0,0.0,0.0,0.0,0.0,0.0,0.0,0.0,2.934,2.9803,0.0,0.0,0.0,0.0,0.0,0.0,2.7095,2.6813,2.6638,0.0,0.0,0.0,0.0,0.0,0.0,0.0,0.0,0.0,0.0,3.029,0.0,0.0,3.4252,3.6441,3.6417,3.6067,3.8548,0.0,0.0,4.2998,4.3879,4.4184,4.4595,4.4659,4.4065,4.1954,0.0,3.738,3.5153,3.2796,3.2023,3.4834,3.5351,3.6173,0.0,0.0,3.6823,3.765,3.7386,3.7719,3.9247,0.0,0.0,4.0446,3.7979,3.7197,3.9363,3.9631,4.0006,4.07,4.0825,4.0912,4.0912,4.0912,4.0912,4.0912,4.0894,4.0982,4.1117,4.118,4.1295,4.1426,4.1272,4.1209,4.1186,4.0734,3.9316,3.746,3.9491,3.9051,3.7342,3.9733,4.0673,4.0721,4.084,4.0888,4.0912,0.0,0.0,0.0,0.0,0.0,0.0,2.6066,2.589,2.5762,2.5603,2.5605,2.5587,2.5454,2.5969,2.6319,2.6335,0.0,0.0,0.0,0.0,0.0,0.0,0.0,0.0,0.0,0.0,2.7911,2.7827,2.812,0.0,0.0,0.0,0.0,0.0,0.0,2.5948,2.5751,2.5561,0.0,0.0,0.0,0.0,0.0,0.0,0.0,0.0,0.0,0.0,2.9554,3.1698,0.0,0.0,3.2526,3.1952,0.0,0.0,3.747,3.9768,3.969,4.2081,4.4715,4.5176,4.5365,4.45,4.0863,0.0,3.6924,3.3662,3.2126,3.1902,3.3653,3.3991,3.486,3.7426,0.0,0.0,4.0053,3.9713,3.9919,4.2131,4.2031,0.0,0.0,3.8417,3.7549,3.7807,3.7854,3.8745,4.0791,4.0912,4.0912,4.0912,4.0912,4.0912,4.0912,4.0982,4.1076,4.1175,4.1152,4.1198,4.1272,4.0931,4.083,4.0894,4.0534,3.8429,3.5522,3.8999,3.8344,3.5527,3.9179,4.0624,4.0697,4.0769,4.084,4.0912,0.0,0.0,0.0,0.0,0.0,2.5454,2.5266,2.5166,2.5025,2.4815,2.4867,2.4831,2.4643,2.4776,2.4921,2.5003,2.5306,0.0,0.0,0.0,0.0,0.0,0.0,0.0,0.0,0.0,2.6704,2.6573,2.6826,2.6699,0.0,0.0,2.5668,2.5367,0.0,0.0,0.0,0.0,0.0,0.0,0.0,0.0,0.0,0.0,0.0,0.0,0.0,0.0,0.0,0.0,0.0,0.0,0.0,0.0,0.0,0.0,3.5731,3.8781,3.8357,4.158,4.5223,4.5847,4.5538,4.4008,0.0,0.0,3.6112,3.2563,3.1779,3.1911,3.2479,3.2635,3.3513,3.6123,3.5793,3.6628,4.0687,4.0394,4.0615,4.2904,0.0,4.2198,4.0225,3.929,3.8464,3.7631,3.7676,3.8661,4.0791,4.0912,4.0912,4.0912,4.0912,4.0912,4.0912,4.1047,4.1123,4.1157,4.1123,4.0758,4.0172,4.0401,4.0182,3.9671,4.0073,3.8199,3.5116,3.8738,3.815,3.5307,3.8941,4.0517,4.0769,4.0769,4.0817,4.0912,0.0,0.0,0.0,0.0,0.0,0.0,2.4958,2.4735,2.4569,2.4518,2.4229,2.4003,2.4003,2.3782,2.3616,2.3616,2.4592,0.0,0.0,0.0,0.0,0.0,0.0,0.0,0.0,0.0,2.6291,2.5803,2.6492,2.6024,2.4531,2.4648,2.4201,2.3253,0.0,0.0,0.0,0.0,0.0,0.0,0.0,0.0,0.0,0.0,0.0,0.0,0.0,0.0,0.0,0.0,0.0,0.0,0.0,0.0,0.0,0.0,3.4727,3.7202,4.0709,4.3396,4.5441,4.6448,4.48,4.2363,0.0,3.7585,3.5092,3.2854,3.2334,3.2249,3.2126,3.2108,3.2857,3.5151,3.5614,0.0,3.7831,3.8038,3.866,0.0,4.0438,4.0714,4.1683,4.0801,4.0154,4.0073,4.0545,4.0877,4.0912,4.0912,4.0912,4.0912,4.0912,4.0912,4.0912,4.1047,4.1093,4.1093,4.1093,3.9903,3.7801,3.9673,3.9262,3.7262,3.9229,3.8948,3.7212,3.8908,3.8749,3.7619,3.9336,4.0385,4.0912,4.0912,4.0912,4.0912,0.0,0.0,0.0,0.0,0.0,0.0,0.0,2.4564,2.4302,2.3702,2.3839,2.3797,2.3304,2.3465,2.3588,2.3538,2.3831,0.0,0.0,0.0,0.0,0.0,0.0,0.0,0.0,2.4473,2.4277,2.3622,2.4267,2.4109,2.3134,2.3308,2.3228,2.2937,2.2977,2.2978,0.0,0.0,0.0,0.0,0.0,0.0,2.6578,0.0,0.0,0.0,0.0,0.0,0.0,0.0,0.0,0.0,0.0,0.0,0.0,3.1258,3.3054,0.0,3.6336,3.8516,4.0568,4.116,4.0872,3.9841,3.7578,3.6145,3.4661,3.2455,3.1966,3.1948,3.1966,3.2055,3.2875,3.5248,3.5597,3.6893,0.0,0.0,0.0,4.343,4.1841,4.066,4.0879,3.7456,3.6005,3.7911,3.6312,3.6512,3.9433,3.8785,3.9086,4.0836,4.0912,4.0912,4.0912,4.0935,4.0959,4.0959,4.0793,3.9542,3.7477,3.9371,3.8909,3.6743,3.8857,3.8422,3.6376,3.8476,3.8144,3.6547,3.8655,3.9558,3.9782,4.0145,4.0269,4.0336,0.0,0.0,0.0,0.0,0.0,0.0,0.0,2.4374,2.4151,2.3515,2.3717,2.3754,2.329,2.3465,2.3573,2.3538,2.3238,0.0,0.0,0.0,0.0,0.0,0.0,0.0,2.3445,2.3985,2.3914,2.3248,2.3666,2.3438,2.2621,2.2777,2.2844,2.2804,2.2844,2.2884,0.0,0.0,0.0,0.0,0.0,0.0,2.583,0.0,0.0,0.0,0.0,0.0,0.0,0.0,0.0,0.0,0.0,0.0,0.0,0.0,3.1712,3.2997,0.0,3.6578,3.8614,3.9099,3.87,0.0,3.625,3.4887,3.3529,3.2131,3.2547,3.2913,3.214,3.2841,3.3681,3.4294,3.5813,3.765,0.0,0.0,0.0,4.1243,4.0043,3.9364,3.9825,3.6683,3.5349,3.7037,3.5393,3.5461,3.8143,3.7528,3.7878,3.9596,4.0463,4.0683,4.0185,4.0552,4.0689,4.0549,4.0303,3.8894,3.6599,3.8606,3.8202,3.6074,3.8306,3.8427,0.0,3.8296,3.8103,3.7215,3.8393,3.9001,3.9259,3.9584,3.9697,3.9749,0.0,0.0,0.0,0.0,0.0,0.0,0.0,2.4202,2.4103,2.3797,2.3782,2.3782,2.3754,2.3631,2.353,2.3508,0.0,0.0,0.0,0.0,0.0,0.0,0.0,0.0,2.3172,2.4406,2.4752,2.4068,2.4163,2.3676,2.2671,2.2911,2.2964,2.2857,2.3004,2.3162,0.0,0.0,0.0,0.0,0.0,0.0,0.0,0.0,0.0,0.0,0.0,0.0,0.0,0.0,0.0,0.0,0.0,0.0,0.0,0.0,0.0,0.0,0.0,3.667,3.8561,3.9124,3.7576,3.5865,3.563,3.3702,0.0,3.212,3.389,3.4799,3.2807,3.4421,3.5246,3.2843,3.6295,3.845,3.6033,3.7047,0.0,0.0,3.6014,3.7172,3.8301,3.77,3.7176,3.7045,3.692,3.6862,3.6962,3.6911,3.7056,3.7441,3.943,3.9973,3.8946,3.9856,4.0071,3.9581,3.9519,3.7906,3.5101,3.7438,3.7292,3.5302,3.772,3.8816,3.8838,3.8298,3.8467,3.9001,3.8463,3.8574,3.9082,3.9125,3.9152,3.9135,0.0,0.0,0.0,0.0,0.0,0.0,0.0,0.0,0.0,0.0,2.3588,2.361,2.3157,2.2987,2.283,0.0,0.0,0.0,0.0,0.0,0.0,0.0,0.0,0.0,2.2604,2.346,2.3205,2.1773,2.2754,2.2566,2.1312,2.2665,2.3292,2.3291,2.3668,2.3872,0.0,0.0,0.0,0.0,0.0,0.0,0.0,0.0,0.0,0.0,2.7004,2.7253,0.0,0.0,0.0,0.0,0.0,0.0,0.0,0.0,3.041,3.0792,3.1702,0.0,3.2839,3.2986,3.2633,3.2256,0.0,3.1937,3.2189,3.4181,3.5059,3.5349,3.4957,3.6856,3.7647,3.5126,3.7266,3.8797,3.758,3.7974,0.0,3.5116,3.6121,3.6413,3.489,3.4652,3.4519,3.4407,3.4278,3.4607,3.558,3.4969,3.5056,3.6109,3.6137,3.6872,3.8363,3.851,3.759,3.5646,3.7502,3.6241,3.2459,3.661,3.721,3.5078,3.7321,3.8116,3.7831,3.7685,3.7743,3.7889,3.7743,3.7772,3.796,3.8367,3.8518,3.8574,0.0,0.0,0.0,0.0,0.0,0.0,0.0,0.0,0.0,0.0,0.0,2.2447,2.2159,2.2152,0.0,0.0,0.0,0.0,0.0,0.0,0.0,0.0,0.0,2.1825,2.1352,2.2207,2.2085,2.0955,2.164,2.1528,2.0677,2.1649,2.2176,2.2284,2.2819,2.3053,0.0,0.0,0.0,0.0,2.387,0.0,0.0,0.0,0.0,0.0,2.5692,2.612,0.0,2.6199,2.6294,2.6691,0.0,0.0,0.0,0.0,2.9936,3.01,3.0754,3.0952,3.1207,3.2315,3.185,3.1421,3.2615,0.0,3.2132,0.0,0.0,3.5402,3.5422,3.6568,3.7065,3.5715,3.631,3.7065,3.7443,3.7314,3.6305,3.398,3.3644,3.3263,3.239,3.3217,3.3736,3.3607,3.3477,3.3778,3.4649,3.4211,3.4429,3.5527,3.5212,3.5743,3.7319,3.7548,3.6393,3.3869,3.649,3.573,3.2127,3.5935,3.7058,3.5948,3.5915,3.6504,3.7399,3.6159,3.6397,3.751,3.751,3.751,3.7539,3.7844,3.7927,3.7985,0.0,0.0,0.0,0.0,0.0,0.0,0.0,0.0,0.0,0.0,0.0,0.0,0.0,0.0,0.0,0.0,0.0,0.0,0.0,0.0,0.0,0.0,2.1043,2.1106,2.0125,2.0991,2.1176,2.0609,2.071,2.0552,2.016,2.0493,2.078,2.106,2.159,2.1896,2.2032,2.2218,2.2573,2.3058,2.2967,0.0,0.0,0.0,0.0,0.0,0.0,0.0,0.0,2.5852,2.6313,2.691,2.7291,0.0,0.0,0.0,0.0,0.0,3.0503,3.0827,3.1463,3.3952,3.2848,3.1802,3.4286,0.0,0.0,0.0,0.0,0.0,3.5618,3.6412,0.0,3.5638,3.5027,3.5151,3.6474,3.6097,3.4905,3.2757,3.1325,3.0721,3.1149,3.2837,3.3896,3.3854,3.3714,3.382,3.427,3.43,3.4652,3.5414,3.5461,3.5749,3.6252,3.6835,3.5752,3.3166,3.5915,3.5647,3.2866,3.5543,3.6938,3.7128,3.4893,3.5296,3.732,3.5054,3.5455,3.751,3.751,3.751,3.751,3.751,3.751,3.751,0.0,0.0,0.0,0.0,0.0,0.0,0.0,0.0,0.0,0.0,0.0,0.0,0.0,0.0,0.0,0.0,0.0,0.0,0.0,0.0,0.0,1.9012,1.9996,2.0405,2.0122,2.0515,2.0269,1.9289,1.9807,1.9553,1.8679,2.0163,2.1143,2.1673,2.183,2.2113,2.2451,2.1959,2.2206,2.2889,2.2451,0.0,0.0,0.0,0.0,0.0,0.0,0.0,0.0,2.5508,2.5975,2.6206,2.6843,0.0,0.0,0.0,0.0,0.0,2.9696,3.0058,3.0978,3.3753,3.2664,3.1601,3.4079,3.288,0.0,0.0,0.0,0.0,0.0,4.1545,4.2509,3.6333,3.5888,3.6157,3.57,3.5946,3.54,3.3244,3.4324,3.4558,3.2765,3.3392,3.4079,3.4515,3.434,3.4494,3.5161,3.5196,3.5349,3.5655,3.583,3.5964,3.6058,3.6151,3.494,3.2471,3.5123,3.5223,3.3137,3.5751,3.7151,3.7419,3.7022,3.7114,3.7478,3.7065,3.7144,3.751,3.751,3.751,3.751,3.751,3.751,3.751,0.0,0.0,0.0,0.0,0.0,0.0,0.0,0.0,0.0,0.0,0.0,0.0,0.0,0.0,0.0,0.0,0.0,0.0,0.0,0.0,1.8541,1.8694,1.9081,1.9185,1.9034,1.8733,1.832,1.777,1.7768,1.7604,1.7257,1.8444,1.9531,2.0449,2.0409,2.0619,2.0953,2.0645,2.0858,2.1361,0.0,0.0,0.0,0.0,0.0,0.0,0.0,0.0,0.0,0.0,2.5674,2.6053,2.6266,0.0,0.0,0.0,0.0,0.0,2.94,3.0154,3.1701,3.5457,3.344,3.1901,3.7189,3.4372,0.0,0.0,0.0,0.0,0.0,0.0,3.8542,3.5659,3.8135,3.9673,3.7532,3.7357,3.6853,3.5251,3.5215,3.4673,3.3014,3.4111,3.5001,3.5174,3.5054,3.5233,3.5802,3.5826,3.6021,3.638,3.6492,3.6554,3.6554,3.6554,3.5122,3.2388,3.5168,3.5327,3.3233,3.5706,3.7075,3.7431,3.5881,3.6087,3.7383,3.5934,3.6175,3.751,3.751,3.751,3.751,3.751,3.751,3.751,0.0,0.0,0.0,0.0,0.0,0.0,0.0,0.0,0.0,0.0,0.0,0.0,0.0,0.0,0.0,0.0,0.0,0.0,0.0,1.8309,1.8358,1.8548,1.8383,1.8247,1.822,1.7534,1.7062,1.6828,1.6509,1.6446,1.6649,1.7226,1.8109,1.9292,1.9306,1.9437,1.9671,1.9539,1.9682,1.9987,0.0,0.0,0.0,0.0,0.0,0.0,0.0,0.0,0.0,0.0,0.0,0.0,0.0,0.0,0.0,2.6069,2.7167,2.8544,2.9096,3.0001,3.1791,3.5948,3.3569,3.2182,3.9822,3.553,3.2108,0.0,0.0,0.0,0.0,3.6457,3.497,3.6044,3.9747,4.1743,3.9658,3.8946,3.8336,3.7523,3.6033,3.4713,3.3841,3.5011,3.5803,3.5824,3.5828,3.5989,3.6468,3.6427,3.6603,3.7029,3.7015,3.7015,3.7015,3.703,3.5834,3.3496,3.5732,3.5817,3.4148,3.5987,3.7029,3.7308,3.5217,3.5502,3.7336,3.5264,3.5661,3.751,3.751,3.7405,3.721,3.7059,3.7119,3.724,0.0,0.0,0.0,0.0,0.0,0.0,0.0,0.0,0.0,0.0,0.0,0.0,0.0,0.0,0.0,0.0,0.0,0.0,0.0,1.8647,1.8525,1.8422,1.81,1.8127,1.856,1.8201,1.7717,1.7168,1.7305,1.7472,1.7596,1.7661,1.8259,1.9314,1.9673,1.9868,1.9835,1.9341,1.9386,1.9738,1.8847,0.0,0.0,0.0,0.0,0.0,0.0,0.0,0.0,0.0,0.0,0.0,0.0,0.0,2.609,2.5451,2.6809,2.8495,2.848,2.8923,3.006,3.3012,3.1947,3.2162,3.97,3.5069,3.1458,3.9554,0.0,0.0,0.0,3.8826,3.7593,3.9287,3.9314,3.9606,4.0856,4.0058,3.9384,3.9547,3.7888,3.6694,3.6602,3.611,3.6011,3.6495,3.64,3.6658,3.737,3.7103,3.7028,3.7194,3.7044,3.7015,3.7015,3.7119,3.7025,3.6673,3.6875,3.6906,3.6749,3.7025,3.7194,3.7208,3.7214,3.732,3.7494,3.7288,3.732,3.751,3.751,3.7074,3.6399,3.5785,3.5944,3.6461,0.0,0.0,0.0,0.0,0.0,0.0,0.0,0.0,0.0,0.0,0.0,0.0,0.0,0.0,0.0,0.0,0.0,0.0,0.0,1.8142,1.8143,1.8402,1.8284,1.8334,1.8608,1.7986,1.7656,1.7639,1.7702,1.7831,1.7959,1.8194,1.863,1.9163,1.9022,1.8984,1.8952,1.8533,1.8375,1.8385,1.7956,1.8186,0.0,0.0,0.0,0.0,0.0,0.0,0.0,0.0,2.3877,2.4572,2.4622,2.5658,2.6632,2.5714,2.6848,2.8268,2.7849,2.8428,3.0199,3.4352,3.2053,3.0885,3.9013,3.6273,3.4222,4.198,3.8698,0.0,0.0,3.6648,3.7997,3.8239,3.9312,4.0354,4.1036,4.0417,3.9834,3.9697,3.8629,3.777,3.7419,3.7064,3.693,3.7141,3.7099,3.7196,3.7494,3.7391,3.7315,3.7375,3.7361,3.7301,3.7301,3.7375,3.7375,3.7301,3.718,3.7195,3.7301,3.7135,3.7195,3.7375,3.7329,3.7375,3.751,3.751,3.751,3.7435,3.6998,3.6662,3.6337,3.5657,3.5561,3.5785,0.0,0.0,0.0,0.0,0.0,0.0,0.0,0.0,0.0,0.0,0.0,0.0,0.0,0.0,0.0,0.0,0.0,0.0,1.8097,1.809,1.82,1.8446,1.8509,1.8625,1.8763,1.8283,1.8042,1.8075,1.7882,1.7987,1.8353,1.8411,1.8624,1.8947,1.8566,1.8384,1.8384,1.8109,1.7853,1.7657,1.7441,1.7532,0.0,0.0,0.0,0.0,0.0,0.0,0.0,0.0,2.3257,2.4041,2.4168,2.5437,2.6714,2.6001,2.7,2.8201,2.7626,2.8137,2.9889,3.4147,3.1483,3.0065,3.8566,3.6602,3.4942,4.1767,3.9214,3.5433,3.424,0.0,3.8214,3.7838,3.8939,4.013,4.1019,4.0556,3.9986,3.9594,3.8887,3.8254,3.7759,3.7599,3.751,3.7569,3.7539,3.751,3.751,3.751,3.751,3.751,3.751,3.751,3.751,3.751,3.751,3.751,3.7359,3.7329,3.7405,3.7241,3.7241,3.7405,3.7329,3.724,3.715,3.715,3.7029,3.6754,3.6039,3.5738,3.5674,3.496,3.4876,3.5059,0.0,0.0,0.0,0.0,0.0,0.0,0.0,0.0,0.0,0.0,0.0,0.0,0.0,0.0,0.0,0.0,0.0,0.0,1.8383,1.8716,1.8811,1.8623,1.8774,1.8958,1.9093,1.9293,1.9083,1.8427,1.7874,1.8062,1.8876,1.8236,1.8169,1.8594,1.8486,1.8394,1.8373,1.8211,1.8017,1.7862,1.7401,1.6926,1.6608,0.0,0.0,0.0,0.0,0.0,0.0,0.0,2.2773,2.3427,2.3561,2.4749,2.6101,2.6213,2.7252,2.8302,2.7927,2.7955,2.8758,3.1513,2.9943,2.9952,3.8474,3.5718,3.2836,3.8129,4.1034,4.2047,4.0014,3.8963,3.8499,3.8745,3.8079,3.8394,4.0833,4.0497,3.9851,3.9463,3.875,3.8141,3.7759,3.7583,3.7569,3.7671,3.7569,3.751,3.751,3.751,3.751,3.751,3.751,3.751,3.751,3.751,3.751,3.7494,3.7494,3.7389,3.7224,3.7405,3.7405,3.7224,3.7405,3.7074,3.6399,3.6399,3.6008,3.5335,3.4581,3.4312,3.4211,3.3542,3.3722,3.4279,0.0,0.0,0.0,0.0,0.0,0.0,0.0,0.0,0.0,0.0,0.0,0.0,0.0,0.0,0.0,0.0,0.0,0.0,1.9079,1.8976,1.8974,1.9155,1.8947,1.8966,1.9229,1.9435,1.9426,1.9242,1.9091,1.903,1.904,1.9073,1.8805,1.8367,1.9671,1.919,1.7528,1.9073,1.8713,1.7125,1.7216,1.6934,1.6483,0.0,0.0,0.0,0.0,0.0,0.0,0.0,0.0,0.0,2.3487,2.4725,2.6399,2.8581,2.8565,2.8048,2.8965,2.8304,0.0,3.0616,0.0,0.0,0.0,3.4729,3.6065,3.8775,3.9115,3.8208,3.5955,3.8153,3.9744,3.8016,3.9019,4.0297,4.1099,4.0594,4.0161,4.0235,3.9272,3.849,3.8282,3.7873,3.7612,3.7553,3.751,3.751,3.751,3.751,3.751,3.751,3.751,3.751,3.751,3.751,3.7286,3.6883,3.6883,3.7078,3.7405,3.7329,3.7329,3.7405,3.7329,3.724,3.715,3.6631,3.6008,3.5335,3.4581,3.4312,3.4211,3.3542,3.3417,3.3597,0.0,0.0,0.0,0.0,0.0,0.0,0.0,0.0,0.0,0.0,1.825,1.8284,0.0,0.0,0.0,0.0,0.0,0.0,1.9209,1.9127,1.9144,1.9282,1.9169,1.9242,1.9539,1.944,1.9473,1.9605,1.9605,1.9506,1.9297,1.9381,1.9094,1.8593,1.9566,1.9064,1.7527,1.8466,1.8097,1.6881,1.6909,1.6751,1.6573,0.0,0.0,0.0,0.0,0.0,0.0,0.0,0.0,0.0,2.278,2.4687,2.6895,2.8272,2.8509,2.8609,2.998,2.9358,0.0,3.3428,3.277,3.1393,3.2556,0.0,0.0,0.0,3.9588,3.8405,3.6978,3.911,4.0597,3.906,4.0101,4.1123,4.1186,4.0849,4.0594,4.0521,3.9843,3.9209,3.8739,3.8298,3.7931,3.7671,3.7569,3.751,3.751,3.727,3.7141,3.7141,3.693,3.6816,3.6816,3.6816,3.6651,3.6278,3.6278,3.6473,3.6816,3.6698,3.6714,3.6787,3.6155,3.5977,3.5977,3.503,3.4367,3.3962,3.3521,3.3355,3.3288,3.2826,3.2615,3.2533,0.0,0.0,0.0,0.0,0.0,0.0,0.0,0.0,0.0,0.0,1.8866,1.8851,0.0,0.0,0.0,0.0,0.0,0.0,0.0,1.9244,1.9326,1.9168,1.9414,1.9671,1.9835,1.9374,1.9274,1.9605,1.9572,1.9572,1.9594,1.9233,1.9051,1.9038,1.8717,1.8349,1.7911,1.7013,1.6676,1.6686,1.6314,1.6355,1.6669,1.6821,0.0,0.0,0.0,0.0,0.0,0.0,0.0,0.0,2.1756,2.4489,2.7216,2.6396,2.773,2.979,3.1115,3.0942,3.1758,3.7619,3.5087,0.0,3.4957,3.5065,3.5969,4.0998,0.0,4.085,4.1065,4.1093,4.1093,4.1093,4.1093,4.1123,4.1209,4.1232,4.103,4.0587,4.0473,4.0103,3.9226,3.8728,3.8298,3.7908,3.7541,3.735,3.735,3.6819,3.6527,3.6527,3.6031,3.5794,3.5794,3.5794,3.579,3.5726,3.5726,3.5694,3.5657,3.5758,3.5794,3.5724,3.4515,3.3954,3.3804,3.255,3.1968,3.1917,3.1917,3.1917,3.1885,3.174,3.1575,3.1377,0.0,0.0,0.0,0.0,0.0,0.0,0.0,0.0,0.0,0.0,0.0,0.0,0.0,0.0,0.0,0.0,0.0,0.0,0.0,1.937,1.9358,1.9499,1.942,1.9374,1.944,1.9308,1.9374,1.9605,1.9341,1.9341,1.9605,1.8997,1.8743,1.8792,1.9092,1.8093,1.6311,1.7205,1.6456,1.4686,1.4996,1.5257,1.5513,1.578,1.6197,0.0,0.0,0.0,0.0,0.0,0.0,0.0,2.1653,2.332,2.5301,2.7534,2.9182,3.0757,3.2947,3.2282,0.0,3.2518,3.182,3.2496,3.9009,3.8777,3.8115,4.1451,3.969,3.8261,4.066,4.1093,4.1093,4.1093,4.1129,4.1226,4.134,4.1363,4.134,4.1346,4.0984,4.0594,4.0285,3.8913,3.7958,3.7742,3.678,3.6159,3.6159,3.6043,3.5963,3.5963,3.5858,3.5794,3.5794,3.5794,3.5577,3.5155,3.5155,3.4929,3.45,3.5391,3.5794,3.5751,3.5005,3.4383,3.3864,3.3179,3.2518,3.1917,3.208,3.2047,3.1885,3.174,3.1575,3.1377,0.0,0.0,0.0,0.0,0.0,0.0,0.0,0.0,0.0,0.0,0.0,0.0,0.0,0.0,0.0,0.0,0.0,0.0,0.0,0.0,1.9308,1.9374,1.9274,1.9241,1.9318,1.9318,1.9407,1.9605,1.9407,1.9374,1.944,1.9062,1.8659,1.8228,1.8278,1.7287,1.5574,1.582,1.5245,1.4178,1.4187,1.4426,1.4877,1.5426,1.5851,1.6266,1.6918,0.0,0.0,0.0,0.0,0.0,0.0,0.0,2.5091,2.6226,2.7719,2.9553,3.2065,3.2744,0.0,3.4476,0.0,3.698,3.9427,3.9723,4.011,4.2279,4.1152,4.0069,4.1058,4.1677,4.1868,4.1244,4.1226,4.1318,4.1403,4.1448,4.1515,4.1582,4.1346,4.1053,4.0713,3.978,3.8789,3.7877,3.7118,3.6443,3.5838,3.5572,3.5423,3.5423,3.5202,3.5088,3.5088,3.514,3.504,3.476,3.476,3.4599,3.4291,3.4775,3.4983,3.493,3.4089,3.3442,3.2967,3.2153,3.1602,3.1257,3.1209,3.124,3.1226,3.086,3.0558,3.0368,0.0,0.0,0.0,0.0,0.0,0.0,0.0,0.0,0.0,0.0,0.0,0.0,0.0,0.0,0.0,0.0,0.0,0.0,0.0,0.0,0.0,1.9108,1.9108,1.9175,1.9318,1.9374,1.9483,1.9638,1.9638,1.9709,1.9779,1.9671,1.9079,1.8117,1.7532,1.6476,1.5025,1.3914,1.3643,1.3914,1.3341,1.3561,1.4311,1.4999,1.543,1.5783,1.6402,1.6957,1.7385,1.7151,0.0,0.0,0.0,0.0,2.5067,2.4161,2.5684,2.8194,3.038,3.2673,3.5234,3.8311,4.0034,0.0,3.8777,3.9485,4.1051,4.2881,4.3262,4.2995,4.2172,4.2776,4.3058,4.2026,4.1978,4.2062,4.2084,4.1978,4.1912,4.1912,4.1719,4.1431,4.0984,4.064,3.9825,3.8319,3.7911,3.7209,3.5943,3.5431,3.5101,3.491,3.45,3.4325,3.4325,3.4448,3.4497,3.4497,3.4579,3.4603,3.4595,3.4459,3.4358,3.4187,3.2931,3.233,3.214,3.0836,3.0387,3.0492,3.0219,3.028,3.0462,2.9837,2.9512,2.931,0.0,0.0,0.0,0.0,0.0,0.0,0.0,0.0,0.0,0.0,1.7645,1.7594,0.0,0.0,0.0,0.0,0.0,0.0,0.0,0.0,0.0,1.9098,1.9108,1.9175,1.9318,1.9638,1.9835,1.9868,1.9868,2.0503,2.1723,2.1406,2.0774,1.9823,1.8527,1.643,1.3753,1.2516,1.2049,1.2121,1.1694,1.2193,1.3216,1.3392,1.4397,1.5704,1.5793,1.638,1.7095,1.7279,1.8259,0.0,0.0,0.0,2.3379,2.3071,2.5827,2.9116,2.9856,0.0,3.5144,0.0,3.6927,3.5882,0.0,0.0,3.9167,4.244,4.3137,4.3387,4.4259,4.4563,4.4641,4.4589,4.4592,4.4651,4.4752,4.3852,4.3173,4.3173,4.2237,4.1582,4.1498,4.0469,3.9704,3.9484,3.8462,3.7355,3.6206,3.5976,3.5465,3.4587,3.4398,3.4349,3.4472,3.4497,3.4497,3.4497,3.4843,3.5007,3.504,3.5407,3.5342,3.4872,3.3087,3.2504,3.2666,3.0997,3.0249,3.0172,3.0249,3.0249,3.0142,2.9853,2.9668,2.9509,0.0,0.0,0.0,0.0,0.0,0.0,0.0,0.0,0.0,0.0,0.0,1.7534,0.0,0.0,0.0,0.0,0.0,0.0,0.0,0.0,0.0,1.9108,1.9108,1.9175,1.9318,1.9671,1.9835,1.9736,1.9835,2.114,2.3481,2.3283,2.1757,1.9238,1.8986,1.65,1.2476,1.2602,1.207,1.11,1.0841,1.1277,1.2063,1.2129,1.3029,1.4384,1.5008,1.5708,1.639,1.6711,1.8051,1.9471,1.9214,0.0,0.0,0.0,2.4696,2.7522,3.1805,3.2669,3.3639,0.0,3.7256,3.5213,3.9882,3.9698,3.9624,4.3438,4.4733,4.5147,4.5039,4.5602,4.5885,4.5311,4.48,4.4492,4.4551,4.3506,4.2736,4.2736,4.2047,4.1604,4.1604,4.1093,4.0468,3.975,3.9284,3.8499,3.7273,3.7222,3.6713,3.5616,3.5583,3.528,3.4635,3.4691,3.4832,3.5053,3.5506,3.5716,3.5716,3.5932,3.5835,3.5433,3.4262,3.3385,3.2702,3.1602,3.0659,2.9929,2.9898,2.9929,2.9898,2.9651,2.954,2.9383,0.0,0.0,0.0,0.0,0.0,0.0,0.0,0.0,0.0,0.0,0.0,0.0,0.0,0.0,0.0,0.0,0.0,0.0,0.0,0.0,0.0,1.88,1.887,1.9042,1.9241,1.9572,1.9704,1.9605,1.9553,2.0927,2.3681,2.3487,2.1762,1.8815,1.9417,1.6965,1.2419,1.2958,1.2342,1.0948,1.0931,1.0946,1.1051,1.1178,1.195,1.3042,1.3828,1.4817,1.5739,1.5905,1.7474,1.9285,1.8907,2.0094,0.0,0.0,0.0,2.5887,3.2705,0.0,3.1855,3.8354,3.6426,3.3979,0.0,3.8617,3.9341,4.323,4.5497,4.6624,4.6066,4.6796,4.715,4.6082,4.5368,4.4875,4.4674,4.3605,4.2845,4.2845,4.2195,4.1744,4.1744,4.1653,4.1208,4.0261,4.0299,3.9844,3.8597,3.8614,3.8134,3.7015,3.6736,3.6149,3.5236,3.5116,3.5333,3.5891,3.621,3.6351,3.6351,3.649,3.6433,3.6194,3.5276,3.4149,3.284,3.2061,3.0951,2.9744,2.9865,2.9823,2.9713,2.9523,2.9477,2.9289,0.0,0.0,0.0,0.0,0.0,0.0,0.0,0.0,0.0,0.0,0.0,0.0,1.8264,1.8303,1.8149,1.7565,1.7837,0.0,0.0,0.0,0.0,1.796,1.8318,0.0,1.9108,1.9241,1.9417,1.9605,1.8857,1.9383,2.109,2.0845,2.0278,1.9566,2.0055,1.8114,1.4453,1.3179,1.2365,1.1965,1.221,1.1491,1.0294,1.0606,1.1365,1.2234,1.202,1.35,1.5447,1.4952,1.6394,1.8454,1.8866,1.981,2.0924,0.0,0.0,0.0,3.079,3.0768,0.0,3.4072,3.2193,3.0195,3.3431,3.505,3.687,4.0379,4.416,4.7107,4.8124,4.8586,4.854,4.7706,4.7539,4.7242,4.6481,4.5325,4.4581,4.4581,4.3164,4.2175,4.2175,4.1831,4.1565,4.1507,4.164,4.1205,4.0048,4.0,3.9546,3.8518,3.7268,3.6635,3.6694,3.5885,3.5958,3.6928,3.6831,3.6786,3.6773,3.7229,3.7429,3.732,3.5613,3.4352,3.3366,3.2116,3.0812,2.969,3.0439,3.028,2.961,2.9665,2.9637,2.9446,0.0,0.0,0.0,0.0,0.0,0.0,0.0,0.0,0.0,0.0,0.0,0.0,0.0,1.8281,1.7728,1.7509,1.7151,0.0,0.0,0.0,0.0,1.7506,1.7636,1.7857,1.813,1.8445,1.8522,1.8385,1.8335,1.9028,2.0392,2.0342,1.9792,1.8946,2.0411,1.8245,1.3483,1.3615,1.2108,0.9665,0.9974,0.9786,0.94,0.9696,1.076,1.206,1.1584,1.2616,1.4252,1.4443,1.5722,1.7323,1.8013,1.957,2.1404,2.2804,2.3822,2.5314,2.9123,2.8625,2.8167,3.3178,3.0936,2.8816,3.3858,3.6191,3.7692,3.908,4.38,4.7219,4.5696,4.6899,4.8036,4.7757,4.6828,4.6048,4.5769,4.4657,4.3882,4.3882,4.3122,4.258,4.258,4.2218,4.1984,4.1984,4.0498,4.0111,4.1261,4.0011,3.9356,3.9564,3.9098,3.842,3.7513,3.7119,3.7078,3.7446,3.7295,3.7232,3.7247,3.7413,3.751,3.7478,3.6839,3.5408,3.3471,3.3003,3.1498,2.9505,2.9873,2.9799,2.9474,2.9606,2.9333,2.8776,0.0,0.0,0.0,0.0,0.0,0.0,0.0,0.0,1.8246,1.8514,0.0,0.0,0.0,0.0,1.7525,1.7003,1.6375,1.6037,1.6187,1.6311,1.6572,1.692,1.7289,1.758,1.7724,1.8172,1.82,1.7764,1.776,1.8166,1.8914,1.8882,1.8349,1.7509,1.9027,1.7424,1.3627,1.3879,1.228,0.9556,0.9918,0.9546,0.8867,0.9921,1.0646,1.1194,1.1501,1.2349,1.3439,1.4166,1.5228,1.6426,1.746,1.9387,2.1542,2.3005,2.3965,2.5058,2.7321,2.6678,2.6331,3.022,2.8779,2.7526,3.1796,3.5569,3.8245,3.8399,4.3439,4.7184,4.5184,4.589,4.6817,4.6884,4.5992,4.5194,4.4896,4.4114,4.3562,4.3545,4.3178,4.2922,4.2866,4.2559,4.2338,4.2234,4.0648,4.0329,4.1856,4.0542,3.9805,3.9964,3.9976,3.9462,3.8411,3.7949,3.7902,3.8266,3.7792,3.7583,3.7612,3.7612,3.7612,3.7612,3.7612,3.6052,3.3486,3.3486,3.1904,2.9505,2.9859,2.9957,2.9817,2.9517,2.9187,2.8717,0.0,0.0,0.0,0.0,0.0,0.0,0.0,0.0,1.8837,1.9177,0.0,0.0,0.0,0.0,0.0,1.6061,1.5643,1.54,1.5234,1.5619,1.5961,1.6205,0.0,0.0,1.8012,1.8529,1.8474,1.7875,1.7083,1.6681,1.6588,1.6348,1.5885,1.5375,1.5845,1.5713,1.5035,1.3849,1.2765,1.1883,1.2298,1.0864,0.8709,1.126,1.1024,0.9594,1.1621,1.2624,1.3103,1.4065,1.4913,1.5776,1.7192,1.918,2.1116,2.2007,2.3217,2.4452,0.0,0.0,0.0,2.4927,2.5481,2.6138,2.6781,3.2676,3.8023,3.8139,4.2782,4.6813,4.6814,4.5809,4.5055,4.5217,4.5249,4.4971,4.4101,4.3945,4.3867,4.3804,4.3445,4.316,4.3032,4.2827,4.2595,4.2348,4.2183,4.2018,4.1823,4.167,4.1036,3.9784,3.9744,3.9646,3.9433,3.8343,3.8309,3.9385,3.8258,3.7788,3.7905,3.7905,3.7905,3.7905,3.7905,3.6215,3.3517,3.3517,3.198,2.969,3.0453,3.0772,3.0644,2.9448,2.9287,2.9391,0.0,0.0,0.0,0.0,0.0,1.9025,1.9276,1.9241,1.9303,0.0,0.0,0.0,1.8985,1.8584,1.776,1.6327,1.6497,1.6394,1.5677,1.6494,1.6999,1.6931,1.7895,1.8427,1.8493,1.8122,1.7883,1.7769,1.7086,1.6664,1.6461,1.6437,1.5619,1.421,1.5061,1.4399,1.2592,1.2401,1.0778,0.8434,0.9183,0.8452,0.7162,0.9515,1.0293,1.0243,1.1411,1.1984,1.2398,1.3805,1.4056,1.4153,1.6136,1.814,1.9948,2.0869,2.2452,2.3851,2.3526,0.0,0.0,0.0,0.0,0.0,2.7143,3.0637,3.3742,3.4409,3.8907,4.2696,4.254,4.3633,4.4454,4.4123,4.4151,4.4093,4.3767,4.3697,4.3666,4.3583,4.3479,4.3427,4.3442,4.3123,4.2939,4.2957,4.0823,4.0255,4.1931,4.1569,4.115,4.0787,4.0643,4.0543,4.0483,3.984,3.9479,3.9385,3.8739,3.8258,3.7905,3.7905,3.7905,3.7905,3.7905,3.6378,3.3849,3.3744,3.2149,2.9758,2.9879,3.0295,3.0619,2.9343,2.8982,2.8966,0.0,0.0,0.0,0.0,0.0,1.9267,1.9727,1.9587,1.9609,0.0,0.0,0.0,1.8754,1.8095,1.7488,1.7001,1.6792,1.6648,1.6636,1.704,1.747,1.7895,1.858,1.894,1.8835,1.8716,1.8332,1.7648,1.7305,1.6869,1.6405,1.6423,1.5419,1.3645,1.4264,1.3207,1.0956,1.0737,0.9865,0.8598,0.8145,0.7577,0.7283,0.9962,1.059,1.0179,1.1055,1.183,1.2644,1.4309,1.4494,1.4378,1.6285,1.7554,1.8688,2.0223,2.1583,2.2471,2.1975,2.2826,2.3808,2.3754,0.0,0.0,2.6649,3.014,3.3355,3.4057,3.8251,4.1502,4.0492,4.1415,4.223,4.2012,4.204,4.2441,4.3418,4.3512,4.3461,4.3375,4.3375,4.3392,4.3426,4.3303,4.3214,4.3196,4.1281,4.0514,4.1561,4.1272,4.1088,4.1088,4.1029,4.0982,4.0982,4.0294,3.9808,3.9542,3.8838,3.8359,3.8107,3.8107,3.8107,3.8107,3.8107,3.693,3.4929,3.4239,3.2316,2.9777,2.9651,3.0309,3.1069,2.915,2.8911,2.9213,0.0,0.0,1.9231,1.9243,1.932,1.9561,2.0215,1.9911,1.9901,0.0,2.0084,1.925,1.8454,1.74,1.7105,1.7957,1.704,1.6827,1.7822,1.7584,1.7925,1.9029,1.9483,1.9574,1.9266,1.9802,1.9371,1.7871,1.769,1.7248,1.6532,1.6392,1.5301,1.3499,1.3561,1.2278,1.0043,0.9182,0.9558,1.0525,0.8389,0.7693,0.8233,1.1084,1.1038,0.9526,1.0426,1.1663,1.3126,1.5107,1.5634,1.5648,1.6796,1.7158,1.7552,1.9717,2.0553,2.0778,2.0806,2.2075,2.3179,2.2311,2.3845,0.0,2.5621,2.993,3.4153,3.4902,3.846,4.0941,3.9404,3.9014,3.9,3.9217,3.925,4.0123,4.2694,4.3174,4.3159,4.2796,4.2978,4.316,4.3178,4.3322,4.3358,4.3196,4.2675,4.1934,4.1035,4.0965,4.0942,4.0935,4.1047,4.1093,4.1117,4.0237,3.9817,3.9808,3.8843,3.842,3.8391,3.8391,3.8391,3.8391,3.8391,3.7568,3.6082,3.473,3.2557,3.0031,2.9857,3.0598,3.1498,2.9034,2.8919,2.9608,0.0,1.9987,2.0074,2.0125,2.0598,2.1106,2.1626,2.1311,2.0962,2.0825,1.9868,1.9249,1.938,1.8395,1.8041,1.8807,1.9286,1.918,1.8414,1.9441,2.0131,2.0274,2.0753,2.0948,2.0764,2.0334,1.9922,1.9598,1.8375,1.7646,1.743,1.6759,1.5381,1.3423,1.3431,1.22,1.0011,0.8781,0.8714,0.9361,0.8219,0.7681,0.768,0.8592,0.8675,0.8335,0.8517,0.9697,1.1559,1.4736,1.5755,1.5624,1.5095,1.606,1.7603,1.8423,1.934,2.0189,2.0671,2.1156,2.1707,2.2514,2.2833,0.0,2.4729,2.591,2.7555,3.0426,3.2027,3.3557,3.5739,3.604,3.6054,3.6421,3.6455,3.7288,3.9834,4.1905,4.2341,4.022,4.1704,4.2899,4.2939,4.2956,4.2993,4.3123,4.2806,4.2259,4.1423,4.1378,4.1277,4.107,4.1087,4.1123,4.118,4.1094,4.0628,3.9791,3.9714,3.9206,3.8391,3.8391,3.8391,3.8391,3.8391,3.7052,3.486,3.4369,3.3156,3.1523,3.1027,3.0648,3.0271,2.9313,2.8865,2.8502,2.0613,2.0634,2.0707,2.0735,2.1046,2.1443,2.2016,2.1624,2.1428,2.1887,2.0874,1.992,1.9457,1.8879,1.869,1.9061,2.0722,2.1221,2.0026,2.0358,2.0855,2.1388,2.1336,2.1285,2.119,2.0828,2.0463,2.0096,1.897,1.8173,1.7725,1.6863,1.5317,1.3247,1.3287,1.2167,1.0202,0.8733,0.8573,0.9217,0.8121,0.8177,0.8834,0.8629,0.8637,0.8794,0.8775,0.9001,1.0001,1.452,1.5955,1.5899,1.6301,1.6367,1.6619,1.8208,1.861,1.8697,1.9353,2.0295,2.116,2.1472,2.2124,0.0,0.0,2.493,2.65,2.8743,3.0419,3.1715,3.2455,3.2774,3.3068,3.3564,3.3631,3.4094,3.5461,3.8794,4.1052,4.0924,4.1949,4.2727,4.2842,4.2861,4.2842,4.286,4.2728,4.2274,4.1401,4.1333,4.1232,4.1006,4.107,4.1169,4.1295,4.1163,4.0843,4.0277,3.9825,3.9322,3.8805,3.8532,3.8307,3.8148,3.8148,3.7064,3.5186,3.4433,3.3321,3.2078,3.137,3.063,2.9955,2.9395,2.8858,2.8118,2.1376,2.1345,2.1376,2.1471,2.1502,2.1721,2.2206,2.1834,2.1877,2.2944,2.1721,2.0529,1.9932,1.9411,1.9147,1.9244,2.1221,2.2247,2.175,2.1135,2.1209,2.2077,2.1534,2.119,2.119,2.119,2.0903,2.0302,1.9628,1.8861,1.7987,1.7139,1.5569,1.3478,1.3276,1.2482,1.1118,0.9365,0.9152,0.9856,0.8669,0.875,0.9623,0.9317,0.9274,0.9361,0.9534,0.8739,0.8398,1.3919,1.5616,1.5742,1.7345,1.6476,1.5373,1.7875,1.7797,1.7087,1.7939,1.9378,2.0601,2.0438,2.1594,2.2836,0.0,0.0,0.0,2.749,2.9535,3.0745,2.9336,2.9498,3.0057,3.06,3.0663,3.0902,3.1637,3.5074,3.8259,4.0288,4.0936,4.1262,4.1375,4.1866,4.2299,4.2614,4.2688,4.2351,4.1507,4.1373,4.1232,4.1012,4.1006,4.1123,4.1363,4.103,4.0849,4.0778,3.9757,3.9199,3.9082,3.85,3.8062,3.7799,3.7666,3.6839,3.5512,3.4334,3.3125,3.1927,3.1231,3.0463,2.9627,2.9221,2.8609,2.7722,2.2341,2.2249,2.2372,2.2793,2.3017,2.3108,2.3005,2.2914,2.2914,2.3065,2.0986,2.0293,2.244,2.053,1.9271,1.968,2.0,2.096,2.2807,2.2484,2.2139,2.1874,2.1444,2.119,2.119,2.119,2.1158,2.1094,2.0634,1.9834,1.8754,1.8258,1.6839,1.4741,1.3663,1.3455,1.3716,1.1451,1.0919,1.1565,1.0619,0.9203,0.7775,0.9075,0.9039,0.846,0.9308,0.8006,0.6753,1.2021,1.3994,1.4335,1.5023,1.466,1.4419,1.6325,1.6375,1.6072,1.7397,1.8204,1.9027,2.0678,2.1344,2.1914,2.316,0.0,2.4453,2.4579,0.0,2.6379,2.6057,0.0,0.0,2.7379,2.7279,2.8113,3.081,3.1513,3.2087,3.2997,3.4959,3.6214,3.6249,3.824,4.0455,4.27,4.2974,4.2879,4.2452,4.2047,4.1666,4.1368,4.0965,4.0894,4.1232,4.1186,4.103,4.0778,3.9885,3.9222,3.8718,3.7895,3.7506,3.7401,3.6829,3.5676,3.4166,3.363,3.2384,3.0856,3.0634,2.9721,2.8481,2.849,2.7726,2.6562,2.2822,2.2823,2.2884,2.3078,2.3168,2.321,2.3108,2.3108,2.3108,2.3108,2.2152,2.2084,2.3617,2.4567,2.3656,2.0122,1.978,2.2151,2.7739,2.3616,2.1185,2.177,2.1416,2.1198,2.119,2.1273,2.1305,2.1305,2.0826,2.0069,1.904,1.8268,1.6789,1.4718,1.3505,1.327,1.3646,1.1576,1.0946,1.1289,1.0426,0.9048,0.7614,0.9079,0.9344,0.9047,0.9474,0.889,0.8372,1.1181,1.3049,1.4154,1.4127,1.4268,1.4793,1.6782,1.6451,1.5884,1.7937,1.9159,2.0038,2.0982,2.1497,2.2072,2.3082,2.2926,2.2742,2.3294,0.0,0.0,0.0,0.0,0.0,0.0,2.6196,2.6808,2.827,2.8407,2.9694,3.3272,3.4565,3.5757,3.722,3.7076,3.7971,4.0546,4.0763,4.0617,4.0296,4.1162,4.1539,4.1283,4.083,4.0728,4.1018,4.1035,4.0789,4.0326,3.9604,3.8972,3.8398,3.7722,3.7314,3.7119,3.643,3.5304,3.3898,3.3285,3.1952,3.0306,2.9869,2.9059,2.8155,2.7885,2.6631,2.4992,2.2611,2.2782,2.2932,2.3083,2.3108,2.3108,2.3108,2.3484,2.3772,2.3772,2.348,2.3445,2.3921,2.6321,2.6628,2.3539,2.3383,2.5909,3.1697,2.6647,2.3281,2.2902,2.1806,2.1401,2.1832,2.1525,2.1368,2.1388,2.106,2.0454,1.9572,1.8518,1.7104,1.5408,1.3693,1.3404,1.4047,1.2315,1.1625,1.1648,1.1088,0.9799,0.8347,0.9034,0.9461,0.9592,0.9594,0.9608,0.9723,1.0421,1.2003,1.3604,1.3324,1.374,1.4668,1.6302,1.6817,1.7158,1.8596,1.995,2.1054,2.1378,2.1811,2.2289,2.2775,2.2314,2.1921,2.2594,2.3172,0.0,0.0,0.0,2.4697,2.4948,0.0,2.5764,2.6179,2.6318,2.7981,3.2369,3.3545,3.4782,3.6684,3.5916,3.6091,3.8093,3.8796,3.9032,3.8813,4.0651,4.163,4.1468,4.089,4.071,4.0989,4.0847,4.0614,4.0245,3.9404,3.8772,3.8314,3.7533,3.7059,3.6816,3.5864,3.4865,3.3836,3.2986,3.1675,3.0132,2.9369,2.8533,2.7703,2.7162,2.5744,2.3963,2.1503,2.197,2.2481,2.3007,2.3108,2.3108,2.3108,2.4494,2.5523,2.5523,2.4464,2.3534,2.3176,2.3697,2.621,3.1509,3.2423,3.2791,3.3051,3.2819,3.0596,2.5865,2.2799,2.1901,2.3398,2.1981,2.1285,2.1388,2.1588,2.1282,2.0514,1.9326,1.836,1.7566,1.4602,1.4335,1.6032,1.4652,1.3818,1.342,1.3667,1.2229,0.9837,0.8947,0.9051,0.9624,0.9596,0.96,0.9604,0.9643,1.0707,1.2015,1.2176,1.2699,1.3351,1.389,1.7205,2.0428,1.9005,1.9891,2.1358,2.2009,2.2221,2.226,2.2165,2.2259,2.2342,2.2235,2.2965,2.3465,2.3024,2.3485,2.3939,2.396,2.4173,0.0,0.0,2.5559,2.6173,2.74,2.9911,3.1643,3.1987,3.3953,3.5376,3.5764,3.791,3.9245,3.937,4.1163,4.2177,4.2157,4.1271,4.0937,4.1186,4.0734,4.0631,4.0847,3.9387,3.8718,3.8619,3.7177,3.6523,3.6429,3.4978,3.4196,3.38,3.2688,3.1519,3.0391,2.9321,2.8089,2.6867,2.6347,2.525,2.3963,2.1076,2.0994,2.1378,2.2272,2.281,2.3108,2.3108,2.3584,2.3981,2.4132,2.4075,2.428,2.5001,2.6445,2.7515,2.7976,3.0954,3.2868,3.3108,3.3101,3.0905,2.5954,2.6311,2.5477,2.3018,2.2243,2.1565,2.0943,2.1084,2.0692,1.9783,1.8969,1.8012,1.6848,1.4605,1.4402,1.5615,1.4872,1.3906,1.2797,1.1343,1.0271,0.9437,0.9295,0.9412,0.9579,0.9579,0.9579,0.9547,0.9049,1.0529,1.2406,1.1189,1.2293,1.41,1.4732,1.7401,2.0488,2.1866,2.236,2.2499,2.2761,2.2455,2.2202,2.2531,2.1481,2.0481,2.0705,2.1489,2.2095,2.1945,2.2634,2.3238,2.3238,2.3558,2.4,0.0,2.5121,2.5707,2.6072,2.7453,2.9036,3.0784,3.0475,3.0893,3.2661,3.3729,3.4373,3.4566,3.7569,3.9303,3.9344,4.0008,4.0377,4.0476,4.032,3.9885,3.9166,3.8679,3.8023,3.7237,3.6739,3.6492,3.6429,3.496,3.4263,3.4055,3.2727,3.1642,3.0629,2.9388,2.8089,2.6704,2.511,2.3674,2.2301,2.1443,2.0736,2.0754,2.1902,2.2625,2.3187,2.3698,2.3584,2.389,2.5162,2.4829,2.5005,2.6361,2.738,2.758,2.6688,2.8028,3.0016,3.2669,3.1656,2.9802,2.7156,2.7374,2.6528,2.4376,2.3202,2.257,2.2487,2.1491,2.1086,2.1135,1.9587,1.8319,1.7295,1.5397,1.4742,1.5023,1.5056,1.3973,1.2065,1.0153,0.9464,0.9592,0.9325,0.9396,0.9579,0.9579,0.9587,0.9441,0.8993,1.0585,1.2581,1.16,1.2898,1.4834,1.5274,1.6732,1.908,2.2943,2.3682,2.3383,2.3542,2.3475,2.3338,2.3266,2.2293,2.1476,2.1731,2.2325,2.2645,2.2058,2.2658,2.3011,2.2334,2.2785,2.3377,0.0,2.4491,2.5012,2.5234,2.6804,2.8271,2.9265,2.8832,2.8971,3.014,3.1067,3.1673,3.1891,3.57,3.7863,3.7801,3.9363,4.0204,4.0204,4.0146,3.9601,3.8629,3.839,3.778,3.6816,3.6616,3.6492,3.6429,3.496,3.4312,3.4211,3.2775,3.1542,3.0454,2.9352,2.7939,2.634,2.4428,2.2688,2.1029,2.2447,2.1245,2.0653,2.1849,2.2568,2.3461,2.4795,2.4554,2.524,2.8179,2.6497,2.5552,2.6979,2.6497,2.6591,2.7856,2.4659,2.5221,3.1455,2.8963,2.7829,2.9167,2.6132,2.5306,2.7174,2.4763,2.4179,2.5662,2.2686,2.2288,2.4262,2.1003,1.9297,1.8854,1.6852,1.536,1.4433,1.5357,1.4177,1.1553,1.0124,0.9885,1.0189,0.8949,0.891,0.9554,0.9554,0.949,0.9388,0.938,1.0616,1.2342,1.3195,1.4349,1.5411,1.5371,1.5466,1.6714,2.2163,2.3627,2.3748,2.4226,2.4992,2.5392,2.4225,2.4523,2.502,2.4918,2.5154,2.4919,2.3386,2.3474,2.3205,2.1367,2.1855,2.2694,2.3421,2.3715,2.408,2.4639,2.7568,2.8922,2.7352,2.887,2.9472,2.832,2.9966,3.1147,3.145,3.5433,3.7644,3.7544,3.9175,4.0129,4.0351,4.0077,3.9647,3.9109,3.8546,3.7953,3.7328,3.6754,3.6492,3.6414,3.4978,3.4331,3.4211,3.281,3.1368,2.9923,2.9164,2.7627,2.5647,2.4166,2.2283,2.0187,2.2631,2.1835,2.1383,2.1162,2.291,2.4462,2.4933,2.5433,2.5527,2.501,2.5317,2.5381,2.4837,2.7009,2.7761,2.5972,2.7128,2.6976,2.4609,2.7514,2.8198,2.5687,2.685,2.7082,2.6117,2.5073,2.4657,2.4951,2.2762,2.2259,2.3236,2.0685,1.8985,1.7988,1.7099,1.5757,1.4279,1.5656,1.4818,1.2361,1.0089,0.9261,0.9336,0.84,0.8524,0.9234,0.9234,0.9206,0.9141,0.9003,0.984,1.1201,1.2742,1.4229,1.5331,1.5077,1.6152,1.7964,2.0438,2.1306,2.1803,2.3123,2.3605,2.3996,2.4835,2.5301,2.522,2.3863,2.4466,2.5071,2.4518,2.3855,2.3193,2.2459,2.192,2.1819,2.2457,2.295,2.3333,2.3586,2.4839,2.5771,2.5883,2.6993,2.7586,2.7289,2.8008,2.9201,3.0953,3.1717,3.3553,3.6763,3.5622,3.6518,3.9696,3.8062,3.748,3.8023,3.7851,3.7399,3.6723,3.643,3.6399,3.66,3.5561,3.4828,3.4245,3.3332,3.1829,3.0045,2.8842,2.6478,2.3641,2.267,2.1158,1.945,2.3996,2.3044,2.228,2.1589,2.3823,2.5719,2.5826,2.5892,2.6131,2.661,2.6425,2.6238,2.6195,2.8296,2.9036,2.722,2.8023,2.7917,2.6182,2.6337,2.6581,2.6801,2.7059,2.6624,2.5515,2.5574,2.5671,2.5877,2.3447,2.3046,2.4489,2.1612,1.9719,1.8712,1.8039,1.6805,1.5216,1.5277,1.4524,1.3089,1.0749,0.9827,0.0,0.8542,0.84,0.8832,0.8893,0.8913,0.8962,0.8857,0.9826,1.1308,1.233,1.391,1.5359,1.5019,1.564,1.6858,1.8649,2.0445,2.192,2.2591,2.353,2.4425,2.4909,2.5585,2.6015,2.5784,2.5996,2.6391,2.6741,2.4943,2.3022,2.179,2.0953,2.0744,2.1551,2.2682,2.3359,2.3178,2.4335,2.5055,2.4733,2.5635,2.6265,2.6336,2.6755,2.7517,2.8647,3.0249,3.1826,3.3322,3.3763,3.4714,3.6249,3.4962,3.4866,3.5979,3.5979,3.6046,3.6132,3.5784,3.5705,3.5721,3.4681,3.4075,3.3734,3.2698,3.1302,2.9675,2.7311,2.482,2.2381,2.1538,2.0615,1.9599,2.5578,2.4359,2.3272,2.2707,2.486,2.6829,2.7176,2.6609,2.7145,2.9857,2.8394,2.7568,2.8767,2.9693,3.0044,2.9633,2.8081,2.8112,3.0441,2.5419,2.4597,2.9597,2.7247,2.5695,2.5462,2.6318,2.7064,2.77,2.4574,2.4296,2.6625,2.2994,2.088,2.0053,1.9158,1.7938,1.6448,1.4644,1.3829,1.3588,1.1556,1.0772,1.0658,0.8897,0.8314,0.8456,0.8533,0.8662,0.8787,0.8787,0.9995,1.1606,1.1901,1.3385,1.4986,1.4981,1.4717,1.4874,1.7093,1.9819,2.2105,2.2083,2.3591,2.4956,2.4252,2.5213,2.67,2.8339,2.8045,2.7847,2.8773,2.5891,2.2531,2.0093,1.9436,1.9582,2.0627,2.2497,2.3506,2.2833,2.4621,0.0,2.3658,2.4603,2.5373,2.5491,2.5932,2.6203,2.6198,2.9667,3.0963,2.9513,3.2553,3.3622,3.2392,3.195,3.2624,3.4332,3.3985,3.4534,3.5855,3.5151,3.4776,3.4595,3.3367,3.296,3.3017,3.1589,3.0195,2.8599,2.5283,2.3053,2.1593,2.0721,2.0294,1.9933,2.5121,2.4345,2.4174,2.4255,2.5029,2.6377,2.8554,2.9346,2.9346,2.8279,2.8471,2.85,2.7934,2.927,2.9873,2.9017,2.8733,2.7434,2.4775,2.5128,2.6138,2.7658,2.8497,2.8262,2.6863,2.7686,2.8536,2.9315,2.6239,2.5434,2.6625,2.3433,2.127,2.0063,1.9291,1.8003,1.6309,1.4449,1.3646,1.3427,1.1252,1.0183,0.9756,0.8356,0.7997,0.8243,0.8256,0.8444,0.8657,0.8657,0.8893,0.951,1.1391,1.2302,1.2961,1.4459,1.4915,1.518,1.665,1.6847,1.7344,2.0199,2.1207,2.1609,2.194,2.3478,2.5133,2.6157,2.6802,2.7214,2.7215,2.4342,2.1117,1.8515,1.8178,1.8543,1.9404,2.1199,2.2022,2.1007,2.2615,2.3346,2.2112,2.3752,2.4925,2.4952,2.5086,2.5953,2.7782,2.7014,2.7827,3.0768,2.992,3.0823,3.3794,3.1886,3.2835,3.6613,3.4386,3.4529,3.671,3.5307,3.4795,3.4945,3.3959,3.3248,3.2676,3.1483,2.8963,2.5697,2.3963,2.2447,2.1104,2.0323,1.9307,1.832,2.6944,2.5612,2.4711,2.4507,2.5767,2.712,2.807,2.9899,3.0805,2.983,3.0171,3.0271,2.9763,3.0457,3.0817,3.0331,2.9422,2.8282,2.6865,2.6438,2.6494,2.7157,2.7965,2.8433,2.8512,2.806,2.8065,2.8497,2.6298,2.5884,2.7085,2.3695,2.176,2.1092,2.0085,1.8377,1.623,1.5857,1.5061,1.3892,1.2115,1.0979,1.0236,0.8657,0.8039,0.7981,0.8025,0.8292,0.86,0.8608,0.8907,0.9607,1.1445,1.2397,1.3107,1.4534,1.5048,1.5259,1.5826,1.6169,1.6722,1.8301,1.8985,1.9817,2.1901,2.3456,2.464,2.502,2.5474,2.5539,2.4788,2.3545,2.1631,1.8647,1.7979,1.8278,1.9499,2.0576,2.132,2.1482,2.3179,2.3775,2.2353,2.3236,2.3807,2.3666,2.3952,2.4642,2.586,2.6245,2.7322,2.9273,2.9208,3.0008,3.1848,3.0483,3.1249,3.4023,3.2716,3.3105,3.4874,3.3807,3.3339,3.3339,3.2613,3.1965,3.1302,2.9605,2.7094,2.4115,2.2673,2.1311,1.9973,1.8683,1.7842,1.726,2.9004,2.7446,2.6021,2.5491,2.6828,2.7978,2.807,2.9814,3.1288,3.1669,3.1705,3.1705,3.1705,3.1661,3.1428,3.0989,2.992,2.9525,3.0174,2.8038,2.686,2.7209,2.7419,2.806,2.9175,2.8052,2.751,2.7637,2.6346,2.6183,2.705,2.4039,2.23,2.167,2.0877,1.9008,1.6466,1.7185,1.6455,1.4658,1.3229,1.203,1.0932,0.9238,0.82,0.7672,0.772,0.8025,0.8464,0.8428,0.8903,0.9738,1.1164,1.2313,1.3331,1.4324,1.4962,1.5298,1.5203,1.6048,1.6865,1.6677,1.7045,1.8308,2.1352,2.2658,2.3303,2.3509,2.3791,2.38,2.3011,2.3044,2.2103,1.8877,1.7938,1.7982,1.9089,1.9696,2.0462,2.1543,2.3071,2.3504,2.2193,2.2024,2.1942,2.1944,2.2647,2.3312,2.3866,2.5584,2.6704,2.7055,2.8314,2.9052,2.9216,2.8832,2.9695,3.174,3.1211,3.1763,3.324,3.2431,3.1905,3.1553,3.0985,3.0241,2.9359,2.7282,2.5119,2.2888,2.1399,1.9876,1.8355,1.705,1.6239,1.5869,2.9902,2.9516,2.9298,2.9038,2.8169,2.8248,3.0556,3.0085,2.9996,3.1524,3.1705,3.1705,3.1705,3.1484,3.0565,2.8674,2.9741,3.0429,3.0195,2.9124,2.8115,2.726,2.8187,2.8319,2.7458,2.8063,2.839,2.8403,2.7715,2.674,2.549,2.4726,2.2923,2.0417,2.1281,2.0091,1.7458,1.7285,1.6622,1.5523,1.4028,1.2467,1.0946,0.9641,0.8291,0.7183,0.7183,0.7496,0.7984,0.7988,0.8028,0.8332,0.9689,1.0973,1.2137,1.3099,1.4381,1.546,1.5486,1.554,1.5678,1.5715,1.5751,1.6234,1.7832,1.865,1.9312,2.0226,2.1509,2.2722,2.3398,2.2666,2.0995,1.7996,1.7412,1.7098,1.6473,1.7665,1.8687,1.8954,1.9505,1.9841,1.9722,1.9011,1.8899,1.9723,2.1121,2.2728,2.4517,2.3622,2.3744,2.5283,2.5478,2.6245,2.7679,2.7605,2.9698,3.3868,3.1494,3.1691,3.4028,3.2717,3.1646,3.0854,3.0126,2.8691,2.6755,2.53,2.3453,2.1355,1.9994,1.8191,1.6281,1.6116,1.4789,1.3082,3.1508,3.0066,2.8792,2.8485,2.8611,2.9086,2.9923,3.0262,3.0691,3.1356,3.1617,3.1617,3.1484,3.135,3.0944,3.0064,3.0451,3.0664,3.0689,2.9203,2.8168,2.776,2.7467,2.7133,2.667,2.7133,2.7592,2.8091,2.6556,2.5731,2.5583,2.4432,2.3132,2.1765,2.1693,2.0383,1.8208,1.8184,1.7261,1.5683,1.4322,1.3093,1.1972,0.9981,0.8772,0.8061,0.7218,0.7231,0.7672,0.768,0.768,0.7915,0.9327,1.0625,1.186,1.2934,1.4418,1.5635,1.554,1.5588,1.5678,1.5638,1.5639,1.5999,1.7591,1.7992,1.8431,1.9889,2.0552,2.1566,2.3727,2.2678,2.0659,1.8364,1.8244,1.8306,1.7863,1.7458,1.811,2.0581,2.0428,2.0376,2.1121,1.9641,1.8766,1.9068,2.0103,2.1236,2.2412,2.2905,2.397,2.5834,2.5876,2.7185,2.9876,2.9164,2.998,3.239,3.1597,3.158,3.2233,3.1149,3.019,2.9319,2.8362,2.7412,2.6356,2.4345,2.2492,2.0671,1.884,1.7109,1.5511,1.442,1.3457,1.2619,3.2946,3.1215,2.9567,2.8599,2.9212,2.9648,2.9147,3.0307,3.1107,3.0806,3.1197,3.1439,3.1306,3.1128,3.0784,3.0296,3.0357,3.0242,2.9773,2.8735,2.8059,2.7864,2.706,2.6515,2.6412,2.6539,2.6869,2.7458,2.6123,2.5462,2.5516,2.4097,2.3156,2.2636,2.2094,2.0763,1.8964,1.8755,1.7731,1.615,1.4943,1.3868,1.2813,1.0963,0.9686,0.8648,0.7596,0.7265,0.7272,0.7279,0.7326,0.7565,0.869,0.9881,1.1126,1.2379,1.3907,1.524,1.552,1.5689,1.5758,1.5703,1.5663,1.5881,1.7077,1.7175,1.7495,1.9199,1.9437,2.0165,2.2857,2.1983,2.0498,1.9274,1.8915,1.8718,1.8442,1.7644,1.8132,2.0871,2.023,1.9981,2.1084,1.9751,1.8702,1.8478,1.9263,2.0101,2.0912,2.1541,2.2796,2.4754,2.4235,2.5604,2.9158,2.8192,2.8578,3.0392,3.0544,3.0418,3.0012,2.9303,2.8362,2.7261,2.6293,2.5454,2.4619,2.2591,2.0899,1.9426,1.7495,1.5856,1.4468,1.3167,1.2534,1.2198,3.4017,3.3572,3.2837,3.0541,3.017,2.9899,2.8958,3.0048,3.064,2.9632,3.0331,3.0994,3.1261,3.0668,2.9619,2.818,2.9078,2.8872,2.6876,2.7685,2.7949,2.7354,2.7288,2.7066,2.6614,2.6603,2.6603,2.6603,2.7174,2.6579,2.49,2.3928,2.3047,2.2288,2.2351,2.1445,1.9832,1.8842,1.7971,1.7185,1.6204,1.4779,1.3246,1.2976,1.1093,0.8566,0.8295,0.7572,0.6795,0.6795,0.6922,0.7143,0.7418,0.8362,0.9606,1.1075,1.2559,1.4042,1.5414,1.5784,1.5758,1.5703,1.5663,1.5574,1.554,1.5488,1.5887,1.7387,1.7753,1.833,2.0274,2.0346,2.0257,2.0624,1.907,1.7607,1.7118,1.8046,1.8686,1.8387,1.7578,1.7381,1.8248,1.831,1.8134,1.7758,1.8564,1.9621,2.0753,1.9064,1.9004,2.0997,1.9071,1.9878,2.3746,2.3189,2.4755,2.8418,2.8032,2.7832,2.7832,2.7406,2.6315,2.4682,2.395,2.2549,2.0659,1.9525,1.8371,1.7227,1.5921,1.4307,1.2747,1.2705,1.2112,1.1305,3.1548,3.2474,3.3042,3.1326,3.1229,3.1321,3.1186,3.1061,3.084,3.0311,3.0208,3.0238,3.0532,3.0227,2.9784,2.9183,2.8131,2.7632,2.8085,2.6746,2.6453,2.7588,2.6279,2.54,2.5176,2.4952,2.4775,2.4618,2.5198,2.5228,2.4786,2.3213,2.2767,2.326,2.2017,2.0376,1.8596,1.8473,1.7505,1.6055,1.5872,1.5386,1.4656,1.3379,1.2228,1.0983,0.8922,0.7997,0.7672,0.7002,0.684,0.6925,0.7143,0.8176,0.9425,0.9971,1.1853,1.3614,1.3239,1.4418,1.5609,1.4694,1.508,1.5722,1.5816,1.5718,1.5688,1.6084,1.6141,1.6419,1.7343,1.8096,1.8192,1.7123,1.8355,1.8708,1.6669,1.6702,1.7159,1.7739,1.6756,1.6698,1.8401,1.7971,1.7772,1.8273,1.8178,1.8542,1.9581,2.0122,2.1108,2.268,2.2066,2.2833,2.5127,2.4153,2.4805,2.7052,2.7215,2.6662,2.5407,2.5156,2.4035,2.2286,2.183,2.1215,2.0404,1.826,1.7294,1.6911,1.4159,1.2936,1.2619,1.1989,1.1073,1.0154,3.2324,3.3212,3.3829,3.2468,3.2407,3.2431,3.2056,3.2019,3.177,3.1064,3.0602,3.0384,3.0543,2.9943,2.9473,2.9484,2.8232,2.7788,2.8734,2.7269,2.6845,2.7838,2.6647,2.5815,2.5557,2.5362,2.507,2.4774,2.4956,2.5092,2.515,2.3308,2.2801,2.3444,2.1561,2.0076,1.8972,1.838,1.7498,1.6372,1.5778,1.5499,1.5378,1.42,1.3261,1.2375,1.0505,0.9129,0.8102,0.752,0.7101,0.6836,0.6966,0.769,0.8616,0.9305,1.0766,1.2067,1.1961,1.3108,1.4124,1.3349,1.3708,1.4396,1.4658,1.4966,1.5078,1.4612,1.474,1.5153,1.5875,1.641,1.6551,1.5998,1.7707,1.8606,1.7177,1.6477,1.6514,1.7483,1.6437,1.6287,1.797,1.7735,1.7687,1.8181,1.7669,1.7767,1.8736,1.9603,2.0607,2.1895,2.1958,2.2822,2.4575,2.3258,2.341,2.5125,2.4883,2.4236,2.3292,2.3046,2.1954,2.0228,1.9999,1.9262,1.8024,1.6428,1.5455,1.4713,1.2568,1.1697,1.1634,1.1041,1.0115,0.9183,3.5289,3.5265,3.5048,3.3846,3.3672,3.3263,3.1941,3.2853,3.3235,3.1876,3.1457,3.13,3.1267,2.9852,2.8978,2.9174,2.9028,2.8879,2.8792,2.8705,2.8497,2.8147,2.796,2.7676,2.7305,2.7217,2.7009,2.6639,2.6223,2.6005,2.5952,2.4034,2.3144,2.3057,2.1132,2.0382,2.0419,1.8527,1.777,1.7716,1.5872,1.5267,1.5452,1.522,1.4236,1.301,1.2612,1.0728,0.8359,0.8257,0.7572,0.6751,0.6795,0.6925,0.7371,0.8908,0.9418,0.9821,1.124,1.1741,1.1881,1.1794,1.1905,1.2161,1.2522,1.3529,1.4093,1.3203,1.3565,1.4382,1.5498,1.525,1.5332,1.6668,1.7129,1.7453,1.7888,1.6875,1.6417,1.7216,1.6319,1.6015,1.7022,1.76,1.7785,1.7602,1.7192,1.738,1.8221,1.7879,1.8169,1.9327,1.9477,2.0468,2.2396,2.0814,2.0959,2.2809,2.1497,2.106,2.1408,2.1114,2.0056,1.8402,1.8319,1.6691,1.4077,1.4163,1.3065,1.1278,1.1176,1.0621,0.9903,0.9903,0.9192,0.8261,3.2863,3.4752,3.6075,3.4481,3.4588,3.4751,3.4258,3.4016,3.3562,3.2563,3.2607,3.2488,3.1877,3.0789,3.0068,2.9954,2.8277,2.7633,2.8727,2.773,2.7911,2.9591,2.7676,2.6788,2.7281,2.6362,2.6253,2.7151,2.7031,2.6977,2.6922,2.4686,2.3638,2.353,2.1302,1.9911,1.9163,1.8149,1.7264,1.656,1.5499,1.5131,1.5178,1.5131,1.4895,1.4415,1.3008,1.1383,0.971,0.8568,0.7344,0.6349,0.6707,0.6836,0.7025,0.7827,0.8656,0.9292,0.8987,1.0325,1.1542,1.0689,1.1446,1.2543,1.2824,1.3259,1.3515,1.3285,1.3371,1.3585,1.3878,1.3717,1.3834,1.474,1.623,1.6371,1.3724,1.4455,1.5095,1.4539,1.4853,1.5427,1.6265,1.7182,1.7637,1.7329,1.7648,1.7944,1.7987,1.8184,1.8823,1.9963,2.0007,2.0261,2.0746,2.036,2.0403,2.0845,2.0539,2.0051,1.9459,1.8985,1.7635,1.5701,1.5388,1.4282,1.2626,1.186,1.1374,1.1045,1.0134,0.9414,0.8834,0.8834,0.7647,0.603,3.4312,3.5677,3.6708,3.5756,3.5853,3.6016,3.5803,3.5399,3.4896,3.433,3.3775,3.3242,3.2821,3.1709,3.0956,3.0833,2.8869,2.8141,2.9372,2.8679,2.8845,3.0135,2.8774,2.7991,2.8002,2.7291,2.7173,2.7598,2.7424,2.7315,2.726,2.5092,2.4079,2.3978,2.1803,2.0509,1.9939,1.9083,1.8022,1.687,1.6011,1.5369,1.4941,1.4941,1.4902,1.4765,1.3838,1.257,1.1116,0.9568,0.8212,0.7135,0.6631,0.6615,0.6882,0.7201,0.7844,0.8364,0.8021,0.8881,0.9836,0.9466,1.0391,1.1456,1.1642,1.2274,1.2738,1.2281,1.2464,1.2615,1.2518,1.2421,1.2693,1.3495,1.4469,1.4448,1.2492,1.2754,1.3139,1.2981,1.3653,1.4469,1.5356,1.6652,1.7355,1.7156,1.7181,1.7334,1.7705,1.7513,1.8238,2.0116,2.0187,2.0187,2.0187,1.9778,1.933,1.8872,1.8872,1.8603,1.811,1.7591,1.6432,1.4751,1.4322,1.3065,1.1363,1.0801,1.0314,0.9755,0.8701,0.8053,0.7639,0.7138,0.6002,0.4739,3.6978,3.6978,3.6978,3.6978,3.6978,3.6915,3.6707,3.6563,3.6365,3.6072,3.4868,3.4037,3.4014,3.2835,3.2042,3.2071,3.0491,2.9758,3.0351,3.051,3.0522,3.0441,3.0329,2.9897,2.9024,2.8885,2.8606,2.81,2.773,2.7534,2.7478,2.5468,2.4519,2.4417,2.2319,2.1413,2.1309,2.0321,1.9082,1.769,1.6703,1.5638,1.4626,1.4676,1.4673,1.4667,1.4715,1.3778,1.2246,1.0693,0.9464,0.8314,0.6754,0.6543,0.6882,0.7096,0.7315,0.7557,0.7787,0.7925,0.8087,0.8579,0.9319,0.9976,1.0097,1.1153,1.1872,1.1077,1.1306,1.1569,1.1333,1.1246,1.142,1.2069,1.2198,1.2161,1.2095,1.1629,1.152,1.2127,1.2803,1.3525,1.4393,1.5679,1.6474,1.6679,1.6164,1.6326,1.7344,1.6647,1.7318,1.9708,1.9808,1.9783,1.9725,1.8952,1.8063,1.7192,1.7192,1.7091,1.6951,1.6527,1.5551,1.4241,1.3736,1.2273,1.0229,1.0297,0.9585,0.8375,0.7619,0.701,0.6446,0.5551,0.4701,0.3945,3.6978,3.6978,3.6978,3.6978,3.6978,3.6915,3.6707,3.6682,3.6431,3.5844,3.571,3.556,3.5331,3.4564,3.4079,3.419,3.3244,3.2232,3.146,3.1887,3.1935,3.138,3.1074,3.0606,3.0,2.9198,2.8771,2.8694,2.8617,2.8574,2.8517,2.6133,2.4969,2.4902,2.2491,2.1413,2.1309,2.0321,1.9082,1.769,1.6703,1.5488,1.432,1.4523,1.4601,1.4666,1.493,1.3952,1.2314,1.1221,0.9819,0.8331,0.7336,0.71,0.7246,0.7693,0.7887,0.7926,0.811,0.8394,0.8738,0.9046,0.941,0.9768,1.0226,1.0707,1.1049,1.1146,1.0875,1.0554,1.0378,0.9806,0.929,0.8978,0.9947,1.0366,0.9385,1.1192,1.2371,1.1791,1.2528,1.32,1.3309,1.3354,1.3771,1.4661,1.5038,1.5687,1.6786,1.7092,1.7457,1.7885,1.7934,1.7755,1.7488,1.7344,1.7072,1.6723,1.6723,1.6244,1.533,1.5092,1.3832,1.1842,1.1527,1.0599,0.9288,0.9072,0.8877,0.8625,0.8509,0.7389,0.5839,0.5931,0.4797,0.3245,3.7095,3.6978,3.6978,3.6978,3.6978,3.6993,3.6889,3.6853,3.6699,3.6402,3.6304,3.6196,3.6105,3.5661,3.5391,3.5429,3.456,3.3773,3.3256,3.3013,3.249,3.1633,3.1437,3.0877,2.9831,2.9157,2.8841,2.8961,2.8841,2.8852,2.8903,2.6526,2.5409,2.5304,2.3055,2.207,2.2021,2.156,2.0077,1.8085,1.7633,1.6118,1.4223,1.4326,1.4396,1.431,1.3864,1.3308,1.2511,1.0595,0.9539,0.8871,0.7631,0.7295,0.7423,0.7736,0.808,0.835,0.8383,0.8709,0.9031,0.9183,0.9529,0.992,1.0314,1.0359,1.0462,1.0703,1.0364,0.9846,0.9457,0.9104,0.8761,0.8357,0.8869,0.9095,0.8581,0.9859,1.0657,1.0151,1.1402,1.229,1.229,1.284,1.3408,1.3916,1.4163,1.4533,1.4989,1.525,1.5418,1.5418,1.608,1.6337,1.6204,1.5499,1.5057,1.493,1.493,1.4651,1.4166,1.3932,1.2927,1.128,1.101,1.0198,0.9104,0.9099,0.8993,0.8811,0.8316,0.7085,0.5582,0.5141,0.4119,0.2904,3.7491,3.7173,3.6978,3.6978,3.6978,3.6996,3.7057,3.6887,3.6825,3.703,3.6715,3.6552,3.6743,3.6551,3.6415,3.6515,3.5801,3.5259,3.5019,3.4318,3.3218,3.1661,3.1363,3.0619,2.9305,2.9186,2.9081,2.8978,2.8972,2.8976,2.8951,2.6744,2.5703,2.5606,2.352,2.2594,2.2594,2.2224,2.0656,1.8352,1.8046,1.6354,1.4064,1.4064,1.4049,1.3903,1.3053,1.2791,1.242,1.0247,0.9532,0.9268,0.7834,0.7516,0.772,0.7589,0.7946,0.8388,0.8605,0.8995,0.9286,0.9286,0.9579,0.992,1.0113,1.0019,0.9969,1.0113,0.9719,0.9278,0.8874,0.8676,0.8541,0.8237,0.82,0.8231,0.8371,0.8737,0.9009,0.8995,1.0268,1.113,1.113,1.2067,1.2765,1.3013,1.3116,1.325,1.3503,1.3558,1.3585,1.3585,1.4566,1.5029,1.4967,1.392,1.34,1.3295,1.3303,1.3201,1.2958,1.2737,1.1984,1.0855,1.0575,0.99,0.9016,0.9047,0.8803,0.8266,0.7625,0.6452,0.4987,0.4278,0.3469,0.2709,3.8302,3.7591,3.6978,3.6978,3.6978,3.7057,3.7176,3.6778,3.6659,3.7366,3.6789,3.6643,3.7506,3.7404,3.7451,3.7717,3.7678,3.7237,3.6254,3.61,3.4733,3.1743,3.0771,2.9785,2.8585,2.9563,2.9573,2.8535,2.9171,2.9196,2.8572,2.6627,2.5703,2.5606,2.352,2.2594,2.2493,2.1226,1.9767,1.83,1.6996,1.5364,1.3727,1.3727,1.3609,1.3372,1.3573,1.2763,1.1675,1.1265,1.0298,0.9012,0.7928,0.7974,0.8275,0.738,0.7328,0.7808,0.8702,0.9259,0.9579,0.9579,0.9579,0.9575,0.932,0.9472,0.9575,0.932,0.9069,0.8825,0.8825,0.8382,0.7948,0.771,0.7798,0.8053,0.8371,0.8594,0.8914,0.9462,0.9665,0.9743,0.9743,0.9855,1.03,1.1315,1.1606,1.2169,1.3164,1.3471,1.3585,1.3585,1.3671,1.3606,1.3386,1.3265,1.3046,1.278,1.2696,1.2192,1.137,1.1224,1.0604,0.9595,0.9291,0.9013,0.8775,0.8324,0.743,0.6427,0.665,0.5391,0.3497,0.3918,0.3444,0.2547,3.862,3.8204,3.7859,3.7233,3.7237,3.7311,3.7303,3.7354,3.7499,3.7774,3.7759,3.7807,3.7978,3.7941,3.7911,3.7887,3.7307,3.6709,3.632,3.5702,3.4389,3.2184,3.1448,3.0404,2.9032,2.9092,2.9092,2.8981,2.9133,2.9296,2.9462,2.7262,2.6159,2.6055,2.3531,2.246,2.2544,2.1607,2.004,1.8039,1.7732,1.6056,1.3699,1.3699,1.3645,1.3478,1.2679,1.1621,1.0519,0.9822,0.878,0.7716,0.7431,0.7399,0.7437,0.7206,0.7248,0.7475,0.7936,0.8306,0.8621,0.8826,0.8878,0.8874,0.8922,0.8772,0.8672,0.8922,0.8614,0.8361,0.8566,0.8467,0.8258,0.8185,0.8361,0.8567,0.8713,0.8908,0.918,0.9375,0.9398,0.9398,0.9398,0.9398,0.9599,1.0,1.0271,1.0617,1.1019,1.1297,1.1493,1.1493,1.119,1.1467,1.2394,1.139,1.0845,1.072,1.0325,0.9955,0.9584,0.9235,0.8961,0.8809,0.8446,0.8425,0.8531,0.8321,0.7524,0.6458,0.6566,0.5248,0.324,0.3452,0.2977,0.2237,3.9838,3.9134,3.8579,3.8164,3.7763,3.751,3.7594,3.7747,3.7943,3.8144,3.8399,3.8479,3.8336,3.8317,3.8226,3.79,3.7214,3.6815,3.6815,3.6143,3.4848,3.2767,3.2139,3.1122,2.9497,2.9136,2.8983,2.9001,2.9063,2.9253,2.9546,2.7568,2.6432,2.5942,2.3721,2.2572,2.233,2.1374,1.9732,1.7761,1.7457,1.579,1.3423,1.3423,1.3369,1.3147,1.2186,1.09,0.958,0.9095,0.7913,0.6712,0.685,0.6711,0.6481,0.679,0.6782,0.6725,0.6942,0.7115,0.7425,0.8082,0.8217,0.8269,0.8374,0.822,0.8062,0.8266,0.8164,0.8065,0.8325,0.843,0.8482,0.8482,0.8643,0.8808,0.8912,0.907,0.9223,0.9276,0.9276,0.9276,0.9276,0.938,0.9433,0.9433,0.9694,0.9847,0.9847,1.0056,1.0212,1.0212,0.9743,0.9983,1.1011,0.9877,0.9179,0.9076,0.8642,0.8348,0.8257,0.7887,0.7862,0.8021,0.7703,0.7777,0.8031,0.7924,0.722,0.6192,0.5924,0.4582,0.2862,0.2592,0.2163,0.1733,4.2158,4.037,3.9039,3.9945,3.8686,3.7634,3.7933,3.7736,3.776,3.8487,3.8495,3.8479,3.8581,3.8602,3.8434,3.7946,3.79,3.79,3.79,3.79,3.6508,3.3353,3.2716,3.1604,2.9922,2.9973,2.9406,2.8291,2.8887,2.8921,2.8406,2.7444,2.6349,2.5133,2.4062,2.2966,2.1788,2.0033,1.8642,1.7458,1.5696,1.4159,1.2935,1.2881,1.2713,1.2387,1.2387,1.0891,0.9016,0.9574,0.8251,0.6318,0.6318,0.5877,0.5491,0.6098,0.588,0.5437,0.5712,0.5822,0.6107,0.7549,0.7908,0.7855,0.7651,0.7806,0.7855,0.7328,0.7644,0.8016,0.8016,0.8276,0.8486,0.8486,0.8486,0.8594,0.8864,0.892,0.9021,0.9279,0.9279,0.9279,0.9279,0.9541,0.9694,0.9694,1.0008,1.0216,1.0216,1.0216,1.0164,1.0164,0.9747,0.9352,0.9086,0.8917,0.8581,0.8107,0.8032,0.7795,0.7481,0.735,0.7302,0.7302,0.7026,0.6986,0.7154,0.6824,0.6209,0.5316,0.4364,0.3246,0.2073,0.1233,0.0898,0.0898,4.2388,4.2035,4.144,4.0416,3.9692,3.9005,3.8265,3.8327,3.8532,3.8594,3.8845,3.8969,3.8819,3.8679,3.8466,3.8135,3.7979,3.7749,3.7353,3.7353,3.6581,3.4945,3.3578,3.1955,2.9922,2.9175,2.8717,2.8568,2.8747,2.8993,2.9245,2.8098,2.6907,2.5614,2.4132,2.2884,2.1858,2.0933,1.9892,1.87,1.7369,1.5856,1.433,1.3311,1.2827,1.2718,1.2495,1.0891,0.8906,0.9127,0.7587,0.5656,0.5656,0.5547,0.5437,0.5603,0.5547,0.5437,0.5491,0.5491,0.5701,0.6578,0.6944,0.7051,0.6996,0.7215,0.7431,0.7491,0.7601,0.7874,0.825,0.8413,0.8577,0.8747,0.8801,0.8801,0.8913,0.8913,0.8913,0.9022,0.9022,0.9022,0.9022,0.9077,0.924,0.9454,0.9996,1.0371,1.0534,0.9985,0.966,0.966,0.8546,0.7897,0.7844,0.7995,0.7883,0.7505,0.7094,0.6848,0.6723,0.6402,0.6388,0.6556,0.6275,0.6294,0.655,0.6659,0.6042,0.5033,0.4979,0.3606,0.1538,0.1254,0.0632,-0.0058,4.3101,4.2946,4.2631,4.1868,4.0754,3.9774,3.9112,3.8953,3.8877,3.8711,3.9083,3.9203,3.8908,3.8787,3.8575,3.8245,3.7815,3.7366,3.6875,3.6828,3.6465,3.562,3.4203,3.2532,3.0587,2.9523,2.8804,2.8514,2.8514,2.8717,2.9079,2.8325,2.7315,2.6088,2.4565,2.3308,2.2253,2.1353,2.0233,1.9064,1.7653,1.6193,1.4757,1.3277,1.2713,1.2659,1.2495,1.1223,0.9567,0.9068,0.7365,0.5382,0.5382,0.5382,0.5382,0.5382,0.5382,0.5382,0.5382,0.5382,0.5493,0.5828,0.6161,0.6379,0.6659,0.6879,0.7102,0.7382,0.7549,0.7718,0.81,0.8322,0.8543,0.8712,0.8826,0.8885,0.8885,0.8885,0.8885,0.8885,0.8885,0.8885,0.8885,0.8995,0.9213,0.9544,0.9931,1.0247,1.0413,0.9745,0.9384,0.9384,0.8052,0.7289,0.7174,0.7117,0.7039,0.6767,0.6467,0.6175,0.602,0.5832,0.5825,0.5998,0.5825,0.5939,0.6228,0.6396,0.6164,0.5705,0.5421,0.436,0.301,0.2489,0.1864,0.1176,4.414,4.34,4.2864,4.3746,4.1763,4.0083,4.0247,3.9516,3.8908,3.8863,3.9114,3.9158,3.8908,3.8863,3.8684,3.8245,3.7526,3.6922,3.6452,3.6358,3.6086,3.556,3.4605,3.3289,3.1626,3.0494,2.9418,2.8441,2.8344,2.8291,2.8291,2.8291,2.7682,2.6472,2.5232,2.4069,2.2902,2.138,2.0125,1.9034,1.7109,1.5748,1.463,1.3014,1.2387,1.2387,1.2387,1.1664,1.0503,0.9182,0.7257,0.5382,0.5382,0.5388,0.5394,0.545,0.5454,0.5462,0.5518,0.5516,0.5516,0.5516,0.5682,0.6011,0.6495,0.6659,0.6773,0.7112,0.7343,0.7572,0.7639,0.8081,0.8468,0.8468,0.8696,0.8922,0.8922,0.8922,0.8922,0.8922,0.8922,0.8922,0.8922,0.9255,0.9529,0.9806,0.9943,0.9975,0.9918,0.9479,0.9146,0.9087,0.7866,0.7105,0.6869,0.6347,0.6013,0.5985,0.6015,0.5835,0.5522,0.5548,0.5584,0.5584,0.5584,0.5762,0.6059,0.6059,0.6411,0.682,0.576,0.5467,0.5469,0.441,0.3943,0.3595,4.4925,4.4263,4.3663,4.3859,4.2006,4.0406,4.0317,3.9662,3.9069,3.8724,3.8832,3.8922,3.8679,3.8485,3.8291,3.82,3.7526,3.6922,3.6452,3.5991,3.5512,3.4981,3.4775,3.3709,3.1626,3.0494,2.9775,2.9565,2.8698,2.8291,2.8291,2.8291,2.7682,2.6472,2.5232,2.4069,2.2918,2.1628,2.093,2.0466,1.7796,1.6567,1.6013,1.3392,1.2387,1.2387,1.2387,1.1664,1.0398,0.8195,0.6543,0.5382,0.5382,0.5426,0.5538,0.5768,0.5879,0.5998,0.6283,0.6341,0.6341,0.6341,0.6399,0.6355,0.6081,0.6214,0.6519,0.6886,0.7018,0.7217,0.7824,0.8014,0.8187,0.8366,0.8711,0.8884,0.8884,0.9114,0.9286,0.9286,0.9286,0.9286,0.9286,0.957,0.9738,0.9795,1.0058,1.0022,0.9503,0.8723,0.8038,0.751,0.6521,0.5936,0.5877,0.5762,0.5693,0.5675,0.5693,0.5635,0.5556,0.5576,0.5584,0.5584,0.5584,0.5645,0.5704,0.6001,0.6176,0.6294,0.6528,0.592,0.4904,0.4901,0.4156,0.3104,4.5149,4.5144,4.491,4.4587,4.2998,4.1596,4.1184,4.0099,3.9216,3.8948,3.8922,3.8863,3.8742,3.853,3.8272,3.7907,3.7294,3.664,3.6038,3.5656,3.5223,3.4835,3.4775,3.4017,3.2387,3.1484,3.0506,2.9413,2.9115,2.8906,2.8906,2.8906,2.8559,2.788,2.5933,2.4682,2.4006,2.2055,2.1211,2.0988,1.8775,1.7516,1.6678,1.4455,1.323,1.2739,1.2739,1.2,1.0703,0.8844,0.7434,0.636,0.5678,0.5537,0.5573,0.5749,0.5959,0.6118,0.6291,0.6464,0.6581,0.6581,0.6581,0.6553,0.6441,0.6531,0.6777,0.7125,0.7196,0.733,0.768,0.7866,0.8041,0.816,0.8454,0.8687,0.8687,0.8803,0.8975,0.9149,0.9149,0.9091,0.8913,0.932,0.932,0.8678,0.9147,0.9186,0.8537,0.783,0.7324,0.6963,0.6191,0.5714,0.5714,0.5714,0.5714,0.5714,0.5731,0.5708,0.571,0.5755,0.5714,0.5714,0.5714,0.5714,0.5774,0.5955,0.6075,0.6315,0.6796,0.6584,0.6019,0.638,0.5494,0.4119,4.5693,4.6024,4.5972,4.5469,4.3908,4.259,4.2092,4.0474,3.9292,3.9247,3.9056,3.8863,3.8774,3.8575,3.8194,3.7551,3.6968,3.6443,3.5888,3.5465,3.5114,3.5004,3.4725,3.4017,3.2951,3.2317,3.1094,2.9179,2.9466,2.9626,2.9626,2.9626,2.9587,2.9388,2.6596,2.5348,2.5093,2.2448,2.1262,2.1067,1.9685,1.8394,1.7236,1.5563,1.4298,1.3403,1.3179,1.2311,1.1146,1.0055,0.8897,0.768,0.6343,0.5946,0.59,0.5783,0.5915,0.6166,0.6228,0.6462,0.6754,0.6754,0.6754,0.6869,0.7161,0.713,0.711,0.7426,0.749,0.7495,0.7576,0.7811,0.7987,0.7987,0.8228,0.8407,0.8407,0.8466,0.8583,0.8873,0.8873,0.8694,0.8333,0.8808,0.8694,0.7576,0.8084,0.8199,0.7537,0.7084,0.6827,0.6705,0.616,0.5916,0.5916,0.5916,0.5916,0.5916,0.5841,0.5804,0.5806,0.5882,0.5916,0.5916,0.5916,0.5916,0.5916,0.5916,0.6039,0.6344,0.6714,0.7021,0.7385,0.775,0.7008,0.5841,4.7938,4.6927,4.5984,4.6041,4.3675,4.1839,4.1968,4.0474,3.9203,3.8997,3.8908,3.8729,3.8336,3.7907,3.7598,3.7505,3.6841,3.6606,3.6952,3.5854,3.5381,3.5843,3.4301,3.2901,3.183,3.1487,3.0998,3.0348,2.9843,2.9626,2.9626,2.9626,2.9365,2.8894,2.648,2.5185,2.4663,2.2536,2.1467,2.1089,1.992,1.9156,1.8435,1.5903,1.4802,1.4524,1.346,1.2311,1.1265,1.1089,1.0221,0.9007,0.7738,0.7343,0.7249,0.6474,0.6297,0.6426,0.6736,0.7038,0.7279,0.7279,0.7522,0.7762,0.7762,0.7187,0.6781,0.7233,0.7313,0.7462,0.7804,0.7884,0.7944,0.7944,0.8193,0.8381,0.8381,0.8621,0.8863,0.8921,0.8672,0.8366,0.8005,0.8066,0.8005,0.7823,0.7958,0.7723,0.705,0.6942,0.6646,0.6039,0.5916,0.5916,0.5916,0.5916,0.5916,0.5916,0.5904,0.5898,0.59,0.5912,0.5916,0.5916,0.5916,0.5916,0.5916,0.5916,0.5916,0.5978,0.6344,0.665,0.7021,0.7689,0.7747,0.7564,4.8163,4.7946,4.7083,4.5711,4.406,4.2553,4.1396,4.0128,3.9247,3.9158,3.8997,3.8787,3.8453,3.8011,3.7657,3.7505,3.7074,3.6801,3.6757,3.5936,3.5478,3.5563,3.4243,3.3045,3.1968,3.1727,3.1181,3.0389,3.0362,3.0303,3.0303,3.0303,3.0068,2.9563,2.762,2.6157,2.4949,2.3171,2.1952,2.1153,2.0673,1.9943,1.8933,1.7026,1.5889,1.5141,1.3874,1.3111,1.2519,1.1808,1.1154,1.0499,0.9251,0.8339,0.7722,0.7299,0.6548,0.5974,0.6467,0.6467,0.6403,0.6773,0.7077,0.7258,0.6888,0.6756,0.6947,0.7538,0.7612,0.7688,0.7861,0.7872,0.7811,0.7627,0.7875,0.8,0.7635,0.7877,0.8058,0.8058,0.8116,0.793,0.738,0.7686,0.7566,0.6834,0.7136,0.7074,0.6403,0.6342,0.6221,0.5916,0.5916,0.5916,0.5916,0.5916,0.5916,0.5916,0.5916,0.5916,0.5916,0.5916,0.5916,0.5916,0.5916,0.5916,0.5916,0.5916,0.5916,0.5916,0.6283,0.6712,0.7204,0.7508,0.775,0.7872]}]]